GFSSW_sfc_rhum_000.txt.gz
RH
77 76 76 77 80 79 80 82 88 88 87 87 87 89 90 92 86 44 23 27 32 73 65 30 22 22 21 19 12 13 17 19 21 16 21 12 16 16 14 14 19 38 47 52 48
78 78 78 78 79 82 81 85 90 88 88 89 89 91 92 94 53 22 31 51 68 77 20 22 22 20 19 13 14 14 19 30 16 14 18 17 16 14 12 20 22 52 47 50 59
79 79 79 80 80 81 86 90 91 88 88 89 90 91 93 91 32 20 42 59 71 64 30 28 24 21 16 14 17 39 23 19 19 18 18 22 19 16 16 20 23 53 47 55 63
84 82 81 81 82 84 90 92 92 90 90 88 89 90 92 62 26 19 48 63 69 50 28 20 18 21 18 19 20 19 19 18 18 19 20 23 33 20 40 16 18 34 50 57 59
91 91 89 86 86 90 93 94 94 93 90 88 91 89 62 34 26 16 50 34 16 18 18 17 20 23 26 25 22 21 21 19 17 17 19 20 20 19 20 16 18 26 31 38 45
91 91 91 90 90 92 94 94 94 94 90 88 91 92 44 32 17 15 16 16 16 17 17 16 21 20 25 23 25 27 23 21 18 19 20 20 22 22 17 18 18 26 28 28 28
90 89 90 90 90 92 93 95 94 93 90 88 88 60 57 23 18 20 18 18 16 20 19 17 21 19 23 28 24 24 25 22 21 21 20 17 19 18 14 16 19 22 28 28 26
89 89 88 87 88 89 91 91 92 91 90 89 88 65 32 17 20 16 18 19 17 17 19 16 17 22 28 25 26 27 28 30 20 21 17 16 20 14 16 20 21 22 24 27 28
88 88 87 87 86 86 83 86 90 90 93 91 71 60 32 23 19 17 18 19 18 20 22 16 24 27 24 31 31 30 30 30 22 18 19 20 21 19 20 19 20 23 23 26 27
88 87 86 85 86 86 86 84 89 89 84 65 46 43 24 23 20 18 15 15 20 24 23 28 30 31 31 31 36 34 29 35 32 24 30 28 28 25 20 20 19 21 22 24 25
89 87 85 84 85 84 63 53 52 37 42 26 26 26 20 16 19 16 16 18 22 29 34 26 30 33 29 31 29 30 32 37 32 27 33 35 35 28 24 27 27 29 28 30 32
90 88 86 85 83 79 72 54 58 53 45 23 21 20 18 19 24 19 17 23 28 29 23 29 35 27 22 26 29 28 39 39 34 29 37 35 35 26 22 26 26 29 30 28 31
89 89 90 87 83 68 57 64 64 66 59 24 24 23 19 20 25 22 20 25 31 27 27 33 28 23 24 28 28 32 40 41 39 38 40 36 35 25 23 28 27 28 28 27 27
90 90 91 86 51 64 62 54 62 71 63 31 27 24 20 21 29 19 20 26 26 29 28 30 24 21 29 30 32 36 30 36 40 46 52 39 55 33 26 28 29 29 30 29 28
90 90 89 82 71 60 57 66 76 66 79 31 24 19 19 22 22 20 20 26 30 27 27 29 26 26 30 29 32 33 34 41 45 52 54 43 47 33 26 27 27 36 34 36 38
90 91 89 72 73 69 74 83 71 88 79 35 26 28 28 25 21 24 31 29 34 37 35 27 24 27 30 31 37 34 42 50 53 53 69 49 44 43 35 28 35 38 36 36 38
91 89 72 71 67 77 88 73 82 75 37 34 34 29 32 30 28 32 40 44 50 48 57 42 33 30 34 40 39 44 60 83 74 81 77 48 51 42 35 30 30 32 37 39 35
92 86 81 77 85 82 78 79 66 50 38 30 31 30 37 32 32 38 41 49 44 48 62 68 65 43 32 43 47 49 58 86 83 88 79 52 57 42 30 31 29 30 31 34 45
88 87 80 75 81 90 73 86 70 48 33 34 32 38 40 33 32 39 49 49 46 48 59 76 59 44 37 38 42 49 66 53 70 94 89 71 53 33 35 37 37 40 41 45 47
76 85 71 75 80 79 86 61 43 33 36 40 46 43 49 45 45 44 49 47 48 47 51 61 73 55 48 45 44 47 45 69 85 89 96 73 64 53 42 45 43 47 49 49 48
91 67 59 74 77 75 80 60 37 30 36 42 49 53 50 55 54 52 56 50 47 46 52 60 67 65 54 56 60 54 71 62 62 83 96 98 84 52 48 48 47 46 51 52 49
89 64 52 70 66 92 60 43 46 37 41 44 49 50 54 56 59 57 60 53 47 53 65 62 74 87 62 51 49 54 62 66 91 83 90 93 72 41 49 39 49 50 49 51 52
81 78 69 66 81 91 52 46 48 44 46 48 51 50 50 58 66 60 59 54 51 56 60 59 77 87 63 53 58 64 57 63 73 86 88 95 82 37 39 48 48 52 53 54 63
73 87 85 81 78 56 54 57 52 46 46 45 48 48 53 61 56 60 59 57 58 57 65 62 72 74 83 67 73 76 62 58 71 94 84 76 66 50 44 50 54 61 63 65 70
82 75 73 87 78 61 62 58 56 59 48 45 51 54 59 71 66 77 68 65 59 70 63 65 80 77 72 67 70 68 68 68 75 70 88 72 65 55 66 65 62 62 62 63 67
78 83 79 80 65 57 74 55 54 47 52 54 61 65 63 74 70 80 73 75 72 66 76 74 89 87 84 75 79 84 74 72 70 67 68 65 60 75 72 71 72 70 67 73 75
89 82 74 85 74 80 81 57 55 55 59 46 52 60 71 70 64 64 65 66 68 74 82 81 92 97 80 92 95 91 80 69 60 58 62 81 70 78 86 79 76 74 72 76 79

GFSSW_sfc_rhum_003.txt.gz
RH
77 78 79 77 78 79 79 81 86 90 89 89 90 90 91 94 91 66 23 27 32 76 70 24 23 23 23 21 13 15 18 24 22 18 20 15 23 16 16 29 27 51 54 52 66
78 78 79 78 79 81 81 83 90 91 90 91 91 92 94 94 65 24 30 49 64 69 23 24 22 24 15 14 17 17 21 19 17 16 24 18 32 16 15 36 53 66 54 63 66
80 80 79 80 80 81 84 90 93 91 92 92 91 92 95 96 26 18 41 58 73 66 32 30 28 27 16 17 17 22 22 18 19 17 16 25 25 19 17 28 47 53 56 71 76
85 82 80 80 81 83 86 93 94 92 93 92 90 93 94 64 17 15 56 65 69 56 31 20 21 22 25 26 24 20 22 19 20 19 22 23 34 24 42 17 19 45 48 70 72
92 91 88 84 86 86 92 95 95 94 94 91 91 93 64 28 28 18 54 36 20 22 18 19 21 25 27 26 25 23 22 21 20 20 22 22 21 20 20 17 21 47 52 64 67
91 92 93 91 90 92 95 95 96 96 94 91 92 92 43 28 18 18 20 18 18 20 19 17 21 24 25 26 25 28 25 22 22 22 23 23 23 25 20 21 20 38 54 62 59
89 90 91 92 92 93 94 96 96 96 94 91 90 62 44 24 18 22 18 22 22 21 21 19 23 20 27 28 24 24 24 24 25 24 23 21 18 20 20 19 21 32 40 40 39
88 88 88 88 89 90 91 93 95 94 92 91 90 62 33 19 22 18 19 19 19 20 24 22 21 25 25 26 28 25 28 29 21 26 22 18 22 15 20 20 20 24 30 31 31
88 86 87 87 87 88 90 92 94 92 92 90 64 51 34 26 21 21 20 18 17 20 23 19 22 29 27 28 30 33 34 31 24 23 26 21 22 16 25 21 20 24 27 31 33
87 86 86 86 86 88 89 92 93 92 74 55 46 36 23 23 21 18 17 18 21 23 25 25 31 28 32 31 36 37 33 46 33 28 35 37 28 27 28 24 23 31 27 28 27
88 87 87 86 85 86 89 76 52 35 43 32 27 27 22 17 20 18 19 20 24 24 30 30 31 32 33 34 31 32 36 44 36 30 37 42 41 35 32 30 30 31 31 36 36
88 88 88 85 80 79 62 60 58 51 43 31 24 23 21 22 22 20 18 23 26 29 27 33 35 30 27 28 29 36 41 39 38 33 43 41 39 26 25 28 32 34 37 35 38
90 89 90 85 79 63 64 68 72 64 42 27 25 24 23 21 26 24 21 28 29 27 31 35 30 23 27 31 30 34 41 42 41 41 45 42 38 27 27 30 29 30 32 34 37
89 90 90 79 62 69 62 62 71 61 53 33 26 25 20 23 26 21 20 28 26 30 31 33 24 28 30 32 36 40 32 41 43 50 53 45 48 37 29 33 32 33 35 36 33
91 90 89 72 63 57 64 75 82 59 70 32 25 21 23 22 24 24 28 25 34 35 30 35 26 31 32 33 37 38 41 46 52 56 63 45 49 41 35 31 37 42 38 39 37
90 90 86 73 70 72 81 84 69 84 75 37 28 29 28 26 28 32 36 33 39 40 38 41 29 30 35 36 39 38 50 53 58 58 68 55 52 46 40 38 43 40 41 44 39
91 89 70 77 58 80 87 67 77 73 40 37 36 30 34 31 34 39 45 49 55 42 61 50 45 40 37 42 42 48 64 78 69 80 77 55 54 45 38 36 38 40 38 39 40
93 81 87 80 88 84 72 72 62 52 44 34 33 33 35 32 37 45 47 56 49 54 69 72 61 49 41 47 50 54 62 85 75 89 83 58 64 45 38 34 34 32 40 43 47
84 91 76 72 84 86 64 83 65 51 37 40 37 41 46 42 40 45 56 56 56 53 62 82 63 50 48 50 48 55 70 59 80 96 92 76 58 41 43 46 40 45 49 55 57
83 78 66 80 84 65 84 65 45 37 40 45 47 51 54 53 51 50 55 53 53 57 56 66 78 59 51 49 48 49 50 73 87 88 92 81 76 60 51 55 51 55 58 53 55
92 54 55 85 70 68 78 62 39 35 41 49 54 56 58 60 58 61 61 54 52 52 54 62 69 61 55 57 65 63 74 68 67 85 93 97 85 59 59 52 57 58 57 56 56
79 62 55 69 67 89 59 45 53 48 46 47 52 54 59 60 64 62 63 56 51 56 62 67 75 87 64 54 56 57 68 69 88 82 91 95 76 50 51 53 56 61 57 59 57
80 78 68 56 81 88 56 52 52 47 50 51 54 53 58 66 68 62 62 56 52 58 66 63 78 84 59 52 55 68 68 70 79 88 89 95 81 49 46 59 58 65 65 64 61
69 83 81 80 76 56 58 59 54 50 49 48 52 54 57 64 61 66 67 62 64 59 72 63 74 71 83 62 72 80 73 71 75 95 87 82 65 54 58 69 67 69 69 66 65
79 73 79 86 79 68 64 59 59 59 50 52 59 64 62 75 72 83 73 68 63 70 68 68 80 81 75 70 75 74 78 74 84 80 88 78 75 62 64 80 75 70 69 69 65
80 82 80 87 71 57 75 60 59 56 56 60 65 68 66 75 70 82 76 80 75 70 79 81 88 89 89 81 83 88 80 83 81 81 81 76 72 56 77 79 79 78 76 77 76
94 86 71 86 72 80 82 61 58 59 60 53 58 65 72 71 70 68 68 67 66 74 80 82 93 98 86 93 95 84 80 82 74 62 64 80 68 80 82 81 86 81 80 81 78

GFSSW_sfc_rhum_006.txt.gz
RH
76 76 76 77 77 78 79 81 82 88 89 88 89 90 91 94 89 70 23 25 30 68 70 27 24 28 23 19 13 17 20 22 28 16 25 18 35 19 20 34 36 58 64 60 72
78 77 77 78 79 80 80 82 86 90 90 90 91 91 93 95 69 25 36 49 64 70 31 27 25 24 14 18 18 17 22 30 18 16 42 20 24 17 25 49 65 68 67 77 76
80 78 79 79 82 80 81 84 91 92 91 92 92 91 95 95 25 18 58 69 74 67 34 30 28 19 23 24 21 42 22 20 21 19 18 24 23 20 23 45 49 44 65 80 83
86 83 81 80 81 81 84 86 90 92 91 92 90 90 95 83 27 17 62 64 75 53 24 20 21 24 27 24 26 21 21 21 22 22 22 24 35 25 22 17 26 45 61 79 83
92 91 84 83 83 84 86 87 94 94 93 92 90 91 86 30 28 20 55 39 25 19 18 20 22 27 28 27 25 23 24 22 22 20 22 24 24 21 21 18 21 44 64 78 81
92 93 93 90 87 87 88 93 96 96 94 92 91 91 50 30 20 20 20 19 21 23 22 18 23 26 25 27 25 29 28 27 25 23 25 25 26 41 20 23 23 55 58 74 78
90 91 92 92 93 94 95 95 96 95 93 92 90 81 30 27 22 23 20 24 25 24 24 24 24 21 27 28 27 28 27 24 24 26 27 25 22 20 23 20 22 33 59 63 69
88 88 89 91 91 92 92 92 93 94 93 92 90 65 31 22 27 20 19 18 18 23 25 27 25 24 25 30 26 26 28 29 22 27 23 20 26 18 21 23 21 24 44 55 56
87 86 86 86 88 88 90 91 92 92 92 91 70 42 31 26 20 22 19 19 19 20 24 21 24 30 28 27 30 34 36 34 26 31 35 31 26 19 23 29 25 25 30 40 40
87 85 85 85 88 90 92 92 90 91 79 54 40 29 22 23 22 19 20 20 21 27 24 24 29 27 34 30 30 45 34 53 41 31 37 45 34 34 34 31 29 34 33 32 32
86 84 84 84 88 92 94 87 40 33 37 29 30 29 23 18 21 20 22 23 24 24 29 33 31 34 35 36 34 34 38 47 54 36 42 48 47 34 30 32 31 31 35 40 40
88 87 87 85 86 91 78 62 60 56 35 31 26 25 23 24 23 22 20 25 27 30 30 33 34 31 30 32 31 35 42 38 38 38 49 46 42 28 31 34 39 41 42 40 40
89 89 90 87 75 71 70 78 79 66 34 27 26 26 24 21 27 25 22 31 28 27 34 37 33 30 29 34 37 40 40 42 42 43 53 46 39 36 29 33 33 35 40 41 39
89 89 88 79 59 72 64 73 79 51 52 33 26 25 21 24 25 24 30 29 28 31 34 34 28 30 37 36 40 48 36 43 46 56 54 49 48 44 39 35 37 37 36 39 40
90 90 86 63 66 61 67 82 83 49 60 31 26 22 24 23 27 31 34 27 41 41 36 35 32 37 40 39 41 42 49 55 55 62 65 51 50 40 40 36 40 42 38 42 38
89 90 81 67 69 77 85 80 65 77 65 39 30 30 28 30 33 35 39 37 42 43 44 49 36 37 40 39 47 43 56 50 61 61 69 61 57 49 46 42 43 43 42 40 48
90 87 77 78 55 84 84 66 71 74 42 38 36 32 33 36 41 42 49 54 58 40 67 53 50 48 42 48 46 52 60 70 68 79 77 59 60 46 40 41 40 40 40 42 46
85 84 89 86 91 84 68 69 59 53 48 39 36 38 40 38 45 50 53 59 54 57 76 74 57 52 45 52 56 59 64 82 67 91 85 64 64 49 40 42 38 39 50 57 61
86 87 75 78 88 76 63 82 65 52 41 42 41 45 49 48 46 51 61 61 60 60 64 85 64 53 54 57 52 59 73 64 82 97 92 79 64 48 51 50 46 54 56 56 55
88 68 73 87 85 62 83 67 47 45 43 46 51 54 56 57 55 55 61 56 58 61 60 70 78 61 54 53 50 53 54 71 87 92 91 80 77 67 62 56 59 61 57 57 55
84 53 58 89 65 64 78 63 43 49 47 51 56 59 61 63 60 65 63 57 54 58 56 65 70 56 56 60 70 66 76 72 72 87 95 98 82 64 64 63 64 63 64 66 63
69 58 63 72 62 85 61 50 55 52 49 51 54 56 61 65 68 66 65 60 54 62 65 70 76 84 61 57 64 68 70 70 86 77 93 95 86 57 57 64 61 70 66 67 65
77 73 67 61 78 88 61 55 53 50 54 52 56 58 60 68 70 65 64 67 64 61 71 67 79 81 51 55 58 72 74 73 82 88 88 97 77 54 57 63 67 71 72 71 69
69 84 81 83 78 59 59 60 58 52 54 61 60 56 61 67 68 74 73 65 66 67 76 66 76 67 75 58 67 81 80 77 80 94 88 84 68 55 54 63 74 77 77 76 74
79 81 80 85 82 72 67 59 62 61 53 57 62 62 64 75 75 83 75 68 63 72 76 71 82 82 76 71 75 76 81 82 90 84 90 71 80 67 65 66 79 77 78 77 72
81 80 85 89 73 60 75 62 65 61 56 65 65 69 68 71 69 80 79 80 75 75 81 82 86 92 91 89 90 94 85 87 87 87 89 84 88 64 65 85 84 79 79 82 84
96 86 75 90 73 79 80 60 57 60 62 57 62 65 71 69 70 73 69 69 78 78 77 82 94 98 90 92 93 77 68 83 80 74 73 75 58 69 84 82 76 74 88 90 90

GFSSW_sfc_rhum_009.txt.gz
RH
76 77 76 76 77 78 78 79 82 83 87 89 89 90 90 93 91 71 20 22 26 75 57 24 20 20 15 12 11 12 13 13 12 10 11 12 11 12 17 29 24 34 49 44 56
77 77 77 77 78 79 79 80 83 86 89 90 90 92 92 94 70 20 30 56 71 75 24 21 20 17 14 13 15 13 15 14 12 11 12 13 11 11 16 28 36 41 47 61 66
78 78 79 80 81 79 80 82 85 88 90 90 92 92 94 93 28 17 56 73 75 66 25 22 20 16 19 17 17 17 16 15 14 11 12 15 14 13 18 22 25 23 46 63 67
85 81 80 80 80 80 81 83 86 89 89 91 91 91 93 79 28 15 59 67 78 42 24 19 20 21 22 18 18 17 16 15 15 16 15 14 15 15 16 13 17 27 46 59 62
91 90 83 81 81 82 84 86 88 90 92 92 90 91 76 28 23 17 54 37 21 20 17 18 20 22 22 20 19 18 16 16 15 15 14 17 16 15 15 14 14 34 54 58 57
90 92 92 84 84 84 87 88 91 95 94 92 90 91 44 29 16 19 20 17 17 17 18 18 18 19 22 20 20 21 19 19 18 17 18 18 17 17 14 15 18 36 44 52 58
89 90 92 92 91 90 90 92 96 95 94 90 90 81 30 27 18 20 17 19 18 19 19 17 18 18 21 22 24 22 19 18 20 20 17 18 16 15 14 13 15 25 38 51 57
88 89 91 92 92 93 94 94 94 93 92 91 90 68 33 21 22 18 16 15 16 18 20 21 22 24 22 22 21 20 22 21 19 22 19 16 20 15 15 17 17 18 24 45 50
86 86 86 88 89 91 91 91 90 90 90 92 64 40 31 24 19 19 17 17 17 20 23 18 23 26 22 23 22 26 19 24 22 26 27 24 24 19 21 24 23 21 19 33 40
84 85 84 85 87 90 91 88 88 86 77 66 35 31 21 20 20 19 18 20 22 26 23 24 24 24 26 18 21 26 23 26 26 23 29 30 28 26 22 25 26 22 22 28 28
87 84 81 84 88 93 80 63 33 36 33 29 30 27 21 17 18 19 19 21 21 24 27 29 24 27 27 27 25 25 26 30 27 29 32 36 32 21 24 24 26 25 26 26 28
88 86 87 88 86 92 78 58 48 49 31 31 26 25 22 21 23 21 20 23 27 26 24 27 30 24 27 27 24 26 29 26 29 30 34 34 26 24 26 30 32 31 30 29 28
88 88 89 87 90 77 72 71 70 56 35 28 27 26 23 21 28 27 23 29 25 30 31 33 24 27 27 32 34 34 29 32 34 33 34 33 27 28 23 26 27 28 29 28 27
87 89 88 84 63 68 64 63 75 58 48 33 25 22 22 23 26 27 30 26 30 28 30 26 26 33 34 34 34 38 32 40 40 41 36 37 30 31 30 26 28 27 27 27 27
88 88 85 63 65 61 61 76 80 54 57 29 27 19 24 25 28 28 32 31 37 36 31 28 32 36 38 34 36 40 43 44 42 44 43 40 32 31 31 28 26 28 29 29 31
87 88 79 63 74 73 82 75 65 71 56 37 28 29 29 33 36 34 38 35 34 40 41 39 33 32 34 34 39 41 43 41 47 47 52 46 41 37 33 33 31 29 30 35 36
88 87 77 72 56 82 80 63 63 68 41 37 33 31 34 39 40 42 47 52 49 39 60 43 41 40 39 39 39 43 43 50 61 66 57 47 45 38 36 34 32 34 36 45 49
88 83 85 84 88 82 67 65 60 52 44 37 34 39 39 39 43 48 47 51 52 50 60 55 46 44 44 42 44 50 50 65 58 66 61 52 48 43 41 38 36 44 45 44 45
87 77 77 83 90 73 61 81 62 49 36 37 38 42 45 44 44 47 54 52 53 54 55 65 50 45 47 46 42 47 60 52 72 90 80 54 48 42 39 40 43 43 44 45 44
78 70 72 84 80 66 82 64 48 43 41 40 46 49 50 52 49 51 51 48 48 55 50 60 61 49 45 42 44 45 46 56 68 77 70 51 57 41 48 45 48 48 52 50 46
72 63 65 86 66 62 75 61 47 48 48 46 51 56 53 55 52 55 53 49 47 49 51 51 57 48 47 53 55 53 56 61 59 71 81 90 55 49 48 47 47 50 54 53 51
69 67 71 73 59 76 60 45 55 50 48 50 53 54 56 61 62 58 59 52 53 52 56 58 66 63 48 49 52 52 54 54 65 62 76 84 64 42 46 46 48 50 55 54 52
71 70 69 64 79 90 61 55 52 51 55 51 56 58 57 63 66 61 60 64 63 56 58 56 68 61 39 46 46 56 58 63 70 77 77 92 58 43 49 49 47 52 54 54 56
67 87 79 78 72 62 60 61 58 53 56 60 56 56 60 64 68 67 64 62 65 62 79 65 66 58 53 42 51 66 67 64 68 88 69 70 55 46 43 46 48 53 58 54 57
78 81 77 84 80 67 63 57 58 56 54 56 58 56 60 71 71 75 64 60 60 70 68 66 78 71 66 62 66 65 66 67 72 69 82 62 59 51 48 53 51 57 57 58 58
78 78 82 83 69 62 73 65 61 59 56 61 64 65 60 64 59 68 66 65 63 61 69 72 78 87 86 78 77 87 69 72 71 71 74 69 71 50 51 57 64 58 59 61 73
93 81 74 89 72 75 73 60 58 60 62 57 61 62 66 62 60 60 64 70 61 64 74 80 89 94 80 85 84 79 59 67 64 63 59 65 48 54 58 65 57 57 65 82 74

GFSSW_sfc_rhum_012.txt.gz
RH
76 76 79 77 77 77 78 79 81 84 84 86 88 88 90 92 90 43 14 24 27 69 53 16 14 14 10 8 7 7 7 8 8 8 8 7 7 9 16 16 18 20 22 24 34
78 77 77 78 79 81 79 79 84 85 85 87 90 90 92 93 31 14 34 66 77 78 17 14 12 10 8 9 9 6 7 8 7 7 7 7 7 8 11 13 17 21 29 31 41
82 78 78 80 83 78 79 81 87 84 86 90 89 91 93 75 16 13 64 75 76 60 15 13 10 10 10 9 10 8 8 8 8 8 7 7 8 8 8 10 10 11 23 34 41
83 81 82 80 79 80 81 85 86 85 88 89 89 90 92 38 18 12 61 64 73 21 13 12 12 10 9 9 9 10 10 8 8 9 8 8 8 9 8 8 11 12 17 28 35
89 89 83 80 81 81 82 85 86 88 89 89 90 89 56 18 16 11 52 36 15 11 11 11 10 11 9 9 9 10 11 11 10 10 9 11 10 12 10 8 9 16 22 24 26
90 91 92 83 82 83 84 86 88 90 93 92 90 92 27 18 12 12 12 10 11 11 11 10 11 11 13 14 12 15 13 14 13 12 14 14 13 12 10 10 10 16 20 21 23
89 90 92 92 86 86 86 88 91 95 93 90 88 51 17 17 12 11 11 11 11 12 13 13 12 12 13 17 16 15 15 14 15 14 14 13 13 11 10 10 10 12 14 19 22
87 89 90 92 94 94 93 94 94 92 91 88 86 44 18 13 12 11 9 10 12 13 14 14 12 14 15 16 13 13 14 14 16 14 16 14 13 12 14 13 11 14 13 20 22
84 86 88 89 90 91 91 91 90 89 87 83 48 24 16 20 13 12 11 11 13 14 15 13 13 15 14 14 12 13 11 15 16 17 17 16 15 14 13 15 15 12 14 16 20
84 83 83 85 87 89 90 88 86 80 55 40 21 18 13 14 13 13 11 14 14 15 14 14 13 12 11 9 12 14 13 14 15 15 15 16 16 14 15 16 17 16 14 15 21
84 79 78 81 88 91 77 43 26 25 17 18 18 16 14 12 12 13 13 13 12 14 15 17 13 18 20 19 17 16 16 17 15 19 23 23 18 16 16 16 17 16 16 19 22
87 85 83 84 89 91 56 27 35 28 20 18 16 15 15 14 15 15 13 14 15 15 17 14 21 19 19 19 18 19 18 18 20 22 25 21 18 16 18 20 19 18 18 19 19
86 87 85 88 92 72 42 45 47 37 18 19 18 16 15 15 22 20 16 16 15 17 17 17 19 20 21 22 23 24 22 28 27 23 23 23 21 18 19 19 19 19 18 17 18
86 89 86 88 58 40 38 43 51 42 23 21 17 16 15 15 21 19 20 18 19 20 18 20 22 24 23 27 27 25 26 30 30 27 20 25 20 23 19 20 19 20 21 21 21
87 84 87 78 44 29 44 49 56 43 40 21 18 14 18 19 20 21 22 18 22 24 23 25 25 26 27 29 29 31 34 32 33 29 28 26 21 26 20 20 20 21 23 24 26
87 83 80 49 49 51 54 53 51 47 41 26 20 22 22 23 24 20 22 20 24 23 22 26 24 26 28 28 29 31 33 34 33 32 40 33 28 28 24 28 24 23 26 29 30
91 86 61 46 41 60 59 43 36 45 30 25 24 23 26 30 29 27 31 36 29 30 34 26 29 28 30 27 30 26 30 38 51 50 44 33 30 36 30 27 28 29 30 33 34
88 80 81 57 55 64 47 42 41 36 30 24 24 24 29 30 32 32 30 31 32 30 29 31 38 34 33 36 36 35 36 51 50 50 39 34 31 32 30 29 30 30 32 32 32
85 54 53 65 67 56 36 58 45 30 24 25 24 26 32 31 30 32 37 35 38 37 36 39 36 32 34 32 34 36 43 39 56 80 65 30 33 32 30 30 29 32 33 34 33
39 42 50 66 64 46 49 49 33 29 29 25 29 31 33 34 34 34 38 38 39 38 36 44 43 36 33 33 33 34 35 44 45 76 45 23 27 23 36 34 33 33 33 34 32
47 34 55 63 54 33 52 42 34 34 33 31 34 37 37 39 34 40 40 39 37 38 34 35 40 37 37 39 38 38 41 42 38 50 55 52 27 31 32 34 34 35 34 36 37
53 44 56 60 39 41 38 33 49 35 34 36 37 38 38 43 44 43 45 40 41 39 40 45 47 42 33 40 39 37 40 38 51 45 54 67 42 29 30 32 36 34 37 37 38
41 43 50 54 66 75 43 40 38 36 38 36 42 40 40 46 52 45 46 49 46 40 44 42 48 38 36 42 39 42 40 43 50 60 61 84 42 27 30 32 29 34 36 37 36
41 73 48 40 43 38 41 43 43 39 43 40 42 38 42 46 45 52 50 49 49 46 76 58 47 43 32 30 34 39 35 37 45 71 52 49 39 30 26 28 29 33 40 37 38
47 59 56 67 54 41 39 39 41 43 40 38 40 39 43 58 50 53 48 47 47 63 54 49 50 49 40 38 37 41 40 36 40 46 62 49 38 33 31 33 36 40 41 41 43
51 53 50 52 49 42 57 41 38 43 38 41 41 42 36 43 35 48 38 39 36 49 48 51 58 66 59 46 40 49 39 35 40 43 44 42 44 33 33 38 44 45 47 52 56
61 54 44 71 53 54 51 41 40 43 48 38 39 42 57 40 37 46 47 49 46 46 56 62 71 76 84 60 62 85 51 38 38 41 43 53 39 39 44 49 51 50 53 63 68

GFSSW_sfc_rhum_015.txt.gz
RH
84 82 81 78 78 77 76 78 79 82 83 84 84 87 89 92 91 39 16 24 28 63 48 13 12 10 8 6 6 5 6 7 7 7 7 6 6 6 8 11 12 12 16 20 27
81 81 76 79 84 82 78 78 80 85 84 85 85 89 92 93 35 11 34 72 77 73 15 12 10 8 6 6 6 6 6 7 5 6 6 5 5 6 9 10 11 15 16 23 28
83 82 78 80 85 78 78 79 83 84 85 85 88 89 93 78 29 10 70 69 76 58 13 9 7 7 7 6 6 5 7 6 6 5 4 4 5 5 6 9 10 12 15 24 28
87 85 83 81 79 79 79 81 86 84 85 86 88 89 91 45 17 10 57 65 71 22 10 8 8 7 7 7 6 7 6 5 5 5 5 5 5 7 6 6 7 8 14 21 25
91 89 85 80 80 80 81 83 86 85 86 87 89 90 57 23 12 9 40 45 18 9 8 8 8 6 6 6 5 6 6 5 5 6 6 7 8 9 7 6 7 10 15 20 22
91 90 90 89 82 82 84 87 89 87 89 90 89 91 38 17 9 8 8 8 8 8 7 6 7 7 6 6 8 8 9 9 9 9 9 10 9 10 8 6 7 10 13 15 17
90 90 91 90 84 85 87 87 88 89 92 90 87 47 25 14 8 8 8 8 8 9 8 9 7 7 8 12 10 10 12 11 11 11 11 10 10 10 8 8 8 8 11 13 14
86 89 90 92 93 89 88 89 91 93 90 88 86 36 18 10 8 8 7 8 8 10 10 10 9 11 11 11 10 11 11 13 12 11 12 11 13 9 9 9 9 9 9 12 14
84 87 89 90 91 92 92 92 91 89 87 83 50 36 14 21 10 8 8 8 10 11 11 10 10 10 13 12 12 12 12 12 14 12 12 11 12 10 11 11 11 10 10 10 13
79 82 85 86 88 88 89 88 87 81 61 29 19 18 11 11 10 9 9 10 12 13 12 12 11 12 9 10 13 11 9 9 10 12 10 10 11 11 11 12 13 10 10 11 12
75 79 81 84 86 88 75 34 25 29 18 16 12 13 10 9 9 10 10 11 11 13 14 12 12 14 15 14 11 10 11 11 10 13 15 13 12 12 13 12 15 14 13 13 14
78 80 80 83 87 90 60 25 28 20 18 13 13 13 12 11 11 11 10 13 14 13 12 11 16 15 14 14 14 14 14 14 14 15 16 14 13 13 14 16 14 15 16 18 20
83 80 85 87 91 74 32 32 28 25 16 16 14 13 13 12 16 15 12 11 11 11 10 16 16 15 16 15 17 17 18 22 21 16 15 16 15 15 15 15 15 14 15 15 18
85 81 89 91 65 32 31 31 34 36 20 16 14 14 12 13 18 14 15 14 13 12 12 16 18 18 17 20 20 21 20 23 22 21 18 15 18 18 16 17 17 18 19 19 18
85 83 89 87 33 24 32 35 41 42 38 17 15 13 12 16 16 17 15 14 14 16 18 20 19 20 22 23 22 24 25 24 23 22 20 17 15 22 15 18 19 20 21 22 23
86 84 86 52 39 36 35 40 45 43 39 21 15 18 18 18 18 16 16 15 16 15 16 19 18 21 23 22 22 23 26 24 25 23 33 22 20 22 19 21 20 20 23 25 24
89 83 71 34 32 44 47 40 28 45 20 21 20 18 19 21 23 20 22 25 22 27 27 21 23 22 23 24 24 21 24 38 45 42 41 24 20 30 24 22 21 24 25 28 29
84 81 69 43 38 52 43 32 46 25 19 16 18 18 23 21 25 23 22 24 24 21 20 24 37 25 24 28 29 26 28 49 45 43 32 23 21 26 23 23 24 24 26 26 28
86 47 43 56 55 50 31 51 36 21 18 20 18 22 25 23 23 25 28 28 28 28 29 29 31 25 27 25 25 29 34 29 46 58 56 21 22 25 24 26 24 26 26 27 26
30 31 36 56 56 48 43 45 27 22 18 17 23 24 26 24 25 26 28 30 30 27 26 30 37 26 26 26 27 28 26 41 39 64 40 19 17 25 31 28 27 26 26 26 26
36 29 52 52 50 32 46 34 26 24 23 24 24 26 25 29 25 29 30 31 28 28 24 24 28 31 26 29 28 29 32 33 27 39 49 41 26 22 23 25 27 27 25 27 29
42 35 48 49 32 34 36 27 43 26 27 28 26 26 28 30 33 33 33 34 32 30 32 33 34 40 23 28 30 29 31 29 48 39 42 52 42 22 24 24 25 26 25 30 30
29 37 43 49 59 64 35 33 28 28 27 28 33 30 30 33 42 35 38 40 37 34 38 33 40 37 28 35 31 31 29 28 35 50 49 73 43 21 23 24 22 23 26 30 34
31 60 38 36 31 31 34 32 36 31 33 30 32 30 33 36 33 41 42 42 42 38 71 50 33 35 38 27 22 29 24 22 30 55 50 43 32 24 23 26 25 27 28 35 38
33 44 41 53 42 33 30 30 32 35 30 28 32 30 35 44 38 41 37 42 39 63 42 38 43 37 31 25 23 25 27 26 26 28 46 41 33 29 28 30 31 32 34 36 37
34 40 37 41 35 34 48 32 29 32 30 31 32 30 29 43 30 39 31 28 29 37 36 37 53 56 52 31 26 34 27 25 24 28 30 30 34 27 28 28 34 38 40 42 48
41 42 36 60 40 43 39 32 30 36 39 26 29 30 46 32 33 34 36 35 33 37 43 49 60 58 70 52 57 82 46 27 27 27 34 50 36 29 34 42 49 48 49 51 63

GFSSW_sfc_rhum_018.txt.gz
RH
85 85 86 84 82 76 77 77 78 82 83 84 86 86 87 92 91 52 24 24 27 60 49 14 12 12 11 8 6 6 9 11 10 10 8 6 6 6 8 12 11 15 18 26 27
83 82 81 84 77 78 78 78 80 84 84 85 86 86 90 93 53 24 36 66 70 70 15 14 13 11 10 7 6 6 10 7 5 6 6 5 6 6 9 10 13 18 25 28 27
84 83 83 84 83 78 78 79 80 84 85 86 87 88 92 84 38 15 62 60 71 62 16 11 7 8 9 6 6 6 9 6 5 6 5 5 5 6 8 10 12 16 27 30 30
84 88 87 85 85 78 79 80 81 84 85 86 86 89 90 60 23 11 62 60 73 26 16 10 8 9 7 7 5 7 6 5 5 5 4 5 5 6 7 9 9 12 17 27 28
86 91 88 84 83 80 80 81 84 86 86 86 86 88 65 36 14 10 37 55 22 18 11 8 8 7 7 6 5 6 5 5 5 6 6 6 7 8 7 8 8 12 16 24 25
93 92 90 88 86 82 82 85 89 89 86 88 89 92 53 27 8 8 8 8 9 7 6 6 7 6 5 5 7 7 6 7 7 7 7 8 9 10 7 7 8 12 17 20 23
92 92 91 90 91 83 84 89 90 88 89 90 88 58 34 18 7 7 7 8 8 9 9 8 7 7 7 10 8 8 11 10 10 9 10 9 11 10 8 8 8 11 13 16 18
89 91 91 91 92 86 86 87 88 91 92 90 87 48 30 10 9 8 7 7 7 8 9 8 8 10 11 10 9 10 11 14 11 11 11 11 14 9 9 9 10 9 10 13 16
88 89 90 90 92 93 92 93 93 92 89 84 62 44 21 20 9 8 7 8 8 9 10 8 10 10 10 12 13 13 14 14 14 10 11 12 14 10 9 11 11 11 11 11 14
84 86 88 89 90 91 92 90 88 85 70 38 29 28 13 10 9 8 7 9 10 12 11 11 11 12 12 13 19 16 11 9 11 12 10 11 11 11 11 11 13 11 12 13 13
76 82 85 87 88 89 83 48 32 32 27 17 13 13 9 7 7 8 8 10 11 13 16 12 14 17 16 14 11 10 10 10 11 13 14 12 11 11 12 12 15 15 17 15 26
75 78 82 84 86 87 71 32 24 19 21 12 11 11 10 9 10 10 9 13 14 16 12 11 16 15 12 11 12 12 13 13 13 13 14 12 13 13 14 16 15 15 16 23 25
78 80 80 86 89 76 38 31 23 28 18 14 12 11 12 11 12 12 12 11 12 14 10 20 16 12 13 13 16 14 16 23 20 16 14 15 16 16 15 15 15 17 19 21 24
83 78 86 91 72 34 32 25 30 37 21 15 14 12 11 12 16 11 12 14 12 11 10 17 15 14 14 17 19 20 21 22 20 21 22 15 21 18 18 18 18 20 23 23 22
83 76 91 93 60 28 30 29 35 45 47 16 13 11 10 15 14 15 11 12 14 14 14 19 17 18 20 23 20 22 23 22 22 23 22 17 20 21 18 21 22 24 24 27 28
83 82 89 58 59 33 33 39 45 58 50 18 14 16 15 15 16 14 13 14 13 13 15 18 16 20 22 20 19 20 24 23 24 26 49 20 21 34 22 21 22 23 25 26 28
83 88 70 42 44 40 48 43 34 49 16 19 17 16 17 19 18 17 19 20 22 26 27 20 21 21 20 24 22 22 26 52 68 60 60 26 20 34 24 21 21 25 28 31 33
82 85 67 40 39 52 49 38 50 21 18 13 16 18 21 20 21 19 20 23 21 25 21 25 39 24 21 26 27 25 27 67 59 66 48 20 22 31 24 24 24 25 27 29 31
87 62 54 58 56 54 41 54 37 19 16 17 17 21 24 21 21 22 26 26 27 28 32 27 32 23 23 22 22 30 37 24 48 68 69 26 29 27 25 26 25 26 25 28 28
42 44 36 53 56 55 53 54 27 19 14 15 21 20 24 21 23 23 25 26 26 24 21 26 38 23 22 22 25 25 22 44 55 72 52 25 23 38 32 30 28 25 27 26 26
61 34 57 50 55 38 53 41 24 18 20 18 19 21 21 23 21 25 27 27 25 25 22 24 27 32 23 27 26 28 31 30 27 45 62 57 32 22 24 26 28 28 25 30 33
55 40 53 55 36 34 40 26 42 24 25 25 22 21 24 25 27 28 32 35 28 27 31 28 32 60 24 24 23 24 28 28 70 50 66 66 44 21 24 24 28 30 29 32 34
36 46 49 52 58 69 33 27 23 24 22 24 28 26 25 29 39 31 41 37 35 36 44 34 44 57 35 35 28 25 24 25 34 64 62 76 51 21 25 37 32 31 30 37 38
40 61 41 41 37 36 37 34 35 27 28 25 27 27 30 34 30 37 44 41 39 38 68 54 30 35 52 28 23 26 22 20 26 70 62 56 38 27 26 31 32 32 35 36 38
40 47 33 52 44 34 30 27 32 36 27 26 29 27 31 44 35 38 38 42 38 57 39 38 46 37 33 25 23 24 24 23 26 30 48 40 29 27 33 31 36 38 38 39 40
46 40 38 36 36 33 46 31 28 25 30 28 30 28 30 42 33 38 32 31 32 34 34 36 66 67 60 27 28 34 30 29 26 26 25 30 33 25 36 42 47 48 46 44 48
40 39 38 56 38 45 42 30 27 32 36 24 26 31 51 37 36 34 34 33 30 37 41 50 75 74 79 57 62 88 55 30 29 28 32 51 38 40 44 44 45 48 47 54 54

GFSSW_sfc_rhum_021.txt.gz
RH
88 88 87 88 89 86 82 77 82 85 84 84 86 87 87 92 92 75 42 34 35 66 49 20 21 21 20 19 16 13 16 15 13 14 14 12 9 10 14 16 28 29 36 38 34
83 84 83 85 88 83 77 79 80 84 87 88 89 88 92 94 75 44 38 56 70 68 21 20 20 18 20 16 15 12 16 12 9 10 9 9 10 10 14 17 39 41 36 33 33
80 81 86 87 88 87 79 80 80 83 87 89 90 89 92 92 64 28 59 68 79 66 23 18 17 16 17 16 11 12 11 9 8 8 7 8 9 11 15 18 32 45 41 38 38
80 81 82 88 88 89 81 80 81 82 88 89 87 86 90 84 41 18 61 71 78 44 27 23 20 15 18 15 10 10 7 7 8 8 7 7 7 10 13 14 19 37 37 39 40
83 83 86 88 87 88 80 80 82 84 89 87 87 86 85 65 37 12 69 68 43 29 26 25 20 14 15 12 9 8 8 7 7 8 10 8 10 10 12 12 17 34 34 37 37
91 93 93 91 89 88 81 82 84 91 90 87 88 90 83 41 14 10 12 32 20 24 21 19 13 10 12 13 11 10 8 8 8 10 11 11 14 15 12 10 19 28 36 35 34
93 93 92 91 91 91 82 84 91 91 89 88 89 75 57 42 14 12 10 12 12 13 14 12 13 13 13 14 16 12 13 12 13 12 14 15 19 14 11 10 14 22 29 31 30
92 92 92 91 92 93 84 87 89 91 90 92 90 74 48 18 13 9 10 10 10 11 14 14 14 15 21 14 13 15 19 22 16 14 14 15 21 14 12 11 15 15 17 26 30
89 90 90 90 91 92 91 92 93 92 92 89 83 74 40 22 14 11 11 11 13 13 17 10 16 22 15 20 23 24 24 23 18 15 17 18 20 15 14 13 14 16 16 19 26
86 87 88 90 90 92 93 93 91 92 82 56 46 50 33 16 14 11 12 12 18 20 21 22 21 22 22 24 30 26 20 27 23 19 16 18 19 19 17 16 18 19 18 25 36
83 84 86 88 90 91 96 87 59 56 59 38 30 31 14 10 11 11 11 14 17 22 27 21 26 30 25 21 16 16 18 23 23 17 20 21 16 22 22 21 22 28 38 39 43
81 81 83 86 87 88 95 70 40 35 40 28 21 18 14 12 14 13 13 23 27 27 23 25 31 20 18 18 20 17 22 30 22 19 21 23 22 25 22 24 24 34 37 41 43
82 81 82 87 89 93 74 56 40 48 35 22 18 15 19 16 19 16 18 20 20 22 25 29 23 18 17 25 24 28 32 31 30 23 25 26 28 26 23 24 26 30 33 35 42
82 82 86 91 77 71 61 39 49 64 39 24 20 18 16 18 23 15 15 21 20 25 25 26 20 19 21 26 25 36 31 30 28 32 39 26 38 34 27 29 29 31 37 38 40
82 85 91 85 78 65 46 45 56 64 69 20 20 14 15 23 20 21 16 21 24 21 24 30 26 30 31 28 25 35 34 33 34 38 42 34 37 35 28 34 34 38 38 42 44
81 83 89 73 86 66 61 65 62 85 61 29 19 22 19 22 22 17 21 22 21 20 24 26 24 28 29 25 27 25 35 36 39 41 68 49 42 48 35 32 36 37 37 39 43
86 91 79 58 77 66 76 69 73 85 26 24 25 21 24 27 24 22 24 31 37 38 40 28 30 30 27 34 33 34 45 78 77 87 79 48 43 59 39 31 33 40 47 48 47
86 88 78 69 79 79 80 68 77 32 27 19 22 25 28 27 27 27 29 37 33 40 42 45 52 32 28 33 38 40 42 80 76 87 72 42 49 49 36 35 35 37 42 41 42
85 87 85 86 76 79 75 89 65 34 20 23 23 31 31 28 32 32 38 38 34 34 47 51 43 30 28 28 31 39 48 36 67 79 85 52 44 36 36 32 32 35 38 44 42
80 82 72 77 77 82 84 80 44 24 22 22 30 29 35 29 34 36 38 36 36 33 34 36 48 31 29 30 32 34 30 60 70 72 68 47 54 64 46 46 42 36 36 36 42
87 64 77 77 78 72 87 72 33 22 32 35 34 32 32 32 30 35 40 36 35 35 32 41 49 44 33 36 39 42 47 44 43 68 80 84 56 36 47 52 49 40 42 48 52
87 68 80 82 64 75 69 46 45 31 34 36 38 30 37 34 42 42 52 45 38 43 43 42 52 66 43 34 31 35 42 44 79 63 84 86 64 36 50 42 43 41 47 51 50
77 80 77 84 79 90 52 38 35 32 33 37 38 38 35 46 50 55 57 51 50 52 62 52 53 77 58 50 39 36 33 34 64 78 66 80 63 32 35 47 44 46 50 48 50
86 83 82 82 71 65 49 46 45 36 39 34 36 38 43 46 43 60 60 56 54 49 68 61 43 57 73 46 36 42 32 30 53 89 80 76 56 40 53 56 51 55 53 53 53
80 73 62 76 63 62 52 45 46 49 41 38 43 41 44 57 52 62 59 57 56 61 56 53 63 58 49 39 35 36 37 36 38 43 61 54 49 57 60 61 60 56 54 55 58
80 76 63 61 45 56 64 44 45 39 40 42 44 39 44 55 57 60 53 53 55 47 53 56 83 75 70 50 48 51 46 46 39 41 44 44 53 54 56 55 55 58 59 63 62
74 67 75 83 58 72 61 49 45 47 49 42 43 58 66 56 55 56 53 51 51 52 61 74 81 87 88 74 81 81 64 42 41 42 45 62 57 58 62 59 66 72 66 65 66

GFSSW_sfc_rhum_024.txt.gz
RH
89 88 89 90 91 92 90 86 82 84 84 84 86 88 88 92 93 84 43 33 48 66 51 23 24 24 24 25 18 14 20 21 16 18 15 11 15 14 26 34 39 38 38 32 36
80 80 80 84 90 91 91 85 79 80 85 86 89 89 91 93 86 58 48 62 69 71 21 21 20 23 24 22 19 17 20 16 11 12 11 9 10 12 33 48 52 49 40 36 35
80 80 80 81 89 90 91 84 80 80 82 89 90 89 88 89 69 36 57 58 73 65 25 21 21 22 24 21 18 14 12 10 9 10 9 10 11 13 37 52 47 46 42 37 36
80 81 81 81 84 91 92 88 80 81 82 88 88 87 88 92 42 20 59 69 79 44 29 27 27 31 23 20 15 10 10 8 12 10 9 10 10 11 18 34 40 36 36 40 41
83 83 82 83 86 92 92 86 81 82 83 88 87 85 89 70 41 21 65 75 58 36 29 25 28 20 17 15 10 10 10 8 11 11 11 10 11 13 17 38 39 36 36 38 38
84 87 92 92 92 92 91 83 83 84 90 88 86 86 85 53 21 16 27 43 27 28 26 28 22 16 17 14 10 10 9 9 9 13 12 13 16 13 17 40 42 38 40 40 39
95 95 95 94 92 92 91 84 84 90 91 88 86 82 75 47 26 23 17 17 21 24 18 17 18 19 21 16 12 11 11 12 14 14 15 14 19 17 13 40 43 41 40 40 38
93 94 94 93 92 92 92 84 87 91 90 91 92 87 54 24 23 12 14 12 12 14 18 19 17 21 17 17 14 16 19 21 17 16 17 15 20 17 13 27 43 42 41 40 40
91 92 92 92 92 92 93 91 92 91 91 90 91 86 32 28 14 10 13 14 14 15 15 10 17 22 17 22 23 24 24 26 23 16 17 19 20 18 14 17 24 33 38 42 44
89 88 90 90 91 92 92 93 92 93 90 67 55 57 35 26 14 12 13 14 19 19 18 17 25 26 25 26 27 25 26 45 23 22 23 23 19 20 18 16 20 27 48 53 56
86 85 87 89 90 90 95 86 56 58 64 29 33 37 24 18 12 13 14 14 19 24 29 26 26 29 22 22 19 18 26 26 28 22 20 22 26 27 27 28 45 51 54 53 53
84 84 85 88 89 90 91 68 40 42 31 31 34 31 24 12 18 15 15 23 29 29 28 28 31 22 19 23 28 26 29 30 25 22 21 26 27 28 31 44 48 51 53 54 55
83 81 84 89 91 89 74 62 50 51 52 23 25 22 18 18 21 17 19 26 25 28 29 32 23 20 26 29 29 39 36 38 33 30 29 26 31 38 39 40 42 46 49 51 54
83 84 89 93 74 72 56 37 47 52 43 27 23 19 18 20 25 18 19 24 26 31 27 27 21 25 31 30 33 47 35 33 33 37 34 29 44 34 41 42 42 44 54 57 52
84 87 90 86 72 71 50 65 65 56 58 22 24 16 18 24 23 22 19 25 29 26 27 34 34 34 34 34 31 37 36 38 39 42 47 41 43 39 40 48 48 51 52 55 59
83 91 92 79 86 67 73 79 51 80 56 31 23 23 23 26 25 21 23 23 26 26 27 29 30 31 34 31 31 31 40 47 46 50 67 51 48 48 47 44 45 45 50 53 58
87 92 86 66 77 79 84 55 70 80 30 27 28 25 26 30 28 25 31 38 45 39 42 34 37 32 31 38 34 33 54 75 76 83 75 54 60 61 47 40 41 52 55 54 54
91 94 84 69 87 82 71 56 76 43 33 25 27 30 30 30 31 33 36 44 37 45 43 50 55 37 30 38 41 44 49 78 73 77 68 43 61 56 48 43 46 46 48 45 48
92 89 92 87 81 82 68 85 69 43 26 26 29 36 38 32 30 36 44 42 40 40 48 53 47 36 33 33 38 44 48 42 67 81 82 62 53 42 41 43 42 42 40 49 53
83 82 70 81 83 73 84 82 56 32 33 27 34 35 39 32 37 42 47 42 41 38 41 44 51 38 32 33 34 32 35 58 71 66 67 54 62 66 55 51 45 44 51 56 54
87 57 62 85 68 71 85 79 45 33 36 36 39 34 36 36 35 46 49 45 43 41 36 48 49 46 42 40 44 43 50 50 50 72 77 84 59 43 52 56 52 56 57 58 59
87 66 77 62 48 86 73 54 43 35 34 36 41 43 37 41 53 59 57 53 52 56 43 49 56 68 50 36 34 38 47 51 75 55 86 85 62 46 50 50 49 54 54 55 53
78 87 83 60 66 86 60 42 39 39 39 39 44 44 44 49 65 63 62 61 52 53 61 49 55 76 61 53 44 41 41 54 64 78 65 77 63 43 52 57 54 59 57 60 64
88 85 80 87 76 58 64 50 49 44 42 40 41 40 46 51 58 65 66 58 53 49 72 62 55 58 71 57 45 41 38 50 60 85 76 73 55 52 62 64 65 63 63 69 69
89 77 60 68 62 70 59 48 51 51 44 41 41 44 48 61 64 71 66 63 54 60 54 56 65 63 53 47 44 43 44 45 43 52 65 55 59 68 71 71 67 63 67 67 66
82 77 73 61 49 56 70 54 49 47 45 48 49 50 51 62 57 68 60 63 59 54 59 67 79 71 58 62 61 52 47 53 52 46 47 60 75 65 66 64 68 69 68 65 63
73 76 65 85 57 64 66 50 51 49 50 49 55 65 69 62 65 65 62 59 56 55 74 76 80 77 69 80 73 75 59 50 47 50 50 61 63 68 70 71 80 77 70 69 72

GFSSW_sfc_rhum_027.txt.gz
RH
85 81 81 83 90 92 93 93 89 79 79 81 85 83 88 90 91 88 58 34 48 68 51 27 29 29 32 32 25 21 23 22 18 34 34 26 19 23 36 44 44 45 44 51 56
81 80 78 80 81 86 92 92 89 77 79 80 81 88 91 87 93 70 52 65 74 72 22 23 24 27 31 32 24 21 26 19 14 15 21 16 31 35 46 55 55 50 43 47 56
82 78 80 80 81 81 92 92 82 78 79 80 82 90 87 86 74 32 57 63 76 58 22 22 24 24 28 24 19 17 16 12 11 12 10 12 25 28 50 60 50 45 48 49 56
80 81 81 80 81 81 88 93 86 78 79 80 86 88 86 97 35 27 66 81 77 31 24 27 28 28 32 24 19 12 11 9 11 10 10 12 12 32 32 45 43 37 41 46 49
82 82 82 82 82 84 89 93 88 79 80 81 88 84 92 72 40 22 79 78 45 30 26 27 28 25 21 18 14 10 10 12 12 10 10 10 14 14 18 48 41 37 38 41 41
83 83 84 87 88 92 94 92 81 81 82 88 86 83 88 40 22 24 41 37 34 34 31 27 25 25 22 16 11 10 11 11 12 12 14 14 16 18 34 51 43 38 38 38 38
90 92 95 95 94 94 92 91 81 83 87 89 84 83 77 32 29 31 27 30 27 26 24 28 27 22 17 16 13 11 12 13 14 16 15 16 19 20 32 47 44 40 39 40 38
95 95 96 95 94 93 92 92 84 85 91 90 91 92 50 26 33 24 18 13 17 24 20 16 18 18 19 17 19 19 20 21 18 16 18 16 18 20 45 50 49 47 46 49 49
93 93 94 94 93 92 93 90 89 91 90 92 95 91 29 26 19 14 13 14 17 17 20 12 19 23 20 22 24 26 26 29 24 18 19 18 19 21 36 49 52 56 50 56 66
92 91 91 92 92 92 93 93 93 94 90 74 66 58 32 22 18 14 15 16 18 23 20 21 26 26 26 23 24 25 30 48 24 22 21 25 19 22 20 35 39 69 70 68 65
90 88 89 91 91 92 97 96 65 65 70 33 33 34 33 19 13 14 15 18 20 22 28 29 28 31 27 29 24 24 31 30 30 24 22 26 29 39 38 54 70 70 66 65 65
87 86 87 90 91 92 93 60 39 49 40 43 42 38 31 26 18 15 17 20 26 30 30 28 34 29 25 34 28 29 30 33 31 27 24 30 40 53 55 64 66 64 63 63 66
84 84 88 91 92 93 69 59 54 50 55 32 26 25 24 21 22 19 21 27 27 29 31 32 28 26 27 33 35 42 39 40 34 31 29 33 40 53 52 56 55 60 62 58 59
84 86 90 93 76 69 51 42 56 51 45 28 24 20 19 22 25 20 21 23 28 28 29 28 32 30 33 31 39 47 39 35 34 34 35 32 54 51 50 54 57 62 70 66 61
86 89 92 86 72 78 49 71 68 51 62 23 24 16 21 24 22 20 20 25 30 28 29 38 38 36 34 36 34 38 40 39 40 46 50 50 52 54 51 61 61 64 66 66 64
86 91 93 87 88 67 75 74 49 74 50 30 26 24 24 28 27 23 23 28 29 31 31 35 35 33 37 35 35 34 43 50 58 54 68 58 50 56 56 56 58 59 60 58 61
89 92 86 69 79 81 84 50 63 84 34 32 32 26 29 34 30 28 40 42 41 40 47 39 39 36 36 42 39 40 54 75 78 82 77 52 60 59 49 48 52 60 61 62 65
90 94 87 69 91 84 61 47 73 51 35 30 30 31 33 33 37 38 43 45 39 43 48 53 54 40 33 40 42 48 50 78 66 76 69 51 68 60 58 50 50 52 55 58 59
92 91 93 90 88 76 58 73 68 56 29 31 33 38 42 35 38 40 48 45 43 44 49 54 49 38 35 36 40 49 52 47 74 84 84 69 60 47 55 54 52 52 51 56 62
86 85 74 85 82 73 77 80 64 42 34 30 39 38 41 36 41 47 51 46 42 41 44 47 54 41 34 38 38 35 40 61 72 65 67 60 69 70 57 58 53 58 64 66 67
80 48 55 89 60 63 72 77 63 34 39 33 37 42 38 39 43 52 53 50 52 47 40 50 47 45 46 43 48 45 50 55 57 75 76 82 63 46 56 58 58 67 66 66 66
81 61 77 57 50 88 76 63 52 38 36 40 44 43 43 49 61 59 58 56 57 57 43 54 58 71 52 40 42 44 51 50 67 54 87 83 62 46 59 57 59 60 62 68 69
78 95 86 50 61 88 59 52 44 40 40 43 47 49 50 61 64 68 66 63 53 56 54 49 58 74 58 51 43 48 47 63 66 76 68 78 61 53 59 61 64 67 68 71 70
85 88 82 89 71 52 60 54 52 45 44 44 44 47 50 61 66 70 69 64 55 50 71 58 62 57 64 55 52 44 42 59 59 82 73 71 55 59 70 69 68 68 72 75 73
90 76 67 77 77 78 60 54 52 52 46 43 45 48 52 65 71 76 71 66 52 62 59 55 62 65 58 57 48 44 43 50 52 56 61 56 62 54 72 74 72 70 74 73 70
90 82 78 62 55 62 76 60 50 51 48 51 48 60 57 57 56 70 64 63 51 56 69 71 77 64 64 68 65 55 45 47 49 51 58 57 70 70 72 71 73 74 74 71 62
86 88 68 87 68 68 73 58 52 52 62 59 56 64 67 67 68 69 68 65 58 59 79 74 79 66 56 80 60 57 49 53 50 50 51 75 65 76 73 71 81 82 75 72 70

GFSSW_sfc_rhum_030.txt.gz
RH
81 80 82 80 81 82 86 92 94 92 80 79 79 80 83 84 89 95 68 38 53 68 50 28 28 32 35 35 27 22 23 25 22 43 42 30 32 31 43 43 46 47 71 75 83
80 79 80 78 80 81 81 88 94 92 77 78 80 82 83 84 95 81 58 69 71 68 22 25 30 33 33 32 27 26 28 22 17 31 32 31 31 33 48 54 51 57 66 76 85
80 80 80 81 81 80 81 80 89 80 77 78 79 82 83 82 82 33 60 69 75 54 24 23 25 28 35 30 26 24 22 15 10 15 24 26 38 42 52 58 51 60 71 77 84
90 84 81 80 81 81 82 81 93 80 78 78 80 83 84 90 35 28 80 77 76 32 24 26 28 33 36 30 24 21 14 11 12 13 18 28 25 49 46 44 44 54 60 67 72
95 94 82 82 82 82 82 85 94 81 78 79 81 82 93 81 44 52 82 78 42 27 25 27 30 28 27 22 18 16 11 13 11 10 14 12 21 42 29 56 42 49 53 58 56
95 91 83 84 84 84 85 89 92 80 80 80 81 82 94 48 23 45 53 43 35 29 28 26 28 26 26 18 13 12 12 13 14 12 14 14 18 20 44 51 45 48 52 54 52
95 92 90 92 86 88 94 94 90 81 81 82 81 82 88 41 27 35 36 32 35 29 30 29 27 25 26 21 14 15 12 13 13 16 18 16 19 25 55 49 47 46 47 49 50
94 96 96 96 96 95 94 93 84 83 82 90 85 92 65 28 36 30 28 20 27 28 27 23 28 26 22 19 20 18 21 17 16 18 21 15 18 22 60 50 54 51 49 54 65
94 95 94 95 95 94 93 93 86 84 89 92 98 94 41 27 24 18 17 16 18 26 27 15 20 23 21 23 24 26 25 29 24 20 20 18 21 21 66 56 62 62 62 66 73
93 93 92 93 94 94 94 93 92 92 90 82 77 67 33 21 24 15 15 17 22 26 22 23 28 25 26 20 25 23 27 49 28 34 23 22 34 47 38 63 61 73 77 74 74
92 92 90 92 93 93 96 96 69 71 85 42 37 34 34 27 19 16 16 20 24 24 30 29 29 29 25 25 22 24 28 28 32 27 26 54 66 66 57 65 78 80 80 80 78
91 90 90 92 92 94 96 70 42 45 57 50 45 42 36 31 27 17 18 24 27 30 33 30 33 28 34 33 31 30 32 36 34 30 31 56 58 68 69 77 80 79 80 78 73
90 87 90 92 93 97 90 60 55 48 61 39 42 32 22 26 26 19 22 27 28 28 32 32 32 30 33 37 36 44 38 42 36 34 33 40 48 65 59 68 68 71 71 68 70
89 89 92 94 85 75 57 40 64 52 45 31 28 23 21 24 28 21 23 24 28 31 29 35 36 32 33 34 41 43 42 38 37 35 43 38 46 63 65 71 73 72 74 72 70
89 90 93 82 78 70 44 76 72 45 57 27 26 17 23 23 22 22 26 26 28 33 32 42 40 36 35 39 36 42 40 41 44 48 52 54 55 63 65 76 74 76 73 74 76
90 92 93 89 94 74 77 69 48 72 55 33 25 24 28 29 28 26 31 30 29 37 38 41 38 37 39 39 36 38 47 52 60 57 69 66 52 59 69 65 68 68 72 71 77
90 92 90 72 79 87 78 48 58 78 37 35 32 28 31 36 32 36 41 44 38 45 51 42 42 39 39 43 42 46 55 76 79 81 77 58 59 54 52 56 60 66 71 70 72
93 93 90 77 88 85 54 44 56 49 42 33 32 33 34 37 42 42 45 46 42 44 53 54 53 42 35 43 46 51 52 78 64 83 74 57 70 58 61 50 55 60 64 68 73
94 97 92 92 82 73 51 65 55 58 34 34 33 38 45 39 40 44 51 47 46 49 47 55 51 42 38 39 42 52 56 51 76 85 85 74 64 58 61 64 61 61 62 68 68
93 90 83 90 84 70 64 57 61 56 38 33 37 42 46 42 46 50 53 52 46 46 48 49 55 44 38 40 40 41 45 60 72 64 64 64 71 73 69 67 62 64 65 65 72
72 63 62 87 57 58 60 59 67 48 42 34 40 46 43 42 49 56 53 55 57 52 46 51 48 48 47 47 50 49 53 59 62 74 73 81 72 56 61 61 63 65 67 73 75
68 63 84 55 54 87 73 69 61 40 41 45 43 42 44 53 60 59 56 57 62 61 44 57 58 69 54 45 50 48 50 49 64 51 88 83 63 54 61 59 61 67 70 75 77
91 97 90 49 70 89 61 58 49 42 46 46 49 50 55 64 65 69 68 63 55 57 50 48 60 74 53 44 45 50 56 62 64 75 71 79 57 59 65 66 68 74 78 77 75
86 96 86 84 73 53 50 59 53 50 48 45 50 51 58 68 69 73 71 65 56 53 71 58 62 58 60 50 54 49 56 60 55 79 70 72 52 60 71 67 73 76 80 79 76
86 81 78 87 86 58 54 53 54 52 48 45 49 51 56 70 74 78 73 68 52 65 65 52 60 65 67 65 54 45 45 61 54 55 56 53 61 49 62 72 75 77 80 78 74
91 77 75 72 78 66 73 59 51 53 53 53 50 66 58 61 55 71 66 63 47 63 72 69 74 59 76 72 67 58 49 50 54 54 61 62 57 54 80 77 79 78 80 77 72
95 88 67 87 79 74 78 64 54 56 67 61 55 61 66 68 71 76 72 71 60 63 78 71 77 69 67 78 59 57 53 51 54 58 53 63 55 82 82 79 83 85 81 78 74

GFSSW_sfc_rhum_033.txt.gz
RH
79 79 79 78 79 81 80 79 81 93 90 78 78 79 80 82 85 89 62 34 46 74 50 23 21 23 24 23 19 16 18 18 24 39 51 38 42 37 37 38 41 42 65 70 83
82 78 79 78 79 82 80 80 79 85 84 78 78 78 80 82 88 75 53 72 75 72 20 21 23 25 24 23 21 18 20 17 14 31 26 27 30 36 41 44 41 58 76 82 88
85 80 79 79 80 84 80 81 81 79 80 78 78 79 81 79 70 27 64 71 74 57 18 19 22 22 24 21 20 20 19 17 12 26 30 25 30 38 40 43 39 54 84 86 86
91 91 90 83 81 82 80 82 79 80 80 78 78 81 82 84 26 18 86 79 75 25 21 23 22 24 27 23 18 16 12 11 9 14 22 28 30 42 35 33 38 54 73 81 85
94 95 92 82 81 84 81 84 85 82 80 78 78 80 86 65 42 43 82 78 43 23 22 23 24 23 27 24 16 15 10 11 10 13 20 23 34 40 30 42 48 60 65 70 70
94 94 92 83 83 82 82 81 82 81 80 77 78 79 83 41 20 47 48 38 29 23 24 23 21 22 22 16 15 14 10 11 10 12 12 17 19 27 31 41 52 58 56 56 54
93 94 95 92 88 85 83 88 94 88 80 80 79 78 85 38 22 39 34 32 30 24 26 24 23 22 22 18 12 11 12 12 13 12 15 15 14 16 42 40 52 52 49 48 44
93 94 96 96 96 96 95 94 93 81 79 80 82 83 62 30 32 31 31 24 28 26 22 23 25 23 20 15 17 14 17 14 12 12 15 12 15 20 48 40 48 49 47 46 41
94 94 95 95 95 95 94 94 88 82 81 90 91 88 41 30 22 17 17 14 26 28 28 20 24 24 17 19 19 22 16 19 15 14 14 12 19 33 50 42 45 44 45 46 50
93 93 93 93 94 94 93 92 90 87 86 78 78 70 32 20 23 15 14 16 24 24 23 21 23 22 21 16 20 21 20 19 17 16 20 22 38 42 34 47 51 52 54 54 56
92 92 92 92 93 94 90 92 76 72 84 47 38 38 28 26 22 14 14 20 22 24 26 26 21 21 20 21 16 18 20 20 20 20 37 49 53 51 46 52 57 57 57 59 61
90 91 92 92 94 95 92 80 45 42 51 56 48 43 37 31 25 15 17 23 26 27 24 25 29 23 30 23 26 25 26 27 26 26 32 44 50 56 55 60 58 57 61 61 66
90 91 91 93 95 94 95 74 53 49 59 40 46 36 24 27 24 20 20 24 24 25 26 31 24 27 31 30 30 33 31 31 27 26 29 32 35 51 55 60 62 63 61 63 68
90 91 93 95 89 86 74 51 52 59 46 34 29 24 23 23 28 17 20 22 26 28 30 32 30 28 29 32 30 36 30 30 28 25 27 29 25 43 55 64 66 64 64 65 63
91 91 94 84 73 63 44 68 63 52 58 28 24 18 22 22 22 22 26 23 28 30 28 34 34 31 33 32 30 36 36 34 34 36 36 38 28 36 59 64 67 64 61 58 59
92 92 94 92 92 75 72 63 56 65 59 31 23 23 26 28 25 23 30 27 28 36 35 35 29 30 29 35 32 40 39 43 46 43 46 49 36 33 53 55 63 60 58 56 60
93 93 89 74 72 86 78 55 58 70 38 33 30 27 30 33 33 34 38 41 33 43 45 37 36 32 34 34 34 37 40 52 59 64 57 47 48 38 40 46 54 58 54 55 57
94 94 93 82 82 85 58 48 56 45 43 31 30 31 34 33 38 38 39 40 38 38 42 42 41 32 31 32 36 40 41 63 55 64 56 45 51 37 46 40 48 49 49 53 55
94 96 92 90 86 79 53 64 54 47 37 33 31 35 39 36 38 39 42 39 38 37 40 48 41 31 33 32 32 41 41 42 62 70 63 46 45 40 50 47 49 49 53 52 53
93 92 83 90 89 66 59 57 45 49 36 31 35 40 44 38 42 42 42 43 39 40 39 45 47 36 32 32 36 34 39 47 53 60 47 41 48 40 53 53 50 52 53 51 53
85 80 74 90 66 57 61 53 56 56 41 32 38 43 42 42 44 45 44 46 46 41 39 41 44 43 38 37 39 41 44 51 47 53 46 51 32 45 46 49 52 49 49 53 54
78 68 91 67 59 74 63 51 62 43 42 43 39 42 43 50 52 50 50 46 53 49 41 43 53 58 42 35 38 36 40 43 51 44 65 60 39 36 47 47 50 49 54 56 57
74 96 93 58 73 84 58 54 48 42 46 44 49 48 53 60 59 60 60 58 53 44 50 47 56 60 44 35 36 39 44 45 52 60 59 81 37 41 52 52 49 50 58 62 60
90 93 88 72 68 55 58 52 50 49 49 45 50 52 59 62 64 68 63 58 54 50 72 57 53 53 53 40 42 44 51 45 45 60 51 52 35 33 49 53 56 59 62 60 58
82 84 80 81 70 55 47 53 50 52 48 45 49 50 57 67 66 70 62 53 48 67 59 49 52 50 53 53 46 36 42 50 41 44 50 39 43 33 36 48 53 60 64 63 60
85 75 72 74 72 56 69 58 50 52 53 50 52 58 54 60 53 68 61 54 42 55 59 58 64 52 60 59 56 50 41 42 49 46 45 45 44 35 44 53 59 63 64 63 60
96 77 64 84 77 63 66 62 51 58 65 58 53 58 61 60 62 67 66 66 56 59 67 60 68 63 63 60 50 62 48 42 43 43 42 47 36 58 60 61 58 63 64 62 60

GFSSW_sfc_rhum_036.txt.gz
RH
79 79 77 84 78 79 80 78 81 86 86 80 78 78 78 80 82 54 37 24 32 77 61 14 13 13 12 12 13 11 11 16 26 33 34 26 28 27 26 33 35 39 46 52 77
84 80 79 79 80 85 82 77 81 86 84 81 78 78 80 81 58 42 32 68 71 75 12 12 10 13 11 12 13 12 13 12 12 19 21 24 21 27 29 29 35 43 53 66 82
85 85 81 80 84 85 82 86 86 84 85 82 78 78 85 76 52 13 67 70 75 57 10 12 12 13 12 12 13 11 13 10 10 15 17 20 22 22 25 28 29 35 61 80 82
90 89 89 88 82 85 82 85 86 81 81 82 77 78 80 68 21 13 80 83 75 24 14 15 14 15 12 12 10 14 10 10 8 17 18 19 20 28 25 24 26 26 50 67 73
93 92 92 90 82 82 81 87 82 84 86 78 77 77 66 49 24 30 74 72 28 16 16 16 15 13 12 12 13 13 10 9 9 14 18 18 22 24 26 27 30 41 54 53 49
92 92 93 92 84 82 82 87 85 87 85 76 77 82 62 37 12 25 29 25 16 14 15 15 13 12 17 15 13 11 9 8 9 11 18 20 26 26 29 31 42 50 45 35 30
91 91 93 94 94 83 83 88 88 93 81 76 80 64 62 30 14 22 23 18 17 15 15 14 14 15 17 17 8 10 10 11 13 15 16 17 21 17 28 32 40 38 33 30 23
90 91 94 94 95 95 94 94 94 82 78 81 84 72 41 17 15 19 16 19 19 16 15 16 16 17 18 13 10 9 10 14 13 14 13 15 14 18 29 29 31 30 32 31 28
90 91 93 93 94 94 94 93 88 81 80 88 78 72 30 26 17 12 14 14 18 19 19 18 18 18 16 14 12 12 10 11 12 10 13 10 13 21 31 27 32 32 32 31 29
89 91 92 92 92 94 93 91 88 84 77 72 58 65 30 15 15 14 10 11 18 20 21 21 17 15 13 11 13 13 10 10 10 11 10 11 19 21 32 27 29 30 31 31 32
88 91 90 91 92 94 84 59 54 53 59 32 24 29 18 15 15 10 9 14 18 16 17 19 17 14 12 12 11 10 14 12 12 15 13 15 18 22 29 32 31 31 33 34 36
89 90 90 91 94 93 68 44 29 40 33 33 30 30 22 20 18 11 10 13 16 15 19 19 17 18 18 15 15 14 15 18 18 16 17 21 23 27 27 31 31 32 33 35 40
90 89 90 93 95 89 60 40 36 36 44 29 27 23 17 20 15 12 12 14 15 16 18 17 20 21 17 17 18 20 18 21 18 19 19 21 24 30 35 37 40 40 35 36 39
90 89 93 95 79 56 57 34 35 44 35 22 22 18 16 18 16 12 14 14 18 17 20 21 21 21 19 20 21 22 21 19 19 19 18 19 17 25 32 33 39 42 44 42 45
90 91 95 85 52 46 31 28 42 50 36 16 18 13 16 17 14 16 18 15 15 20 22 25 22 21 20 23 22 26 22 20 20 20 22 21 18 20 32 34 35 40 44 48 49
90 92 94 81 63 47 49 53 52 51 42 22 17 18 19 17 16 17 18 17 20 22 21 23 21 21 22 25 22 27 27 27 26 24 30 21 24 13 16 24 35 40 47 49 46
91 93 86 55 42 65 58 54 46 46 23 23 20 18 17 20 20 19 22 22 20 29 29 24 25 23 24 26 27 25 24 29 37 40 34 33 29 16 25 28 33 43 46 45 43
93 94 86 53 45 67 64 48 44 21 24 20 18 17 20 20 23 26 26 24 26 23 22 23 32 23 24 25 22 25 23 31 28 35 30 33 32 23 30 28 32 35 39 40 39
95 88 76 63 67 67 50 56 35 28 21 22 20 21 25 23 20 25 27 22 24 26 21 27 28 24 26 25 24 30 28 30 42 57 50 24 27 25 32 31 34 37 38 38 34
68 76 56 58 64 61 54 48 28 30 24 20 23 20 26 23 22 24 28 28 29 28 29 30 33 26 27 24 27 28 26 35 36 47 31 20 23 16 34 34 35 39 39 34 32
62 55 56 65 61 61 54 37 27 35 28 22 19 26 23 28 22 22 26 31 30 29 27 26 27 34 30 27 25 33 32 31 27 36 29 27 15 25 26 29 33 36 35 33 33
58 55 82 64 67 58 41 30 46 29 36 25 21 22 26 28 31 24 27 25 33 27 29 32 32 43 31 28 28 27 28 27 32 32 45 45 21 21 28 31 31 31 32 31 35
52 63 89 63 66 64 39 32 38 28 30 30 28 26 30 32 36 35 36 43 41 32 34 32 37 44 38 31 30 30 29 26 32 39 38 63 21 21 27 30 30 32 32 36 40
46 77 86 62 38 39 38 34 36 35 32 32 36 36 38 40 42 46 44 43 40 36 69 44 36 34 36 28 27 35 33 28 27 39 27 30 15 18 23 27 28 32 34 38 42
45 52 49 67 49 39 33 30 33 38 32 31 36 31 34 47 43 47 43 39 40 63 44 36 38 37 33 33 31 27 27 30 27 24 36 20 19 12 15 18 22 30 35 39 42
51 50 50 45 40 39 47 36 31 37 34 33 34 36 36 40 32 44 39 36 36 42 40 40 44 43 45 40 37 36 28 25 27 24 26 23 24 16 18 22 28 37 40 42 42
68 50 37 68 42 41 37 36 29 41 48 39 34 39 45 44 44 40 42 37 33 41 47 44 52 47 40 41 39 73 38 27 24 28 29 32 24 21 27 29 28 34 39 40 41

GFSSW_sfc_rhum_039.txt.gz
RH
84 78 78 84 85 83 83 84 84 81 80 83 78 81 79 81 83 42 33 21 27 66 67 12 10 10 9 8 8 7 11 10 25 29 34 28 24 20 20 22 26 32 34 43 56
83 83 80 83 84 88 81 79 86 82 82 84 81 81 81 83 54 27 26 66 67 72 14 11 10 8 8 8 8 9 10 10 21 37 73 31 25 19 20 19 22 35 40 49 59
82 84 85 86 88 86 86 85 84 82 83 86 86 80 82 73 38 12 71 70 70 56 11 10 7 8 9 8 9 9 11 11 9 16 41 19 18 17 18 23 25 30 47 67 64
87 87 87 87 88 86 84 84 81 80 83 85 81 80 82 52 24 16 78 76 71 22 12 11 9 10 10 10 8 10 8 9 8 10 17 20 16 19 24 45 18 21 46 68 56
91 92 89 87 87 88 82 85 81 82 83 83 78 79 61 38 18 27 75 76 26 18 13 11 10 10 10 8 8 10 10 8 9 11 16 16 19 18 22 17 16 29 47 51 47
91 91 90 90 90 92 81 85 81 85 87 80 77 81 56 33 9 14 18 21 11 14 11 11 10 9 12 12 11 10 9 9 12 15 15 17 18 18 22 20 25 38 42 40 38
90 90 90 91 93 94 92 84 83 88 83 77 77 55 45 28 10 13 17 13 12 12 12 10 10 13 13 14 9 8 10 10 10 12 16 16 23 31 22 21 30 36 34 29 26
90 89 90 92 93 94 93 93 91 84 76 77 80 50 35 13 11 12 14 14 13 13 12 13 13 14 16 13 9 10 11 16 12 13 14 15 18 19 20 23 24 24 23 19 17
90 89 89 92 92 92 92 91 88 80 77 79 68 52 29 25 13 10 10 12 13 14 14 14 16 17 15 17 12 10 12 14 14 11 12 14 13 16 18 20 22 21 20 18 18
89 88 88 91 91 92 92 89 86 84 70 49 42 51 31 14 10 11 9 11 15 17 19 18 19 20 16 15 18 14 13 10 10 9 10 10 12 13 16 18 22 22 23 24 22
88 87 90 90 90 93 82 52 47 52 42 26 22 20 14 12 11 10 8 10 15 16 18 19 19 18 14 13 11 10 9 8 8 7 10 9 12 15 18 18 21 23 24 24 25
88 87 90 89 92 93 72 36 25 37 37 23 19 20 17 14 15 10 8 13 18 18 13 17 19 13 10 10 10 9 13 13 11 9 11 9 11 13 16 17 17 20 23 25 25
87 88 88 91 94 82 49 35 26 33 40 20 15 17 16 13 14 10 10 10 15 17 14 24 18 15 12 11 12 12 15 20 14 13 10 12 14 17 17 18 19 19 20 22 27
87 89 91 94 85 42 45 31 28 38 41 22 20 15 14 14 15 8 9 11 16 18 17 29 21 15 13 12 13 18 15 14 14 16 17 13 16 16 19 23 27 28 28 25 28
88 90 95 92 57 40 30 22 31 52 50 14 13 10 10 14 11 12 10 11 15 14 15 18 16 15 14 16 16 24 17 15 13 13 17 16 13 22 18 21 24 25 30 31 31
90 91 95 80 63 41 34 31 45 57 54 17 14 16 16 14 12 10 12 11 13 14 13 31 16 15 17 18 16 19 19 18 16 16 28 16 16 14 17 17 19 24 29 32 36
91 93 86 48 42 39 44 56 54 51 16 16 17 16 15 16 14 13 14 16 15 21 23 18 17 18 17 19 19 17 20 33 36 31 33 20 19 15 15 20 18 27 30 36 38
92 94 87 49 41 57 54 71 55 24 21 13 14 15 17 14 15 14 14 14 12 15 16 20 29 18 18 18 20 20 18 31 32 30 24 21 18 18 20 21 22 25 30 35 37
93 77 70 63 58 63 60 71 42 21 14 17 15 18 17 14 15 16 18 14 13 14 24 28 24 18 19 18 16 21 22 21 28 49 42 16 14 21 22 23 25 28 32 36 35
60 74 58 56 64 70 75 56 31 16 13 15 20 17 20 18 18 17 17 13 16 19 19 18 28 19 21 20 21 22 19 28 26 39 32 14 14 16 23 23 26 30 34 33 32
57 59 44 54 59 74 71 44 28 17 20 18 18 18 16 18 16 16 16 19 18 21 20 16 20 29 24 23 17 25 25 23 22 28 35 26 16 14 16 19 24 27 30 32 31
66 59 58 61 51 60 53 34 31 21 24 19 19 16 19 18 20 17 16 16 18 19 22 20 22 29 23 21 20 20 21 22 38 28 32 42 24 13 16 17 20 23 26 28 28
68 68 84 51 59 72 40 32 23 22 27 22 20 17 17 21 26 20 18 36 30 26 22 25 24 32 29 26 23 24 20 19 21 30 33 53 25 13 16 16 17 19 22 26 27
58 86 98 70 36 48 45 34 29 25 22 20 18 17 21 21 20 25 24 35 35 27 61 42 22 25 34 23 21 31 24 21 23 40 32 24 17 14 15 16 14 18 19 22 26
64 44 55 71 52 61 37 30 29 31 26 24 24 23 24 29 26 30 27 36 36 57 33 31 34 26 22 23 24 22 20 20 22 23 33 22 16 10 9 10 13 14 18 22 28
77 36 40 42 45 56 47 34 26 24 28 29 22 22 22 27 29 31 30 31 32 36 34 30 37 35 40 27 28 28 22 19 17 19 18 16 15 11 13 11 14 15 18 21 27
69 35 38 56 51 45 40 29 25 29 39 25 21 21 29 30 32 30 27 26 26 35 38 38 40 45 40 32 30 62 33 22 18 17 19 26 18 13 16 18 18 17 20 23 26

GFSSW_sfc_rhum_042.txt.gz
RH
84 84 84 83 87 87 88 86 87 86 84 80 83 81 79 84 84 47 44 24 28 63 58 15 12 10 9 9 8 6 11 13 12 20 58 51 68 45 24 22 27 28 41 47 62
82 81 82 86 90 90 88 89 87 86 85 84 85 86 85 85 65 42 30 63 63 68 17 13 12 10 11 9 8 9 13 11 18 41 57 56 71 51 19 20 27 37 50 59 67
82 82 83 86 89 91 90 88 87 83 83 85 87 84 86 76 52 17 75 64 68 52 14 10 10 8 9 8 8 9 12 9 14 24 38 53 52 34 21 32 35 47 57 68 65
88 86 86 86 86 90 91 88 87 80 82 84 83 80 84 63 32 15 68 74 71 20 14 15 11 11 10 10 8 10 9 8 12 25 26 26 25 32 29 37 59 56 57 65 61
90 90 88 86 85 90 93 82 82 80 82 85 81 80 62 44 26 29 77 69 26 16 15 13 11 10 11 9 8 10 9 8 9 10 16 19 28 30 28 22 44 52 59 56 44
90 90 90 89 89 91 93 88 81 81 80 85 79 82 62 37 9 13 17 30 12 13 14 11 10 9 10 11 9 9 9 10 11 14 14 21 32 30 22 19 42 50 53 46 40
90 90 89 89 90 92 93 94 85 81 84 80 78 57 46 31 10 11 15 14 11 12 13 10 10 11 12 16 12 10 12 11 13 14 22 22 27 22 23 23 35 40 38 37 32
90 89 89 89 90 92 92 93 93 84 82 78 79 56 43 14 12 12 12 15 13 12 12 11 12 13 15 16 13 10 12 19 15 14 14 24 35 21 21 25 34 37 36 34 29
90 89 88 88 90 92 92 92 92 85 82 77 71 56 33 23 14 11 11 12 12 13 14 12 15 18 17 21 18 14 18 21 19 11 14 22 27 18 17 22 26 26 27 27 25
90 89 88 88 91 91 91 91 85 85 75 47 40 46 34 17 10 9 9 10 14 16 18 18 18 21 20 20 22 23 16 15 17 12 12 20 18 13 17 21 24 24 22 20 20
90 88 87 88 90 90 86 62 61 65 50 28 23 20 12 11 10 11 9 10 14 18 24 22 23 26 22 19 16 15 14 14 10 9 11 11 12 11 15 19 24 23 23 22 22
89 88 86 88 89 92 77 55 27 35 46 31 19 18 14 15 17 11 8 13 18 21 35 33 24 18 19 16 16 12 19 17 9 8 10 11 10 13 13 17 22 24 26 27 26
89 87 87 88 93 86 59 41 26 32 45 27 23 12 15 14 16 12 9 10 14 24 24 31 24 25 14 14 12 14 28 26 22 11 8 11 10 14 14 15 16 20 23 24 27
89 87 89 93 87 50 49 36 33 38 58 24 19 13 13 14 17 10 8 10 15 18 25 33 31 25 20 13 12 23 24 20 19 18 18 24 26 17 16 17 17 18 22 24 25
90 89 93 94 61 46 30 27 30 48 74 15 17 10 13 16 13 11 9 10 19 18 18 45 44 26 22 17 15 28 25 24 15 15 32 30 34 33 19 21 19 23 24 24 26
91 91 94 84 72 56 44 46 48 74 58 16 12 15 15 14 13 10 11 11 11 17 20 35 26 21 16 15 14 24 25 20 17 22 43 38 42 32 28 33 33 23 26 28 30
92 92 88 49 52 44 53 54 68 62 17 17 16 16 16 17 14 12 15 17 17 24 23 20 18 15 16 17 17 16 20 42 84 81 48 14 18 19 33 23 21 24 27 30 33
93 93 88 54 47 55 58 90 66 27 28 12 13 15 19 15 15 13 16 15 14 14 16 22 31 17 15 17 39 30 21 62 63 80 41 20 22 20 20 18 18 22 25 32 39
94 79 72 69 68 63 78 91 50 28 16 16 14 19 19 14 14 15 16 14 13 13 21 34 34 28 17 14 23 29 24 22 28 59 66 22 12 22 19 21 22 26 30 38 39
91 71 67 65 70 74 90 69 40 24 16 14 18 17 21 16 17 16 17 14 12 11 22 38 61 39 21 17 17 18 16 32 31 50 46 19 16 33 25 23 23 29 35 38 37
81 76 50 62 70 83 75 58 43 23 18 18 17 17 17 17 16 17 15 12 12 15 17 34 57 49 23 22 16 24 26 20 18 33 56 55 25 16 17 20 24 29 32 38 38
82 77 58 66 78 53 61 42 40 29 20 20 18 16 17 18 18 16 16 14 13 16 22 20 25 42 27 17 17 18 22 22 62 40 45 62 37 15 18 17 20 23 27 33 34
81 73 75 66 68 61 47 41 34 30 26 23 23 18 15 19 22 18 17 32 27 19 23 23 30 45 28 22 20 22 18 17 22 39 45 77 38 14 14 14 16 20 22 28 33
78 87 99 85 43 43 52 43 40 29 22 21 22 17 19 22 20 24 20 33 32 26 58 44 26 27 40 23 21 28 23 18 23 66 49 43 23 14 15 16 15 19 21 22 30
90 62 76 94 72 43 48 37 38 33 22 21 22 19 22 28 23 23 20 37 32 51 32 30 31 24 18 17 19 24 22 20 21 24 41 34 22 15 14 16 14 18 19 19 20
85 67 57 47 55 47 53 46 35 26 24 29 25 20 21 25 21 24 23 34 32 36 33 30 40 38 39 27 24 27 22 19 18 19 17 18 20 14 12 16 17 17 15 16 20
70 58 54 62 55 49 51 43 39 28 26 21 24 25 29 25 25 31 27 29 25 36 39 36 51 57 64 35 35 59 35 25 20 18 20 28 22 16 16 15 20 21 19 21 23

GFSSW_sfc_rhum_045.txt.gz
RH
88 87 87 88 90 91 92 90 91 89 85 84 85 87 87 88 85 61 66 51 49 62 59 25 20 23 19 19 16 16 20 17 16 57 60 57 60 72 63 74 44 58 64 85 77
87 84 82 86 91 92 93 93 90 88 86 85 87 89 88 88 79 58 52 59 70 72 24 23 19 18 19 18 16 17 23 19 20 53 59 59 47 63 58 58 67 84 90 80 72
87 86 84 87 89 91 92 93 90 88 85 86 89 88 87 87 70 36 69 64 72 55 20 18 16 17 17 16 15 15 16 13 20 38 49 54 50 41 45 44 56 65 77 91 78
89 89 89 87 88 90 92 93 89 82 84 84 85 87 86 85 43 24 67 76 72 27 22 20 20 23 19 14 12 16 12 12 26 39 46 51 48 41 42 40 56 77 80 82 80
89 89 90 87 88 89 92 94 92 87 85 81 84 85 85 67 51 28 73 71 36 25 21 20 23 19 17 15 14 14 12 12 26 34 35 38 58 48 47 52 46 54 57 76 81
90 90 90 90 89 90 92 94 95 89 86 87 84 84 92 61 22 41 39 37 24 21 20 19 19 13 16 16 22 14 12 14 15 21 26 39 54 40 44 49 51 54 59 64 73
90 90 90 90 89 90 92 93 94 93 88 87 82 74 68 50 22 20 20 27 22 16 18 17 15 19 20 23 22 15 16 16 19 27 34 36 54 52 43 43 60 68 68 66 62
91 90 90 89 89 89 92 92 93 93 92 87 81 83 79 28 27 25 22 19 18 14 16 16 18 23 24 22 24 23 18 24 23 23 32 28 46 38 44 56 67 67 59 52 42
91 90 90 89 88 89 92 92 93 92 91 86 91 89 68 31 29 19 16 16 18 18 20 14 22 28 26 32 37 26 24 26 26 18 34 34 38 31 37 46 52 51 50 43 36
93 90 89 88 88 90 92 92 88 90 81 64 60 69 47 29 20 16 15 15 19 22 27 26 29 34 34 36 41 31 24 25 25 20 26 29 29 28 30 40 44 47 45 40 34
93 90 89 87 88 90 95 84 87 92 74 57 44 38 17 16 15 13 13 15 20 31 40 54 40 41 32 30 21 21 23 21 19 17 23 28 28 28 26 33 36 36 35 35 32
93 91 88 86 89 91 97 84 58 52 72 48 40 32 23 19 23 19 14 19 24 43 48 47 59 32 22 24 24 24 24 24 21 14 14 17 19 21 23 31 32 34 32 30 33
94 90 88 87 92 97 90 67 44 48 76 44 35 38 27 19 24 22 15 17 23 45 44 56 44 32 23 27 26 34 36 34 34 31 20 17 20 19 20 23 30 30 30 30 32
95 92 88 93 93 80 80 57 57 61 94 46 31 30 18 14 26 16 14 14 22 29 40 40 32 31 30 31 25 37 25 29 27 35 40 29 41 33 22 20 25 31 32 36 42
95 92 92 86 94 81 58 59 54 67 96 34 28 15 13 21 22 19 14 16 24 24 32 45 43 36 37 31 24 30 28 28 32 32 36 38 47 36 31 25 24 30 34 35 36
96 93 94 94 97 78 64 62 69 94 92 31 20 20 24 23 21 17 16 18 19 26 33 30 31 33 35 28 27 27 32 33 50 51 54 34 38 48 29 27 31 26 27 36 49
96 94 92 64 78 62 70 81 93 98 28 24 23 20 23 24 22 19 21 23 27 35 47 32 25 30 28 37 30 30 37 63 74 83 74 35 39 43 31 24 32 28 25 45 46
96 95 90 67 70 77 87 94 97 48 41 22 21 23 26 23 23 21 24 28 24 24 34 42 46 37 32 30 34 33 41 64 76 87 72 32 41 36 29 27 28 28 37 42 55
97 98 86 77 76 84 98 98 74 46 27 28 19 27 27 22 22 23 25 26 21 20 30 53 48 40 29 33 29 46 52 38 61 77 83 45 26 31 30 31 36 37 43 59 60
95 98 88 73 83 90 99 76 63 38 31 30 29 26 32 25 25 25 26 20 22 19 30 47 58 52 39 37 27 33 28 46 53 50 54 40 37 51 39 36 38 43 56 57 56
96 99 74 67 83 98 91 75 58 40 33 36 28 28 27 28 24 24 26 20 20 25 36 48 50 59 46 47 35 34 37 36 34 58 66 76 46 29 32 33 39 47 52 56 55
93 94 72 71 98 88 87 63 59 44 38 42 32 34 28 29 29 26 26 23 20 24 31 42 59 76 54 39 28 24 32 45 70 47 61 77 53 24 26 30 32 38 45 50 48
94 84 77 71 80 89 67 61 52 47 43 41 34 34 35 32 36 31 30 46 39 30 35 40 46 73 54 40 35 32 30 27 37 63 55 74 55 22 19 20 25 31 41 47 49
95 95 97 87 45 55 69 57 56 44 44 38 36 33 38 36 32 37 52 47 45 43 61 47 41 48 57 37 33 39 33 30 36 76 59 57 44 30 25 23 22 23 25 45 47
99 73 75 96 86 57 54 51 54 55 41 40 40 34 38 42 36 37 50 50 45 58 45 42 46 42 33 33 33 32 35 33 30 41 55 46 39 31 28 25 25 28 30 26 31
98 85 82 83 70 75 60 53 51 44 43 44 43 37 35 37 36 38 43 49 48 53 46 43 55 50 57 40 36 42 34 33 31 29 32 33 34 27 26 24 25 23 22 26 30
91 82 71 82 76 81 66 51 46 44 43 35 36 43 40 36 34 49 34 42 44 53 53 56 60 74 75 48 44 58 41 33 34 32 33 41 36 32 31 30 32 31 33 31 34

GFSSW_sfc_rhum_051.txt.gz
RH
90 90 89 90 90 90 90 92 93 92 90 85 85 84 84 88 90 82 63 41 62 70 58 33 30 29 30 31 27 21 28 28 21 23 34 71 69 66 62 60 89 90 83 92 96
91 88 86 88 90 90 91 92 92 92 91 88 86 84 86 92 95 82 59 69 74 77 35 29 25 23 28 28 24 24 28 22 17 23 55 69 68 62 59 77 93 94 95 93 91
91 91 89 88 90 90 91 90 91 90 92 91 88 82 88 93 62 39 66 75 75 74 34 25 25 24 30 29 24 25 21 17 15 31 59 65 63 62 59 72 89 95 96 92 88
92 92 90 89 89 91 90 90 90 90 90 90 86 84 90 92 21 29 76 82 76 55 34 26 28 32 34 28 20 20 15 15 14 53 53 59 52 53 66 54 76 83 85 86 91
92 92 90 89 89 91 91 90 90 91 91 90 86 86 85 62 43 38 72 78 57 29 27 25 30 32 30 23 21 21 20 20 32 47 46 46 52 48 82 91 84 80 81 88 84
94 92 91 90 90 90 90 90 90 92 92 91 87 84 89 49 26 42 40 36 33 34 28 26 24 24 29 24 29 27 29 45 48 49 45 41 54 47 81 91 92 92 92 83 78
95 94 92 91 90 90 90 89 90 92 91 90 86 79 88 36 34 37 32 34 31 27 23 24 25 27 30 25 27 27 21 44 47 48 43 39 49 54 74 83 93 91 90 85 81
96 95 93 92 91 90 90 89 90 91 91 91 84 90 68 38 52 45 40 30 28 27 21 22 24 28 31 27 27 31 25 39 37 44 44 34 44 53 68 77 80 80 84 86 80
96 96 95 94 93 91 90 89 91 91 91 90 93 92 74 47 44 37 32 26 26 28 25 17 28 34 33 39 39 36 27 36 33 34 45 42 36 44 57 66 71 70 74 82 82
87 96 96 94 92 92 92 91 89 91 88 78 70 72 39 27 31 25 32 22 25 31 32 35 38 40 46 43 50 42 32 31 28 26 36 43 34 54 55 56 62 87 82 80 86
89 91 96 95 90 88 91 83 67 83 83 58 42 39 31 27 30 26 23 24 28 33 40 54 44 48 45 43 38 40 33 30 28 23 34 40 38 32 63 76 83 89 83 79 81
88 92 96 94 89 90 94 80 59 61 70 58 55 48 38 36 45 34 20 23 31 37 53 43 46 36 36 40 35 38 34 32 29 26 30 39 39 34 64 73 71 72 74 63 79
89 89 96 93 90 96 92 74 52 56 68 57 54 54 47 43 49 46 22 25 37 49 48 49 33 36 35 36 36 40 41 37 35 33 31 32 34 36 52 62 62 62 60 53 66
88 88 97 90 91 83 88 70 70 64 73 50 63 53 44 41 32 26 21 22 42 37 49 44 37 35 43 41 35 44 36 34 38 38 33 31 32 33 38 52 57 58 58 50 57
89 88 98 86 84 90 72 70 72 71 51 28 50 34 37 26 27 25 23 24 30 42 40 39 42 40 40 34 34 40 39 40 39 43 49 45 42 36 35 46 48 55 53 48 47
90 87 98 96 96 88 79 78 81 78 61 42 38 43 29 25 24 27 24 23 24 40 41 38 43 38 37 37 35 36 41 46 55 52 57 47 44 45 36 28 29 41 46 45 44
90 87 97 78 80 87 84 85 93 91 36 42 43 32 31 27 25 31 27 30 30 44 47 40 41 40 42 40 39 37 47 62 68 74 63 46 51 44 34 31 27 33 40 45 44
89 91 97 79 85 85 83 94 95 62 62 46 32 32 28 31 30 34 31 31 31 34 48 47 52 41 40 41 44 50 45 65 55 75 60 50 60 39 35 37 36 34 44 47 49
90 98 96 89 86 85 97 98 79 62 48 38 32 34 38 34 32 31 34 32 28 29 35 54 49 52 44 44 36 50 53 44 69 82 87 59 42 33 37 40 44 47 40 53 63
94 95 88 86 82 83 99 73 69 55 50 53 37 36 42 37 36 34 37 30 29 28 33 45 47 54 49 45 40 38 37 52 62 58 66 47 47 48 42 39 42 57 53 53 73
97 97 83 83 83 94 93 76 62 46 46 60 62 50 38 38 36 40 33 29 28 31 31 48 43 52 52 46 37 44 45 46 49 60 62 70 52 32 42 40 41 44 53 70 81
96 96 91 83 99 90 84 66 60 50 52 57 60 62 55 40 40 37 36 29 25 39 36 46 55 65 45 42 43 44 45 50 70 51 70 79 52 31 33 39 47 45 48 71 76
86 83 89 76 92 92 72 64 63 55 59 56 58 61 54 47 42 40 39 36 45 39 46 49 61 68 49 42 52 56 50 49 58 67 65 75 56 31 31 32 37 48 50 65 71
91 96 98 93 70 68 74 74 73 53 60 57 58 58 59 55 42 41 40 50 50 42 63 49 60 53 60 44 43 50 44 43 51 77 60 64 46 35 29 35 31 30 43 58 69
95 80 76 94 88 79 64 70 75 66 58 52 57 57 62 66 46 45 59 55 53 61 51 46 52 50 45 38 36 35 38 45 46 48 55 46 49 40 40 31 31 34 33 45 62
87 97 91 94 69 73 71 68 69 65 58 57 54 60 50 60 51 49 55 55 50 52 48 50 54 48 64 50 45 45 38 37 39 42 47 45 44 40 43 45 46 43 44 51 59
74 86 92 76 76 81 71 63 63 61 58 50 47 47 54 58 52 45 45 49 44 50 54 53 65 66 59 57 53 64 50 40 38 40 40 46 39 40 49 49 54 55 52 55 60

GFSSW_sfc_rhum_054.txt.gz
RH
90 90 90 90 90 90 89 90 91 90 88 88 88 87 85 86 85 88 61 41 69 70 66 34 31 31 33 33 30 26 31 33 27 21 26 74 67 65 64 77 90 87 85 95 94
91 90 88 90 90 90 90 91 90 90 90 90 90 88 86 90 93 84 56 66 72 68 32 26 25 26 31 31 27 28 34 25 20 18 34 64 66 64 68 94 95 90 96 96 92
92 92 92 91 90 90 91 91 90 89 90 91 90 89 90 94 51 28 75 74 76 74 32 27 24 26 31 31 28 27 25 20 18 16 54 69 70 63 67 86 89 94 97 91 94
93 93 92 91 90 90 91 91 90 87 88 89 88 87 90 93 17 26 80 82 77 60 32 27 28 32 36 31 24 26 19 16 15 35 62 67 54 56 66 63 80 84 83 88 94
96 93 92 91 90 90 91 91 90 89 89 89 89 88 85 52 36 28 70 82 61 39 28 27 32 33 33 29 27 21 21 24 27 53 53 48 56 57 96 93 82 81 85 87 86
96 96 93 92 91 90 90 91 90 89 91 89 88 86 85 46 24 42 36 47 37 33 32 27 26 27 32 30 30 28 30 46 52 49 49 48 56 63 87 81 82 84 88 92 89
91 96 95 92 92 91 91 90 90 89 90 88 88 83 87 39 38 38 41 34 34 30 25 25 27 31 33 30 28 32 27 44 50 52 52 44 64 67 85 82 88 86 89 92 80
87 95 97 95 93 92 91 91 90 90 90 89 84 90 61 36 54 51 47 38 32 30 24 24 28 31 36 31 30 34 26 46 45 49 51 41 48 83 92 92 95 89 86 89 80
88 87 96 97 95 94 92 90 90 91 90 89 93 90 60 43 39 30 36 31 28 30 30 18 31 37 35 42 41 36 32 36 42 43 51 45 45 68 90 86 92 95 83 88 84
89 88 89 97 96 95 92 90 89 90 89 82 73 76 40 28 30 29 41 28 26 35 34 38 42 43 49 48 47 50 47 42 32 36 44 56 48 65 81 76 85 93 93 94 89
89 90 90 93 97 92 90 84 63 84 84 60 53 41 28 32 37 31 30 26 32 33 42 54 46 48 43 44 41 42 43 38 28 26 36 42 45 63 70 72 74 80 85 90 90
90 90 89 93 97 91 91 83 57 66 75 60 58 51 39 42 47 38 24 25 32 36 52 45 51 39 38 43 39 41 41 40 30 32 34 41 39 40 63 64 65 74 83 83 91
89 90 88 92 94 92 85 72 60 70 81 53 55 54 48 46 49 44 25 28 35 40 50 52 39 36 40 40 38 41 43 43 38 34 32 38 34 41 49 72 73 73 73 73 80
86 87 88 96 94 80 83 70 70 75 73 46 61 56 52 49 44 39 24 27 45 36 50 48 41 37 43 40 36 44 38 42 41 42 40 34 35 36 45 67 71 70 76 72 70
82 88 88 95 80 94 74 69 72 72 53 29 62 41 49 34 27 29 26 25 40 43 42 41 47 43 44 38 36 37 40 45 47 46 51 48 48 38 40 49 63 69 67 66 60
80 88 89 98 96 88 75 82 79 76 63 34 46 49 49 30 28 30 29 25 30 44 49 40 45 41 37 41 37 37 44 46 55 54 57 47 47 45 40 36 48 54 62 61 58
81 86 93 83 88 87 78 87 95 88 36 40 48 39 39 32 28 31 34 32 37 49 54 42 43 41 43 44 41 42 48 61 68 73 62 50 54 45 36 34 30 38 48 58 56
82 88 92 82 77 81 85 97 93 64 59 47 40 39 36 29 30 31 33 38 34 35 51 49 52 41 41 41 41 50 45 65 56 72 55 52 55 39 38 39 40 37 36 50 57
84 98 97 78 88 74 96 98 80 66 50 46 35 38 36 33 30 35 38 37 32 35 37 54 45 52 48 48 41 54 53 46 69 84 86 58 44 28 41 44 47 44 55 57 58
95 95 87 77 91 91 99 81 70 55 53 56 46 37 40 39 38 36 40 34 31 32 34 41 45 55 50 48 46 44 42 52 64 60 64 52 48 44 35 39 42 50 57 54 66
96 96 77 83 94 100 93 79 62 48 52 60 68 63 41 43 40 43 37 32 30 34 35 47 39 49 54 48 40 50 51 51 50 62 61 70 52 37 32 42 41 45 53 57 62
96 93 85 88 99 88 86 72 63 52 54 59 64 66 59 44 45 42 39 31 30 38 35 48 50 62 48 48 43 44 47 50 70 55 72 80 59 33 30 33 45 42 47 67 76
96 78 92 78 91 90 71 66 65 59 62 58 63 64 61 54 44 44 43 35 41 37 42 50 55 58 46 45 57 54 54 53 61 68 67 77 57 33 35 34 35 43 45 52 76
96 94 98 95 67 69 73 72 71 63 60 64 64 60 62 59 53 46 43 46 51 39 64 48 60 47 48 43 45 66 55 56 55 79 64 66 48 37 35 37 35 34 35 46 61
98 81 80 92 81 83 62 63 74 69 61 61 68 63 65 67 57 51 56 60 55 67 54 45 49 57 47 42 42 41 40 51 50 51 56 48 53 40 41 43 37 38 36 41 54
98 93 87 92 68 75 77 65 69 66 67 64 67 59 59 66 58 58 54 60 54 58 56 55 54 53 66 53 51 50 46 50 47 49 50 49 48 42 47 54 52 54 57 66 75
88 93 86 71 73 76 71 67 66 63 62 56 54 54 61 58 52 55 55 52 51 58 61 55 65 67 59 60 55 66 51 45 44 45 45 55 44 43 56 54 62 60 64 72 79

GFSSW_sfc_rhum_057.txt.gz
RH
91 91 91 91 91 90 89 90 90 89 86 88 88 88 87 90 86 78 50 35 51 68 68 30 23 24 24 21 18 18 21 22 20 18 18 54 57 59 56 67 78 75 72 83 96
92 92 91 91 91 90 90 90 91 89 89 89 90 90 91 91 88 68 48 62 70 71 26 20 20 23 23 21 20 18 23 20 16 14 19 53 52 52 55 76 80 82 92 94 92
94 93 92 92 92 90 90 90 90 89 89 90 91 90 91 88 47 16 79 71 74 64 24 19 18 18 20 20 19 20 20 18 15 14 19 38 56 48 52 65 69 81 92 96 93
94 96 94 92 92 91 90 90 90 89 87 88 88 89 90 82 15 21 79 82 76 50 21 21 19 23 24 22 19 20 17 16 13 14 43 39 47 51 53 56 65 69 84 91 91
91 94 97 94 92 91 91 91 90 90 87 87 88 88 74 42 30 25 81 79 54 38 22 21 24 24 24 22 20 17 16 20 20 31 42 43 48 54 74 81 71 78 85 86 86
90 90 94 96 94 92 91 91 91 90 88 86 87 87 69 40 19 34 44 42 31 25 24 21 22 22 23 25 22 21 21 32 42 43 43 44 53 52 78 78 79 81 80 81 79
91 89 91 96 96 94 92 92 91 91 89 85 87 79 75 38 33 35 40 29 30 25 21 21 20 22 23 27 22 24 26 31 42 42 43 40 43 42 73 77 81 81 80 79 77
90 90 88 91 97 96 94 93 92 91 90 88 86 81 58 33 40 42 39 31 30 26 20 20 22 23 26 26 26 25 20 27 33 39 42 36 38 61 75 77 76 81 81 79 77
89 90 89 89 94 98 97 94 91 90 89 90 84 76 52 38 28 26 31 20 29 29 25 18 23 29 29 31 29 31 25 25 30 37 39 34 32 57 80 80 74 76 73 74 73
86 89 90 90 90 97 96 90 85 88 87 80 73 68 47 24 26 28 35 27 24 31 32 30 33 32 36 31 32 34 34 30 25 26 37 38 35 62 82 82 74 65 72 71 73
81 88 89 91 92 96 86 70 50 73 88 64 52 50 25 29 34 30 32 26 27 28 34 42 35 37 34 37 32 32 32 30 25 22 36 37 34 43 81 79 75 71 70 69 65
72 86 89 90 91 95 84 75 53 65 79 61 62 56 41 38 44 34 26 27 31 30 40 36 42 36 32 36 36 33 32 30 27 26 28 29 26 30 72 78 67 64 64 59 60
78 81 87 87 95 96 80 70 59 63 86 63 54 53 47 41 44 37 26 27 28 35 42 44 33 34 36 33 35 32 33 34 32 30 24 24 23 32 50 59 61 56 55 55 58
79 79 83 86 98 84 82 65 67 71 84 49 51 50 50 45 42 34 23 26 35 30 42 37 34 34 35 35 31 34 30 33 34 34 31 27 32 28 30 53 59 55 58 57 60
82 79 84 91 89 85 70 74 75 73 55 30 63 40 49 39 30 39 25 25 37 38 38 34 39 39 39 35 33 33 34 34 35 37 37 36 32 27 29 30 44 53 56 60 56
83 81 84 93 96 81 76 75 78 85 77 33 52 56 55 44 26 29 28 26 32 39 38 32 33 32 30 33 33 34 39 39 42 42 45 36 33 29 25 26 27 33 46 58 55
84 81 86 85 86 84 78 77 93 90 44 36 53 44 46 39 28 32 35 34 34 44 46 34 34 31 35 33 34 33 36 46 56 56 48 42 41 32 28 26 26 27 33 49 54
84 85 82 81 82 81 82 96 94 61 62 42 41 46 39 30 30 32 35 34 30 31 40 37 38 35 36 32 34 37 37 53 45 50 41 42 43 24 29 26 33 34 34 34 53
85 95 94 89 88 86 96 98 69 61 49 45 33 44 43 29 30 33 39 32 30 34 34 48 38 37 39 37 31 42 42 38 59 69 65 42 33 22 26 27 32 36 34 36 41
91 95 87 85 87 98 98 73 66 52 51 53 52 39 48 36 36 35 41 34 32 32 33 41 40 45 40 38 39 36 36 46 51 55 55 39 37 28 26 29 32 31 37 37 43
93 95 73 82 93 97 92 68 58 52 50 55 66 64 39 41 37 40 37 30 28 31 31 38 37 40 42 40 36 42 42 45 40 47 48 50 35 34 26 27 34 35 36 41 42
93 96 79 78 98 92 85 64 60 51 52 54 59 63 58 44 46 42 36 31 30 34 34 41 48 56 39 38 35 36 40 42 57 49 59 59 43 29 30 27 32 32 35 40 48
98 93 90 74 91 84 67 62 55 59 56 58 59 58 56 57 45 45 43 38 42 37 43 47 48 48 38 37 43 42 42 44 51 57 56 72 45 27 30 27 27 28 29 35 45
98 99 99 93 62 67 73 67 71 53 59 57 59 56 57 55 54 46 44 44 46 37 64 45 50 44 40 36 38 53 50 46 46 61 53 51 39 31 28 29 27 30 31 28 30
99 92 77 96 81 75 63 60 61 67 54 60 64 60 60 57 59 52 51 53 52 65 50 46 47 48 37 33 38 38 42 49 44 44 51 41 43 32 31 29 30 38 41 53 55
98 95 87 78 69 77 71 70 61 59 62 61 64 64 58 62 58 60 52 52 53 54 53 49 49 55 48 43 38 39 35 43 44 42 41 38 39 32 31 35 43 52 56 62 70
96 90 69 69 77 77 73 59 64 57 60 53 55 61 64 58 59 52 53 56 54 52 58 56 63 62 54 48 46 65 50 42 40 39 40 48 39 35 37 44 50 57 62 66 70

GFSSW_sfc_rhum_060.txt.gz
RH
92 91 91 91 91 91 89 89 90 90 86 84 87 89 88 91 83 42 27 28 32 63 69 19 16 16 14 12 12 11 12 12 12 13 16 24 30 47 41 39 46 49 46 53 92
91 94 92 92 92 91 90 89 90 90 89 88 89 90 90 91 48 30 34 58 69 72 17 13 13 15 14 14 11 12 13 12 10 10 12 13 27 36 41 42 46 66 82 87 91
88 89 95 94 92 91 90 90 90 89 89 88 89 90 91 76 35 15 75 68 72 59 16 13 11 14 14 13 13 13 12 12 11 11 10 11 23 23 32 30 36 52 86 90 88
88 89 90 95 94 92 91 90 90 90 89 87 85 89 89 47 16 19 76 78 75 28 16 14 12 14 15 15 14 15 12 12 12 12 13 16 20 31 31 38 42 48 74 88 89
88 89 88 87 95 95 93 91 91 90 89 85 84 89 51 29 18 21 78 78 35 24 14 12 12 14 16 14 16 16 13 14 15 21 19 28 27 32 38 46 50 62 80 82 82
86 88 90 89 93 96 95 93 92 91 90 86 83 90 46 30 14 27 31 28 19 18 15 12 15 16 17 18 18 16 15 16 23 24 28 30 33 34 42 51 60 72 76 75 78
84 88 90 88 87 94 96 94 93 92 91 87 83 59 52 30 17 21 26 21 17 15 14 13 14 17 19 18 18 18 19 17 25 26 29 28 31 30 39 55 69 71 70 69 69
80 88 90 90 88 89 96 96 94 93 91 88 86 58 42 20 19 23 22 22 20 17 16 14 15 19 20 19 18 18 18 17 24 26 31 30 25 28 41 48 54 67 62 67 66
77 82 88 90 90 90 95 97 95 90 86 87 69 58 34 31 26 17 18 21 20 20 20 15 18 21 22 20 17 16 17 16 26 26 27 28 23 32 45 44 39 48 50 54 58
77 79 84 88 91 92 96 96 84 84 74 67 56 59 32 18 18 23 20 15 20 23 23 23 21 22 20 19 19 16 19 16 16 22 27 24 20 26 44 42 39 37 41 50 49
77 76 80 87 90 91 85 65 56 57 67 39 37 31 21 20 25 23 22 20 16 22 24 26 24 24 19 19 25 20 20 18 16 18 26 23 20 16 35 48 41 36 36 41 44
76 76 78 86 88 93 88 68 52 56 57 40 41 36 31 28 32 26 20 20 22 26 24 28 27 19 21 24 26 23 19 18 20 19 22 18 17 15 24 41 39 37 40 36 38
77 76 76 83 88 96 82 60 44 48 58 44 38 34 28 31 29 22 21 16 21 24 25 24 22 24 25 25 28 24 23 22 21 21 19 19 16 19 27 37 43 45 38 31 32
79 78 77 83 82 65 68 52 49 57 59 34 43 36 31 26 33 17 19 16 20 24 22 22 19 25 24 25 22 25 19 20 22 21 22 19 22 18 18 27 34 34 39 36 31
81 81 80 86 83 73 56 56 59 65 34 24 42 29 31 23 20 21 17 19 20 22 24 23 25 26 25 21 21 22 23 24 23 23 27 23 21 17 19 18 22 30 32 35 34
82 81 82 69 68 61 54 62 62 64 43 26 44 48 43 31 24 21 22 18 14 21 23 18 22 22 20 23 23 23 26 28 28 27 33 24 22 17 14 15 16 16 24 28 32
84 82 83 48 61 54 66 69 72 54 24 24 47 46 34 30 27 23 24 27 23 31 30 23 22 21 24 26 27 25 26 36 45 42 36 27 26 19 16 16 17 19 19 20 27
82 81 82 57 48 66 75 96 60 22 29 30 36 40 39 24 24 24 25 25 18 18 20 26 30 22 23 23 24 26 25 34 39 39 31 29 25 16 17 16 19 22 23 24 23
85 93 90 78 57 85 94 90 35 30 27 28 31 46 39 24 22 25 26 22 20 19 23 26 22 22 24 24 22 31 32 25 38 52 47 24 20 15 16 16 21 19 21 23 22
86 95 86 75 68 96 94 59 33 28 31 42 31 34 48 31 26 25 27 21 21 18 16 24 27 26 31 27 29 29 24 35 33 43 39 26 24 17 17 20 16 16 17 20 25
94 97 58 73 84 99 89 53 37 30 37 45 38 44 31 31 25 27 27 22 19 22 18 20 24 39 34 32 25 31 31 30 28 31 39 37 24 17 17 17 22 22 20 21 25
93 99 73 71 98 93 78 46 42 33 40 44 47 49 47 31 27 22 24 20 18 19 26 22 25 33 27 28 26 23 26 28 37 35 39 42 30 14 17 19 18 19 21 24 27
97 96 85 66 92 91 60 51 36 38 35 45 48 45 47 46 34 26 24 21 23 20 24 25 29 35 31 31 31 27 26 24 28 34 34 56 29 17 20 20 19 19 18 21 26
98 100 99 95 48 62 63 51 49 37 37 40 44 44 47 44 41 34 31 33 31 23 52 35 25 29 33 24 19 28 26 24 27 40 31 31 25 18 18 17 16 19 20 20 21
98 85 82 95 78 51 50 45 48 48 40 43 46 47 43 47 46 45 34 42 34 53 30 29 29 27 21 17 16 18 18 20 23 24 28 25 20 21 19 18 18 24 26 31 34
99 58 68 54 61 59 56 55 42 39 40 46 46 44 47 51 46 50 39 40 37 41 33 33 31 30 31 21 22 23 19 18 21 20 25 24 23 17 18 20 24 29 34 38 46
94 43 49 53 60 63 56 54 43 39 40 35 43 50 57 46 42 40 39 40 38 42 42 38 36 41 38 31 32 56 33 22 22 25 26 27 22 17 21 24 26 34 39 44 51

GFSSW_sfc_rhum_063.txt.gz
RH
91 91 94 92 91 91 91 90 90 89 87 87 86 86 88 90 84 30 25 28 26 64 61 15 13 11 10 10 9 8 10 10 10 10 14 16 16 30 29 28 31 34 37 78 85
84 86 87 93 95 93 91 90 90 90 89 89 87 87 88 89 46 24 39 60 60 64 18 14 12 11 11 10 8 9 11 10 8 8 10 9 12 18 25 18 33 47 61 80 83
80 82 84 87 92 96 93 91 90 90 90 89 88 87 87 73 29 14 69 61 66 55 14 9 9 10 12 9 10 9 11 9 9 9 9 10 11 13 24 24 43 37 70 84 83
80 80 81 83 88 94 96 94 91 91 90 89 87 86 84 42 20 17 65 72 70 23 15 12 11 11 12 11 9 12 8 8 9 9 10 11 11 16 18 30 32 44 68 82 87
80 82 79 81 84 91 95 96 94 92 91 89 86 86 49 27 19 24 72 70 24 20 17 12 10 10 12 10 10 12 10 9 9 10 14 14 15 17 23 32 45 60 73 83 80
78 82 85 84 86 88 92 96 95 93 92 90 86 90 39 36 11 14 18 30 18 18 14 10 9 9 14 12 13 11 12 10 10 13 15 17 16 24 28 34 56 67 73 75 72
74 79 85 87 88 88 87 92 97 95 93 90 86 52 46 34 13 12 17 17 16 15 12 9 10 14 13 16 12 13 14 12 11 13 13 16 19 57 31 38 51 56 60 62 65
76 76 81 87 88 89 89 90 96 96 94 88 85 48 48 18 13 13 14 18 16 13 13 10 12 15 16 13 14 13 13 15 16 13 15 18 57 63 28 37 46 44 44 49 43
77 76 76 82 88 89 91 91 94 94 85 83 63 52 36 30 20 14 13 15 18 16 15 12 15 17 15 17 15 13 14 20 24 13 17 17 37 46 21 28 36 36 38 45 43
76 76 76 79 86 89 91 91 77 84 72 50 43 48 33 18 14 12 12 13 18 19 20 20 18 19 17 16 18 15 12 14 12 20 15 16 17 28 24 24 27 30 34 38 40
76 76 77 76 84 88 76 49 52 63 54 34 24 22 17 14 16 16 12 16 16 20 23 20 20 21 17 16 14 17 14 13 13 13 17 18 21 15 24 24 27 28 29 35 34
80 77 77 76 81 87 76 51 34 47 41 29 32 25 22 19 26 16 12 19 21 23 19 21 25 16 15 16 19 18 17 14 14 14 16 16 19 16 15 25 23 26 25 31 33
84 78 77 76 80 72 60 48 32 40 49 26 20 24 20 18 25 19 16 16 18 20 19 23 17 14 18 17 20 19 19 23 21 22 14 15 16 14 14 20 24 24 24 27 29
86 81 78 78 72 40 49 41 37 48 46 17 31 25 19 16 24 15 14 14 16 19 18 19 14 18 18 19 18 23 15 16 17 18 22 23 29 25 14 18 23 27 31 29 25
86 84 82 85 59 52 37 34 44 61 29 14 24 21 20 22 11 15 12 13 17 18 18 20 17 20 21 19 17 20 19 18 18 21 23 20 17 30 14 12 15 22 30 26 23
84 85 83 77 59 55 56 45 57 52 32 19 28 32 32 26 16 12 15 15 12 15 16 16 13 15 16 15 16 16 20 20 20 22 36 22 20 24 16 12 10 11 18 23 23
82 84 80 52 61 43 64 82 51 39 12 14 31 34 30 30 25 17 18 23 20 24 25 18 18 16 16 20 19 19 23 33 43 53 39 26 19 22 22 12 12 13 12 17 21
81 85 79 53 46 62 83 93 46 18 17 20 25 34 34 23 26 21 23 23 19 14 19 23 27 18 17 18 22 23 22 36 54 48 53 20 21 17 12 11 12 14 15 16 17
82 65 88 67 58 74 98 88 39 20 10 12 23 36 36 24 22 22 23 20 18 15 21 22 20 14 15 15 16 24 27 22 33 30 38 20 15 12 11 11 13 14 15 16 17
85 63 81 64 63 87 99 76 28 13 9 14 20 25 34 26 27 25 23 17 18 14 14 18 24 15 16 17 17 25 19 31 27 46 43 22 19 18 15 16 12 13 13 13 17
89 93 54 63 82 95 96 62 41 14 14 18 24 16 24 31 24 27 22 17 15 14 14 16 20 24 24 25 20 24 28 25 30 39 41 35 22 15 14 14 15 15 13 14 16
91 98 60 80 99 76 81 50 43 26 16 23 34 19 28 29 29 29 24 19 14 15 20 17 23 31 26 15 14 18 22 23 36 31 29 36 28 13 13 13 14 14 14 14 18
98 94 79 79 94 71 46 49 45 34 21 26 34 33 32 35 33 31 28 22 17 17 21 20 25 32 26 25 20 23 21 21 24 25 34 58 31 14 14 15 14 14 13 15 17
98 99 98 96 51 53 48 43 45 38 28 22 27 32 43 45 35 31 30 26 26 20 43 31 23 26 31 24 20 25 20 19 23 42 32 27 20 16 14 14 13 13 14 14 16
98 90 85 96 86 52 42 36 39 37 31 24 30 30 41 45 36 39 29 33 31 43 28 25 28 24 19 16 15 16 18 18 20 22 30 23 18 14 14 14 14 17 17 18 20
98 56 64 55 68 56 49 39 37 28 29 38 34 30 32 41 39 42 34 33 30 26 29 24 31 27 25 18 16 18 15 14 13 15 15 15 16 12 12 11 15 17 19 22 28
81 40 55 63 64 59 51 39 30 30 29 24 26 32 36 40 41 40 38 37 37 37 30 30 35 33 40 21 22 38 22 16 16 15 16 22 18 13 14 14 15 17 22 27 36

GFSSW_sfc_rhum_066.txt.gz
RH
84 86 88 90 94 94 93 92 91 90 89 89 88 87 86 85 82 33 29 30 30 67 56 19 14 14 12 12 9 8 12 12 11 13 20 22 20 17 19 17 37 60 72 86 92
77 79 80 84 90 92 96 94 92 91 90 90 89 88 87 86 52 31 40 68 59 61 19 17 14 12 13 12 9 9 12 11 10 8 10 10 12 12 23 43 49 56 67 85 85
71 75 76 79 86 90 93 96 94 92 92 91 90 89 87 73 37 21 64 64 61 50 16 14 11 10 12 11 10 10 12 9 8 8 9 10 10 12 14 52 61 66 63 86 85
75 74 74 74 77 88 91 94 95 95 92 92 91 90 86 48 29 21 70 64 65 22 14 15 12 13 13 13 9 11 9 8 8 8 9 11 10 12 25 46 44 48 71 81 84
71 77 76 76 75 86 89 90 93 95 94 92 91 90 64 35 26 25 69 66 24 18 17 16 14 12 12 10 10 10 10 8 8 8 9 11 14 14 47 46 50 63 72 84 82
76 73 77 79 79 85 88 89 89 94 95 93 91 94 59 50 16 11 15 26 18 17 16 16 12 9 10 11 13 10 11 10 9 9 10 12 16 35 57 84 59 62 70 69 71
74 75 75 77 83 84 87 89 89 90 95 94 91 66 60 43 18 13 14 15 17 16 17 13 10 10 14 15 12 12 14 11 10 10 12 11 17 44 54 69 59 63 62 62 63
72 70 76 75 78 85 86 89 90 89 93 94 88 64 60 19 15 16 16 14 13 14 15 12 9 13 16 14 15 14 15 16 11 12 14 14 26 44 46 50 49 50 53 56 56
79 75 75 76 76 83 86 88 89 89 90 88 72 63 44 24 23 17 12 14 14 16 14 12 13 16 16 19 20 15 17 14 13 14 15 20 37 55 48 42 53 41 44 43 49
83 79 75 76 76 81 87 86 72 82 72 54 52 51 34 21 13 14 13 13 14 20 19 18 18 21 19 20 26 19 18 16 14 16 16 15 54 59 51 47 47 34 41 41 45
83 83 79 75 78 77 72 48 52 78 66 47 34 33 14 15 11 13 12 15 14 21 27 21 23 24 20 20 18 16 16 17 16 15 18 17 18 38 44 33 35 31 37 42 37
81 84 84 78 77 79 65 60 25 40 51 38 41 35 24 18 23 16 12 17 20 26 22 23 28 18 16 15 16 18 18 16 14 15 15 14 16 27 30 21 21 26 31 35 35
80 83 85 80 78 72 59 50 29 34 49 28 20 17 22 21 23 20 14 14 19 23 23 28 21 17 16 17 18 18 17 21 24 17 15 17 17 18 15 19 18 22 23 32 33
80 84 86 77 74 50 48 33 34 44 56 17 14 18 14 17 20 16 14 14 17 22 21 21 16 17 17 19 17 21 14 18 17 19 22 22 34 26 20 17 21 21 25 27 30
81 85 86 83 50 54 40 43 36 55 43 8 11 16 16 20 13 16 14 16 19 19 18 21 18 18 21 17 16 20 20 22 18 19 22 24 34 24 19 17 17 22 27 30 31
82 85 87 82 66 51 45 61 62 67 34 14 23 27 24 20 17 11 18 17 15 18 17 17 13 14 16 15 16 15 18 21 22 23 35 22 26 29 22 23 15 20 26 30 29
81 85 82 59 76 45 60 89 76 48 10 10 25 26 25 26 22 16 20 25 23 27 28 19 17 14 13 18 16 18 23 38 48 48 45 22 25 26 27 20 16 13 24 28 27
82 84 72 55 53 61 85 98 67 24 20 14 12 24 30 25 26 24 19 22 21 17 23 27 30 17 15 18 20 22 23 41 60 84 63 42 29 17 17 13 12 12 16 18 24
83 83 72 60 60 79 94 98 62 29 14 16 18 27 34 25 23 26 24 21 19 19 25 27 24 14 16 16 17 24 31 22 59 60 74 51 25 14 13 11 12 13 16 18 20
92 84 76 58 66 89 99 84 42 30 20 14 18 23 32 28 27 25 25 21 20 18 19 22 31 16 16 15 16 18 20 33 35 74 49 22 21 22 18 15 14 13 17 18 21
95 98 62 57 79 98 98 72 48 25 22 19 18 17 15 23 24 24 24 22 22 20 20 20 26 25 18 20 20 21 28 32 25 30 53 58 36 35 22 16 16 17 16 20 22
96 99 65 66 99 90 86 63 46 25 26 28 24 17 19 20 25 24 24 23 17 21 24 22 28 36 23 16 16 17 23 28 44 40 42 60 37 28 26 15 17 16 16 19 19
98 97 75 71 96 94 66 50 46 35 27 27 29 21 25 31 29 30 25 25 30 24 30 26 29 36 36 24 20 19 19 21 25 30 39 68 38 15 15 15 15 19 16 17 20
99 100 97 94 60 67 65 55 52 38 30 26 27 25 30 38 30 37 30 29 41 30 43 40 27 29 41 35 24 25 20 24 28 53 42 39 32 23 18 19 15 16 16 16 20
99 91 78 96 91 67 52 41 46 41 31 30 34 31 35 37 36 34 31 29 33 43 37 34 34 28 21 20 19 21 20 19 19 25 39 30 22 18 16 16 17 20 20 17 18
100 60 60 47 74 68 63 52 39 33 31 35 38 32 44 42 33 28 27 34 42 32 36 36 37 32 34 22 20 22 18 18 17 18 18 19 21 15 13 12 14 17 18 19 21
97 52 60 64 72 83 69 57 41 33 29 24 27 34 47 50 66 44 45 40 40 43 40 40 44 40 46 26 25 39 25 18 17 17 17 22 19 14 14 14 16 18 17 20 30

GFSSW_sfc_rhum_069.txt.gz
RH
81 81 82 85 89 90 90 95 95 94 92 92 91 90 90 90 88 49 46 46 52 73 62 27 25 19 19 22 19 20 22 22 18 16 24 28 26 27 26 39 50 73 77 81 92
74 72 73 77 84 88 91 91 94 95 94 93 92 91 91 90 77 50 46 70 72 69 26 27 26 21 26 21 19 22 24 18 12 12 14 19 24 22 34 46 52 88 89 91 91
73 70 72 74 80 82 89 91 91 94 95 95 93 92 92 88 61 30 60 66 64 62 22 20 20 20 20 19 18 19 17 12 12 10 14 16 14 53 39 66 94 60 94 94 89
75 71 74 72 75 81 88 90 89 89 93 94 92 93 93 82 40 38 70 69 66 33 22 21 23 22 22 20 14 21 13 13 11 10 13 14 22 82 84 84 70 65 88 89 92
76 67 67 72 75 83 85 89 89 89 89 93 93 94 88 69 50 34 72 65 37 24 21 20 24 24 22 17 15 16 15 12 12 11 13 11 47 61 76 64 68 70 79 88 90
76 75 74 63 70 80 84 85 88 89 89 90 93 94 89 88 32 22 37 42 25 23 22 22 23 18 17 16 18 16 16 16 14 14 13 14 40 48 76 58 54 70 79 88 86
81 77 62 68 66 69 79 84 85 87 88 87 92 85 80 71 38 30 24 23 31 28 24 21 20 20 18 19 19 19 23 19 17 15 14 14 36 56 64 53 61 71 69 83 80
81 80 78 61 61 64 77 84 84 84 85 88 92 85 79 38 36 38 34 29 21 22 22 20 20 20 21 22 22 25 24 29 18 16 14 20 45 55 69 68 78 74 74 72 78
82 82 82 79 63 61 69 80 81 80 82 85 94 94 83 38 40 31 25 23 21 18 22 16 19 24 24 30 35 32 34 27 20 14 18 24 62 51 49 53 59 69 70 68 87
82 84 84 81 79 74 70 79 72 75 70 67 66 83 58 34 23 20 23 21 21 23 27 26 29 31 33 38 43 36 29 23 24 23 22 36 48 54 50 46 59 82 73 67 89
81 83 85 84 80 79 82 75 74 93 79 75 66 54 26 23 21 18 19 20 21 26 38 32 38 36 33 29 26 25 25 25 21 18 24 28 44 52 48 54 76 77 78 71 72
82 82 85 84 83 78 88 85 64 54 72 66 59 52 37 32 35 25 16 24 28 29 33 36 38 27 23 23 24 24 26 27 22 20 25 23 24 49 53 54 52 66 66 63 68
83 82 85 85 83 89 87 73 49 53 79 51 40 46 49 37 44 34 22 22 25 28 33 39 30 23 24 24 24 24 27 28 28 25 24 26 28 49 37 41 45 47 48 48 70
81 83 85 85 84 76 78 54 51 52 88 47 31 28 24 20 38 25 21 22 23 26 29 33 25 25 26 26 22 27 21 21 28 31 38 28 43 33 28 32 31 37 48 47 60
82 84 84 83 86 77 55 52 57 67 94 18 16 16 17 22 22 23 21 24 25 23 28 32 28 28 29 24 21 25 25 28 30 35 37 34 53 47 36 29 31 34 44 44 48
82 83 86 92 95 78 63 67 88 97 83 23 29 31 29 22 23 20 22 22 24 22 24 24 19 20 22 21 20 19 28 31 34 37 52 36 53 58 39 26 26 31 37 40 42
84 85 85 67 82 72 67 89 99 90 20 14 37 32 33 29 25 25 27 29 36 35 33 24 23 18 18 23 23 24 33 56 68 72 65 40 48 42 32 27 25 26 36 33 36
85 87 83 72 66 70 89 96 95 49 38 18 24 32 37 31 29 28 27 32 31 30 31 35 40 22 19 21 26 30 34 63 66 84 75 51 50 31 26 24 20 23 30 36 33
87 94 92 77 70 87 99 99 70 49 25 30 22 29 39 30 34 31 33 31 30 29 33 35 33 20 17 19 21 34 39 35 73 79 93 73 43 24 24 22 19 19 27 36 37
98 97 89 68 71 92 99 92 64 40 30 25 36 30 46 40 38 38 41 32 30 25 24 35 38 22 20 20 22 26 27 48 66 97 97 57 50 38 41 30 20 19 23 28 30
99 99 80 67 88 97 97 77 66 42 37 36 37 39 34 41 38 38 36 30 26 23 21 24 34 38 27 27 26 30 30 40 48 64 76 73 61 44 36 28 20 26 24 29 31
97 100 74 67 99 88 86 66 60 44 38 41 38 36 41 40 40 34 36 31 24 28 27 26 45 51 37 24 19 22 30 42 70 56 64 78 62 30 33 25 25 22 22 25 31
98 98 83 71 97 91 71 64 60 54 50 42 40 33 31 39 48 48 36 32 31 30 39 38 57 67 44 30 21 25 28 27 41 55 63 81 63 28 27 24 23 23 24 25 24
99 99 99 94 73 71 68 68 71 54 56 44 42 37 38 43 38 53 56 44 41 33 53 44 43 48 53 50 34 38 29 25 38 66 58 65 47 32 29 24 25 21 20 26 23
99 98 85 97 95 78 63 57 64 66 50 46 46 48 46 51 60 57 67 66 38 58 44 45 51 44 39 34 32 32 30 25 29 39 57 49 40 32 28 26 23 26 24 22 25
100 97 78 73 76 84 75 79 66 57 47 54 55 47 43 50 54 77 80 64 68 34 42 45 53 44 46 34 28 36 30 25 24 26 30 32 37 26 22 20 23 25 24 23 28
99 75 65 71 77 95 83 73 70 52 46 36 42 44 46 46 66 75 78 70 67 54 48 48 53 56 60 42 38 60 38 38 30 24 26 34 29 24 22 19 21 26 26 33 40

GFSSW_sfc_rhum_072.txt.gz
RH
79 77 76 79 83 85 88 91 91 91 94 94 95 94 92 91 91 64 50 43 60 75 67 27 32 29 25 27 26 22 32 34 28 21 17 20 25 36 46 52 73 82 90 94 91
73 69 69 72 81 83 85 89 90 89 91 93 95 95 92 92 83 72 53 68 77 75 24 30 33 25 31 30 26 26 32 27 19 15 17 19 32 37 68 88 81 83 90 95 95
70 64 69 72 77 81 84 88 89 88 88 89 92 94 93 91 78 40 70 77 78 69 25 25 26 26 31 30 25 27 27 20 17 15 15 16 58 67 71 93 87 76 89 93 92
77 75 68 68 74 78 84 87 86 80 83 87 89 93 95 92 23 38 67 68 67 33 23 24 28 32 26 25 22 24 18 17 15 14 14 17 68 66 84 69 73 69 83 89 94
81 77 74 72 69 68 78 84 84 83 81 82 85 86 93 84 68 34 73 67 48 26 20 20 27 31 31 24 21 21 17 17 16 16 15 21 54 66 72 70 72 83 90 95 97
81 80 76 68 63 63 67 78 82 84 84 79 83 92 81 87 31 33 46 50 34 25 24 22 24 25 26 25 24 19 22 23 21 17 17 25 60 57 62 63 72 86 92 96 94
82 82 79 76 62 63 69 75 80 81 82 78 78 81 76 73 41 41 36 33 37 27 26 25 24 29 28 27 22 24 27 25 22 21 19 30 45 61 63 65 78 84 90 91 91
81 84 85 81 80 65 71 75 76 78 78 80 78 80 85 45 49 48 49 48 35 28 28 24 26 27 27 24 24 28 33 34 23 21 17 19 27 54 67 62 84 86 83 88 89
80 83 87 86 84 83 76 74 74 74 76 80 91 92 82 50 52 45 44 34 28 28 26 22 28 30 28 32 37 42 42 36 29 20 20 23 37 54 73 73 82 82 81 85 91
83 82 85 88 87 84 83 81 68 77 76 61 71 88 65 35 30 26 34 30 30 29 29 31 31 34 37 41 44 45 39 44 34 23 25 42 45 57 66 67 79 85 82 82 93
82 84 83 87 87 85 88 75 67 88 86 81 72 68 38 31 27 26 27 30 29 30 36 39 41 40 34 34 31 33 34 36 28 21 26 32 47 55 62 63 77 83 82 82 97
79 84 83 83 86 87 88 85 73 68 83 52 59 62 52 44 51 41 25 29 33 36 39 42 42 30 29 32 32 32 35 35 27 22 25 26 27 53 61 58 63 72 79 81 89
83 82 85 83 84 88 88 72 54 60 93 60 49 56 55 49 63 51 32 29 31 36 39 43 36 27 29 31 31 31 34 33 29 27 30 32 37 59 46 54 56 59 55 72 81
85 84 86 82 85 82 84 59 57 66 97 53 48 37 36 41 48 30 23 27 31 32 32 39 31 32 33 32 29 35 26 26 27 37 42 32 44 50 46 47 50 54 61 64 74
85 85 86 77 89 94 69 65 59 81 35 19 28 28 32 35 30 40 25 32 34 30 31 38 38 37 37 31 26 32 29 29 30 38 43 40 51 44 40 39 42 50 54 60 69
86 86 85 91 97 88 74 74 88 88 76 35 25 33 39 33 26 27 37 30 29 28 28 28 24 29 29 25 26 24 29 35 40 43 55 43 51 53 48 36 35 45 50 55 66
88 87 87 77 92 78 82 93 92 93 24 22 35 39 33 34 29 30 34 36 39 42 39 27 26 25 23 29 27 27 36 55 61 70 65 49 55 44 31 33 30 43 48 52 64
89 90 87 82 79 81 90 99 98 51 45 26 28 26 44 35 31 32 36 33 31 39 38 39 46 26 24 25 28 32 36 60 59 74 68 61 55 42 30 26 27 31 43 47 58
90 97 96 83 78 91 98 95 72 49 40 40 31 31 33 38 37 37 40 38 28 31 42 40 38 25 20 21 22 33 43 36 74 83 87 69 58 37 30 29 25 30 39 46 50
98 98 93 73 77 96 99 85 64 41 35 40 53 35 36 48 50 45 44 34 34 29 33 39 45 25 24 25 24 30 32 61 69 82 88 69 65 52 37 31 26 32 48 41 42
99 99 87 73 91 98 96 80 63 48 48 46 46 46 43 45 42 48 48 37 29 34 31 34 43 42 32 30 33 35 37 48 55 70 83 80 60 47 40 29 25 25 32 37 41
97 100 84 76 100 95 88 74 62 54 50 54 50 46 49 45 50 51 47 40 36 26 37 36 45 52 38 31 28 30 30 39 72 76 75 77 58 36 37 27 28 29 30 35 36
98 98 89 78 97 94 69 63 62 60 54 54 52 47 37 44 61 49 43 48 38 36 34 38 53 60 44 32 30 33 30 32 50 62 68 79 62 32 34 35 27 29 28 32 32
100 100 99 97 77 71 85 75 67 52 57 54 57 51 53 52 43 55 52 54 64 42 61 40 56 38 45 45 42 46 31 27 40 73 62 66 48 36 32 30 25 28 26 30 34
100 97 91 98 96 77 69 65 70 74 57 58 65 66 65 65 58 62 77 73 61 55 56 46 58 47 42 40 40 40 38 34 34 43 51 44 45 36 33 33 26 26 25 27 28
99 99 91 78 83 87 80 84 67 62 56 67 70 59 58 60 54 59 76 85 80 70 60 51 60 56 61 44 41 46 42 36 36 33 40 42 45 33 30 31 28 26 25 26 28
98 92 72 80 94 97 83 73 70 58 56 51 54 59 60 55 52 70 76 77 78 85 77 57 62 68 69 46 49 69 57 49 44 39 34 41 38 29 27 30 26 29 28 28 36

GFSSW_sfc_rhum_078.txt.gz
RH
73 72 71 65 76 76 75 77 81 79 78 78 78 80 84 91 88 87 70 37 64 73 54 42 34 34 29 32 33 32 38 46 38 32 25 21 25 54 64 72 81 83 96 90 88
76 73 70 72 76 78 78 80 81 78 76 77 78 80 87 90 87 96 65 71 77 77 30 28 30 26 32 36 35 34 41 36 28 27 24 24 26 27 65 76 67 88 90 88 93
72 73 72 73 75 75 77 77 77 77 75 78 79 81 84 89 74 24 72 74 78 69 26 30 30 29 38 39 33 34 33 29 24 22 26 26 27 47 64 67 64 66 94 94 97
71 72 72 72 74 75 74 77 77 74 75 73 73 77 83 96 10 38 70 79 81 57 27 26 32 36 39 36 31 35 26 25 21 21 25 26 41 60 68 44 74 70 91 89 93
80 77 74 73 74 79 80 78 78 76 77 73 72 76 92 83 59 48 61 68 48 30 26 25 30 34 36 33 29 28 24 22 21 22 26 32 39 52 68 58 77 89 96 85 89
83 83 81 76 74 75 82 81 82 80 78 74 71 76 94 78 29 40 48 53 43 33 27 24 25 29 34 33 30 28 24 24 28 27 28 32 49 73 46 79 88 95 95 86 87
84 85 85 80 77 78 81 83 83 82 80 74 70 75 90 54 39 42 48 49 41 39 34 26 26 34 36 37 32 30 33 30 29 26 26 34 46 70 50 82 83 97 82 78 86
76 83 87 86 86 86 85 85 83 82 78 76 71 74 82 49 55 56 64 58 49 41 35 35 36 36 35 33 33 36 38 37 29 27 26 28 38 30 44 78 85 98 86 84 82
82 84 87 89 88 88 86 85 82 81 78 77 86 85 84 49 56 49 50 50 49 49 41 26 35 39 42 42 46 46 45 38 29 28 30 28 34 31 78 74 83 99 98 89 87
84 84 85 88 90 88 87 83 77 78 73 69 75 78 50 27 34 38 56 46 37 46 41 43 47 51 53 48 56 45 46 56 42 34 35 37 35 31 64 75 78 96 97 98 93
84 85 84 86 87 88 88 80 66 71 75 80 72 60 44 49 43 42 41 43 41 42 46 46 52 54 44 47 38 36 41 45 40 32 33 35 39 31 53 85 88 93 96 97 96
84 85 85 85 86 88 88 85 65 65 92 65 66 62 54 52 60 42 40 44 43 46 44 51 52 37 39 42 42 39 43 41 35 29 32 37 34 31 60 65 80 84 95 96 97
85 86 86 85 86 86 92 77 66 61 94 73 61 56 46 43 50 39 42 41 45 48 46 40 42 36 38 44 44 43 43 42 39 37 37 39 41 36 44 62 64 67 81 92 95
86 88 87 84 80 88 91 72 67 67 95 50 58 52 38 37 51 34 31 31 42 45 45 45 30 37 40 41 38 48 37 35 38 46 52 47 55 40 36 48 60 60 73 90 95
86 88 87 82 77 91 76 69 68 83 30 23 42 33 42 32 34 48 35 39 26 41 40 47 43 39 46 41 37 41 34 38 39 48 54 48 56 45 50 42 42 47 62 78 91
87 88 87 92 96 78 81 75 92 79 40 25 38 56 57 49 44 46 44 37 35 38 42 40 36 37 34 34 34 34 41 44 52 54 70 49 54 54 45 40 37 39 45 63 87
87 88 86 85 93 85 87 93 96 94 38 32 42 40 37 53 51 40 52 46 46 51 48 40 37 34 36 40 41 42 48 66 69 79 71 48 57 41 36 34 36 35 36 49 72
87 89 86 81 76 80 90 92 98 60 58 37 41 44 40 42 46 45 51 56 42 46 38 37 47 35 31 41 45 46 47 72 64 72 62 63 62 48 39 38 37 35 34 53 78
88 95 95 90 74 88 93 98 66 66 48 49 46 51 41 49 52 55 52 54 43 42 44 52 46 31 28 30 29 43 52 41 71 88 83 67 52 40 33 36 33 36 40 52 77
98 97 93 85 86 94 100 70 66 57 56 50 56 56 62 54 58 66 63 49 42 37 41 47 54 36 32 30 28 37 40 61 72 86 86 68 69 50 38 30 34 33 47 54 67
99 98 89 88 95 99 97 80 54 42 50 65 68 65 61 62 60 75 64 50 48 55 51 44 54 50 38 40 38 45 38 55 55 66 63 72 62 51 40 42 45 36 37 50 66
98 98 93 93 100 100 95 71 55 60 58 57 64 67 70 67 62 70 75 57 56 65 72 48 54 61 46 37 34 31 42 47 65 71 79 74 49 38 42 43 45 34 30 50 61
98 98 98 86 98 96 83 72 62 63 63 67 70 65 63 63 64 63 64 54 65 64 82 75 78 62 51 37 42 43 43 46 58 74 83 77 57 41 40 42 37 37 32 35 56
100 100 100 99 86 85 83 77 91 60 57 66 62 66 73 77 62 68 63 49 56 57 88 80 89 68 55 47 43 51 41 40 47 73 74 78 54 43 38 36 36 36 36 34 44
100 99 95 99 98 83 73 71 79 74 58 56 73 77 78 84 81 77 55 50 54 68 83 84 97 69 54 40 34 46 47 44 46 53 54 52 57 40 37 33 31 36 34 33 35
100 100 97 96 75 96 83 79 74 68 61 67 68 61 67 83 68 61 61 66 69 71 81 86 98 79 64 50 43 44 44 49 52 52 54 52 49 36 38 37 39 33 32 31 31
99 94 90 85 90 97 87 76 80 63 66 50 60 63 74 69 60 58 56 57 60 66 81 94 99 97 75 58 55 73 54 48 50 51 52 67 52 40 39 39 39 35 36 33 31

GFSSW_sfc_rhum_081.txt.gz
RH
75 76 73 75 77 77 76 78 80 75 74 75 75 76 77 84 85 77 58 31 58 74 59 36 28 26 21 22 22 22 26 27 26 26 18 16 18 26 47 44 55 62 67 72 79
69 70 71 71 80 79 78 78 79 78 74 74 76 80 82 84 80 75 59 73 74 76 31 27 28 23 22 21 23 22 27 25 22 20 20 19 18 16 32 44 45 66 76 74 79
65 67 69 70 74 79 81 78 78 76 76 77 77 78 81 82 55 17 75 77 75 69 23 24 23 21 23 26 24 25 23 23 19 18 17 18 18 22 34 27 33 47 64 77 80
72 73 73 70 70 73 82 84 81 77 76 76 72 74 80 86 8 32 69 74 77 49 22 27 26 28 30 28 25 25 23 20 18 18 20 19 19 29 40 22 48 42 63 76 82
82 78 76 76 74 74 80 83 81 76 75 74 73 74 83 53 29 37 61 68 56 36 23 23 26 29 31 27 23 26 22 18 18 18 18 20 21 23 37 33 61 71 74 76 77
83 84 80 78 78 78 81 83 83 80 76 74 74 73 84 48 16 38 40 38 34 26 24 22 22 22 25 27 24 23 21 19 20 22 22 23 26 48 22 42 68 83 80 71 71
80 81 84 78 79 82 82 85 85 84 77 73 72 69 84 51 28 32 42 37 33 32 26 22 19 25 26 29 25 25 27 25 22 19 19 22 30 41 29 62 71 78 75 71 67
76 81 84 87 87 86 86 88 87 84 79 74 72 76 75 45 46 49 46 46 39 33 30 28 31 25 26 26 27 27 28 29 20 22 21 22 20 23 33 55 67 76 72 67 67
83 85 86 88 88 88 88 89 85 78 77 76 79 80 67 45 53 41 42 40 48 44 34 26 30 34 31 30 31 35 26 30 22 20 21 24 23 23 46 54 58 82 73 69 72
83 84 86 87 88 88 90 82 75 73 73 69 68 75 48 22 34 36 48 45 36 46 41 36 37 40 40 36 35 34 34 32 28 22 25 24 23 20 31 50 51 62 79 82 79
82 84 86 87 87 88 88 72 64 61 68 65 61 60 48 47 40 42 48 42 35 38 39 45 43 49 40 37 30 31 30 28 26 26 26 24 24 20 22 54 56 64 71 80 86
83 85 86 86 86 88 80 74 71 73 90 65 65 60 52 49 51 36 34 44 44 40 41 45 50 39 35 38 37 31 32 30 28 26 28 24 25 22 24 30 46 53 64 69 71
84 86 87 87 86 81 82 68 65 66 94 66 62 62 51 43 50 40 34 40 40 43 41 38 39 36 35 40 43 41 40 37 33 30 25 28 28 26 24 39 47 54 51 61 67
83 86 88 88 85 79 80 69 66 73 85 51 54 53 40 39 48 33 24 28 43 41 40 38 28 35 38 36 36 40 33 36 36 37 33 29 34 29 23 24 37 45 58 60 66
83 86 88 85 76 81 71 68 70 78 34 24 50 32 36 38 30 44 30 32 25 40 42 42 41 35 38 37 36 34 31 35 35 36 37 26 33 32 32 28 24 24 46 53 60
84 86 88 90 90 74 72 76 89 84 38 26 43 52 43 42 38 43 43 33 31 29 33 34 32 33 27 29 34 32 33 35 41 40 48 34 36 34 28 27 25 24 28 48 58
84 86 88 86 88 79 84 90 90 81 36 38 38 39 38 44 48 43 49 47 44 41 39 32 30 30 31 34 36 34 40 48 58 61 44 38 43 33 29 26 25 23 22 38 56
84 87 88 90 77 79 87 82 96 51 57 40 41 42 35 36 42 48 50 50 39 39 33 37 36 33 32 32 37 40 40 45 44 52 39 44 45 30 28 27 29 28 27 31 53
84 92 98 92 85 86 92 94 57 56 48 50 40 43 44 43 48 52 49 48 41 37 36 40 33 26 30 32 29 45 48 34 52 71 65 45 41 31 27 28 26 25 27 31 47
96 95 86 92 90 95 100 79 62 53 54 52 46 50 56 51 56 60 54 45 46 48 39 44 46 34 29 26 27 34 35 51 48 53 54 46 48 30 29 26 29 33 30 31 42
98 99 86 93 94 99 96 76 56 41 42 61 64 61 62 61 54 65 59 46 56 57 48 43 46 47 37 36 34 34 40 46 40 48 46 49 43 39 31 28 36 38 31 31 45
97 100 94 94 100 100 97 70 57 56 50 47 58 62 63 60 57 52 60 51 58 60 75 71 66 51 38 33 29 28 34 36 54 60 57 50 38 29 34 33 38 32 30 27 37
96 94 93 88 98 93 98 94 57 58 56 64 59 58 57 56 52 53 56 49 57 53 62 61 79 64 45 31 27 35 35 32 35 51 50 65 42 31 35 32 31 31 30 29 33
99 99 99 98 96 79 80 95 94 56 56 62 64 60 64 69 59 61 60 48 52 40 78 64 80 93 71 58 48 42 38 38 40 56 45 48 39 33 32 31 29 33 32 30 30
100 99 87 99 98 96 78 69 81 78 60 55 61 70 68 76 72 65 54 47 42 49 73 68 62 64 77 66 64 58 37 33 42 42 48 41 38 33 34 30 29 33 32 29 27
100 100 98 84 79 97 79 76 68 74 67 70 67 61 60 78 71 61 52 52 56 53 54 63 92 93 86 63 63 64 44 33 38 37 40 43 41 32 29 28 31 31 34 28 27
97 95 89 87 98 98 95 73 72 63 66 52 58 62 85 77 61 57 56 56 56 63 68 68 96 100 77 75 86 72 50 38 34 37 37 45 37 32 34 36 33 33 37 34 32

GFSSW_sfc_rhum_084.txt.gz
RH
70 68 70 73 79 78 78 78 80 75 71 71 73 74 77 82 78 28 26 27 35 69 67 27 25 17 15 14 16 14 14 12 10 11 9 10 13 12 19 20 22 26 25 38 52
66 66 67 69 75 79 81 82 81 80 78 77 78 78 79 81 48 21 33 63 72 77 25 22 21 18 15 14 14 15 14 12 9 9 12 12 12 11 12 11 15 24 34 46 53
71 71 72 73 71 72 78 83 82 74 77 79 79 78 80 68 29 7 72 77 82 64 19 17 16 16 15 13 14 13 14 10 12 11 11 11 11 10 13 14 13 16 17 41 47
72 72 72 73 74 75 80 83 78 74 73 72 73 76 78 47 10 21 64 72 75 33 18 18 16 17 15 15 11 15 12 10 9 9 11 11 10 12 12 15 12 19 23 34 46
77 74 73 72 72 76 83 84 81 78 76 74 72 74 52 28 10 20 60 59 36 28 19 19 19 16 16 13 12 18 11 11 11 12 13 12 13 13 12 12 13 25 35 38 46
71 78 77 75 75 75 80 83 83 83 81 77 72 74 49 33 7 18 26 28 21 25 24 18 19 17 17 16 17 13 14 13 12 12 13 15 12 12 13 12 18 29 30 34 44
78 80 82 79 78 79 81 84 85 86 82 78 73 53 54 29 13 19 24 23 26 19 20 19 18 18 17 19 16 17 18 14 14 14 14 12 14 12 13 20 23 27 33 35 41
73 81 85 87 87 87 87 87 87 84 81 77 74 52 53 19 21 23 16 18 16 18 20 20 19 19 20 18 19 19 19 20 13 13 12 14 14 8 10 20 21 25 34 39 42
75 82 84 87 89 89 89 88 85 79 76 74 66 58 31 31 29 20 17 18 23 21 17 14 21 19 17 23 20 18 21 18 17 12 12 15 11 10 18 19 21 25 33 37 39
76 80 85 87 88 90 90 84 68 71 59 49 44 64 33 12 22 29 30 32 34 39 24 18 24 23 24 20 23 20 21 20 19 13 14 13 13 10 11 17 20 23 34 35 37
73 79 84 87 87 88 70 39 34 43 49 40 30 33 21 26 26 25 33 37 30 31 22 22 27 27 21 24 20 18 21 20 15 15 19 16 15 11 9 15 20 25 30 35 39
75 80 84 87 88 87 61 45 54 62 75 42 40 35 27 27 38 22 30 33 34 29 22 25 30 18 19 21 27 25 24 21 16 16 20 17 15 11 10 13 15 18 26 31 38
77 79 83 88 88 70 55 48 48 50 77 45 39 40 39 33 33 27 30 31 30 30 31 32 21 18 23 30 31 28 26 23 20 17 18 20 19 15 9 13 18 21 21 25 32
77 80 86 88 79 52 50 48 46 65 74 28 43 37 37 31 36 21 17 25 30 30 28 34 26 24 25 30 25 29 19 21 23 24 24 20 21 12 14 15 16 18 26 26 30
77 78 86 83 70 53 51 52 58 68 38 18 34 26 29 31 23 38 23 17 23 34 34 30 33 30 33 28 23 26 20 19 22 26 26 24 24 15 12 16 14 13 19 25 28
75 76 83 68 66 62 54 58 67 79 38 19 34 38 35 33 29 36 35 23 19 18 16 29 25 28 28 21 22 24 27 28 28 28 37 28 21 17 14 17 15 14 14 20 26
77 78 78 70 70 55 64 71 71 54 22 24 35 32 27 36 39 38 43 46 35 33 27 14 21 20 24 24 22 26 28 36 43 44 38 19 22 20 16 16 16 14 14 18 24
79 83 71 66 64 73 77 74 86 31 34 28 31 27 26 31 36 36 41 41 35 32 21 21 18 16 16 22 22 30 28 34 40 38 32 22 28 19 16 14 14 15 16 19 24
80 62 79 61 70 88 97 93 35 33 33 39 28 28 30 34 36 38 36 34 36 30 31 25 22 15 16 15 14 25 33 24 34 31 48 26 24 21 18 17 17 16 15 17 20
73 79 68 58 72 95 100 82 40 40 41 40 35 36 34 36 30 34 41 41 42 40 42 31 35 20 19 21 18 18 18 36 34 46 43 25 27 23 22 18 15 18 19 20 18
88 93 55 57 83 100 96 88 49 32 38 46 44 40 42 42 36 34 37 43 39 41 40 40 36 32 30 29 27 28 32 30 27 31 37 35 24 19 20 18 18 20 19 20 23
92 99 52 78 98 100 97 59 64 39 34 39 45 48 45 43 39 37 36 39 36 37 48 53 55 43 30 24 23 23 26 29 40 31 34 37 29 20 22 21 22 20 21 20 26
97 86 65 84 96 86 89 91 50 43 43 40 41 41 39 43 44 39 37 38 37 36 45 43 72 56 38 28 23 27 26 26 28 31 40 55 32 17 16 17 18 21 19 18 22
96 98 80 93 87 77 58 78 97 58 42 39 47 43 48 50 44 43 41 33 40 35 65 48 42 67 66 60 52 53 41 28 29 45 39 33 27 22 20 20 17 19 18 17 20
100 97 58 92 91 94 70 61 70 79 47 42 48 48 49 54 50 52 45 41 35 42 42 45 48 36 35 36 36 39 43 40 35 29 38 31 26 20 18 18 18 18 20 20 18
100 100 68 53 49 72 93 69 64 43 57 56 52 42 46 56 48 52 49 49 47 41 50 46 75 62 66 43 38 46 39 37 34 32 24 24 26 19 19 17 19 19 19 21 20
98 90 96 69 67 93 84 72 60 53 50 41 43 48 51 46 46 54 54 52 50 51 56 62 66 83 64 44 50 55 46 43 31 29 28 34 26 20 22 20 20 19 19 21 22

GFSSW_sfc_rhum_087.txt.gz
RH
67 66 67 69 72 72 75 77 80 76 75 74 76 79 79 81 76 22 14 21 31 67 67 19 20 16 12 12 10 10 14 13 11 9 8 6 9 8 9 11 10 13 13 23 36
72 71 71 72 74 75 74 75 77 75 73 73 76 79 81 82 43 17 35 69 70 67 24 17 20 16 14 13 11 13 14 12 8 7 8 7 8 8 8 9 10 12 13 20 34
68 69 70 70 71 73 77 80 79 76 75 74 76 76 81 66 26 10 60 70 80 62 20 14 14 14 16 11 11 12 14 11 8 8 7 7 7 7 9 10 10 11 10 12 28
70 70 70 70 71 72 79 84 80 77 76 76 75 74 78 44 15 16 59 69 76 30 20 15 15 17 18 14 10 13 11 10 9 7 8 8 7 7 8 9 9 9 11 15 17
73 71 69 71 72 74 80 82 79 76 75 77 77 74 50 25 17 13 46 59 29 26 19 15 17 15 17 12 11 12 11 9 7 9 8 8 9 9 9 8 8 8 10 16 20
74 76 76 75 76 78 81 84 85 82 78 75 76 76 38 35 7 6 11 13 12 20 18 14 15 13 14 13 13 12 10 10 10 9 10 11 11 10 8 8 9 10 10 13 21
76 78 79 77 79 83 84 86 87 86 81 77 74 54 40 26 8 8 14 11 12 12 16 17 14 16 16 19 13 13 16 14 12 12 12 11 13 12 9 8 8 11 12 18 19
70 77 83 85 86 88 89 89 88 86 82 76 76 50 40 14 11 13 13 11 12 15 14 14 16 19 19 15 17 18 18 21 14 12 10 11 17 11 7 7 8 13 13 18 23
69 75 81 85 88 88 88 88 87 84 76 73 60 47 28 27 18 12 12 11 9 10 11 9 12 20 19 22 23 21 24 21 16 11 12 12 14 10 8 11 12 13 14 20 25
69 74 80 84 87 88 88 87 67 73 62 40 33 51 31 12 12 18 23 11 12 16 14 14 10 15 14 16 25 24 23 17 17 13 12 13 13 11 8 11 12 13 14 19 25
68 71 77 84 86 88 73 38 32 44 42 33 26 30 16 14 14 12 24 30 28 29 21 15 10 17 16 16 14 17 16 15 14 12 15 16 15 12 9 8 9 13 14 17 22
69 73 78 81 85 88 66 42 39 49 58 31 28 25 19 15 21 16 15 28 30 30 21 14 16 13 15 15 17 20 19 19 16 14 15 16 16 13 11 10 8 9 12 16 21
69 74 79 83 86 69 45 39 32 43 50 28 23 24 23 22 24 19 14 25 25 27 19 22 17 14 16 20 28 22 24 23 20 15 13 17 18 15 12 11 10 8 10 11 17
70 72 81 85 77 39 43 36 37 51 48 18 26 25 27 25 28 17 12 20 24 23 19 19 15 19 19 20 22 29 20 20 20 20 22 15 22 17 12 10 9 9 13 13 14
71 72 78 81 66 51 48 39 44 62 25 17 22 20 24 25 20 24 21 16 24 22 23 21 22 22 26 22 18 25 19 21 20 19 21 19 19 17 14 13 11 12 13 14 15
69 70 75 54 55 43 40 47 53 68 30 15 22 30 30 27 21 29 28 17 13 18 21 23 17 21 19 21 24 23 22 22 22 22 34 24 22 20 15 12 13 12 11 12 14
71 72 68 51 56 54 59 68 60 43 14 13 26 26 22 28 30 30 32 29 26 28 30 22 17 19 20 27 24 26 29 37 42 41 39 19 20 20 13 12 12 12 11 12 14
75 79 58 41 44 54 76 83 76 21 20 20 22 22 22 22 30 32 35 31 28 22 22 19 18 10 16 20 23 27 29 40 45 40 32 18 24 17 12 11 10 11 11 13 16
74 48 47 49 52 72 91 95 42 28 18 26 22 25 21 24 31 32 34 26 26 24 29 22 18 10 8 11 16 21 31 24 30 29 40 28 21 16 14 13 13 13 12 13 13
52 50 46 44 59 84 99 83 35 25 32 29 32 26 24 26 30 30 32 33 34 34 30 29 34 17 13 13 12 15 10 26 26 41 44 25 21 17 18 17 15 14 15 14 12
62 78 40 43 74 94 99 78 39 34 30 39 31 31 27 30 27 25 25 35 33 34 35 34 34 28 20 21 21 19 19 20 24 28 34 35 20 16 16 16 16 17 17 17 16
73 91 37 64 98 90 89 56 68 44 26 28 36 37 36 30 32 31 28 29 29 30 39 42 49 42 28 18 16 17 21 20 32 33 25 28 25 14 16 16 17 16 18 18 20
85 63 45 75 90 74 48 66 66 53 41 34 31 29 28 33 37 32 31 29 32 28 40 35 52 51 36 26 22 24 24 22 24 26 34 47 28 14 13 18 17 16 16 17 18
92 100 55 84 62 78 58 47 54 57 59 31 35 29 34 38 34 42 34 30 33 31 52 43 34 40 50 54 36 35 25 24 27 37 33 30 24 18 18 16 16 16 16 15 16
96 91 46 93 74 54 50 55 58 49 58 40 49 44 37 42 40 44 40 36 33 44 36 35 45 33 27 23 25 30 30 29 30 31 37 28 23 18 16 15 18 15 15 16 15
99 93 47 42 38 56 53 53 46 64 72 58 52 38 36 41 38 57 63 54 54 38 41 46 54 43 42 29 28 30 26 25 25 27 27 26 25 15 15 15 17 14 14 16 16
89 60 76 58 54 55 51 51 43 44 40 39 40 38 41 43 36 40 41 43 46 53 52 54 59 66 60 30 41 51 29 26 31 33 31 31 23 18 17 18 19 18 17 16 17

GFSSW_sfc_rhum_090.txt.gz
RH
73 72 72 72 74 76 76 76 78 77 75 74 73 75 75 79 76 30 18 20 31 59 53 24 21 20 16 15 12 10 15 15 13 12 10 6 7 7 8 9 9 9 12 22 36
69 68 68 70 72 73 75 77 81 79 77 76 77 80 81 80 50 29 29 62 62 63 14 13 18 18 19 14 13 13 16 15 11 9 10 8 7 7 8 10 10 11 12 18 34
66 67 69 69 70 73 77 80 80 75 74 77 78 80 82 70 36 18 64 68 72 62 14 10 13 17 19 14 13 13 16 13 11 9 9 8 8 6 8 10 10 11 10 13 30
65 66 64 66 70 72 78 82 79 76 76 75 73 76 80 50 22 26 67 70 74 40 23 16 14 19 19 19 14 14 11 11 11 10 9 9 8 8 8 9 8 8 12 13 14
72 70 68 69 71 76 82 84 82 80 79 78 75 75 58 28 25 11 64 62 28 25 21 20 18 18 20 17 16 15 12 11 10 10 9 8 10 9 10 9 10 8 9 11 15
76 76 72 71 72 76 83 86 87 87 82 80 77 74 54 42 11 7 6 9 11 17 21 18 15 14 17 16 17 14 12 11 10 10 10 11 10 11 11 11 9 8 9 9 10
74 76 74 71 74 80 83 86 88 87 84 80 78 58 51 36 10 11 12 12 9 11 13 16 14 17 17 20 15 15 18 15 13 12 12 12 14 14 11 10 11 10 9 10 11
70 75 77 79 83 86 86 86 86 85 83 81 77 58 51 18 13 12 10 11 10 10 14 12 14 18 20 18 18 18 19 22 15 14 13 14 19 14 11 11 10 10 9 12 13
69 75 78 82 84 87 87 87 85 82 81 78 67 56 36 22 20 14 13 13 11 10 12 13 14 22 22 26 28 24 28 24 20 15 14 14 16 12 10 10 9 9 10 13 17
68 70 76 81 85 87 87 86 71 69 60 44 40 49 38 21 9 11 15 18 13 11 11 13 14 16 17 23 33 28 25 22 22 17 14 14 15 12 11 11 12 13 13 14 19
68 69 72 79 83 86 74 49 30 42 52 42 34 33 20 13 13 12 11 22 12 12 16 13 16 16 13 16 18 20 20 22 20 16 15 16 16 13 12 12 12 14 14 14 17
70 69 71 77 81 85 69 61 35 40 54 33 29 28 22 16 20 16 11 28 31 33 28 21 19 12 9 12 16 17 20 22 21 18 16 16 17 14 13 13 12 11 11 14 15
68 68 72 78 82 69 54 45 27 38 56 31 23 22 19 17 21 18 14 14 23 29 27 28 20 12 12 10 14 20 25 24 30 25 18 19 19 17 14 13 12 12 11 9 15
71 70 74 79 75 50 46 40 34 48 65 21 24 20 18 20 26 16 15 14 17 26 24 25 16 14 17 18 13 22 19 26 33 39 46 20 28 20 15 14 13 13 14 12 12
72 69 72 72 62 57 51 44 37 67 53 18 21 17 20 23 19 19 14 15 19 25 23 25 20 18 20 18 18 21 20 28 41 44 34 26 26 21 16 16 14 13 13 13 17
69 70 71 52 54 45 38 44 65 78 45 11 21 24 26 25 20 25 27 21 15 18 18 20 16 18 16 17 17 19 22 28 32 38 55 34 26 23 20 17 14 11 12 15 16
71 68 66 42 55 57 73 72 79 58 11 10 19 19 24 25 24 20 32 30 22 26 26 18 20 18 19 26 22 22 31 44 61 66 60 26 25 25 18 15 13 13 13 16 17
76 77 60 43 40 53 78 92 91 30 23 11 17 20 26 17 25 24 28 27 22 19 18 23 27 19 18 23 26 26 34 41 56 72 73 40 38 21 14 13 12 11 14 16 16
72 55 53 49 50 56 92 93 50 34 24 22 18 21 22 16 23 27 31 28 22 22 30 27 21 11 11 13 20 27 36 26 39 40 57 42 37 24 16 13 14 13 13 17 18
54 56 56 46 58 78 99 83 43 28 35 41 39 22 22 18 26 26 28 23 37 28 28 30 39 20 12 9 12 20 23 39 37 51 45 30 28 29 23 17 15 16 17 18 16
55 75 42 45 74 90 94 63 42 28 37 54 34 59 42 54 24 25 40 68 30 31 31 38 35 31 18 16 18 16 18 23 21 25 37 47 38 30 36 28 19 19 20 22 22
58 92 40 56 95 85 82 48 45 34 36 62 52 41 64 46 38 28 25 36 28 29 36 47 51 53 29 17 15 16 20 20 34 33 33 38 37 18 22 20 20 19 20 22 22
74 54 50 74 88 66 46 42 37 40 43 45 56 26 32 33 36 27 28 30 31 30 42 38 43 56 38 26 22 25 22 20 22 26 35 52 38 17 22 22 21 22 21 21 23
93 96 52 84 60 62 54 45 41 31 49 59 52 39 29 28 28 34 31 28 33 32 49 43 39 42 53 62 43 48 37 21 25 39 35 33 27 21 21 26 28 30 22 20 20
92 91 52 86 73 53 48 44 62 47 31 43 78 57 38 33 29 31 29 31 37 51 41 37 46 37 29 23 23 24 25 31 31 27 36 32 27 21 20 19 19 20 20 19 17
99 85 49 52 60 55 49 46 40 40 54 62 51 47 36 54 39 38 48 50 52 42 39 41 65 44 44 31 28 29 24 23 26 26 25 24 26 19 18 16 17 18 18 15 17
72 51 70 63 54 54 61 51 35 33 35 49 70 49 45 40 33 41 49 54 57 50 52 54 60 63 64 39 35 51 35 25 22 23 25 40 39 32 29 21 18 18 20 19 19

GFSSW_sfc_rhum_093.txt.gz
RH
71 69 69 70 72 74 74 76 82 77 76 74 74 75 76 84 84 49 33 34 48 70 64 27 31 29 30 34 24 26 33 31 24 20 15 12 12 13 11 12 14 15 16 35 56
66 66 67 69 73 77 77 78 82 78 76 75 76 76 80 83 78 50 45 68 73 69 21 18 19 29 36 31 28 27 34 26 18 15 16 14 14 11 14 14 15 16 19 45 52
64 64 65 65 68 73 78 82 82 78 77 78 79 80 80 79 59 24 68 69 66 61 22 16 14 14 32 29 26 25 27 20 17 14 15 17 14 11 15 16 15 18 15 51 52
66 66 67 67 68 72 80 84 83 80 79 79 78 79 80 74 24 34 66 71 72 62 39 24 22 20 24 31 24 26 19 16 15 14 14 16 15 13 14 13 13 12 16 45 46
76 72 68 68 69 72 79 84 85 82 81 80 79 78 78 47 38 27 68 67 51 43 32 30 24 24 25 26 25 24 21 17 15 14 15 14 15 13 13 13 15 14 13 15 33
78 78 75 69 69 70 77 83 85 85 82 80 78 78 72 58 18 14 20 26 27 25 27 26 26 23 23 24 25 22 21 20 17 16 15 15 15 16 13 15 13 13 13 12 13
78 78 77 70 70 73 77 84 86 84 80 78 77 72 72 53 20 20 19 19 16 14 15 17 24 25 25 28 20 21 27 22 21 21 20 16 20 19 15 14 16 14 13 13 13
76 77 78 79 80 81 84 86 86 84 79 77 78 77 78 29 29 24 21 19 16 13 14 15 18 25 31 26 26 31 32 34 25 20 18 18 23 19 15 14 14 13 13 13 15
77 77 79 82 83 84 86 86 84 81 78 79 87 86 70 33 34 26 24 22 17 15 16 10 20 28 30 40 45 41 45 38 30 22 20 19 22 18 15 14 14 14 15 14 16
77 76 77 80 82 85 86 84 74 74 69 55 56 78 59 32 18 15 17 18 18 18 20 18 22 28 35 44 55 47 40 38 34 25 21 22 22 18 15 14 15 15 16 17 23
73 73 76 78 80 83 88 78 55 72 65 65 58 51 31 26 18 17 14 17 23 22 25 21 26 29 27 27 28 29 30 32 26 18 20 24 26 23 15 16 17 22 19 19 20
75 76 75 74 79 81 88 83 62 58 74 44 41 40 38 33 38 28 18 24 40 25 20 22 25 18 17 17 19 20 25 26 20 18 20 23 32 31 24 17 17 19 21 21 22
76 74 74 79 81 81 76 62 45 54 83 45 36 36 36 29 38 33 20 21 27 43 36 32 30 19 17 17 15 14 20 26 28 28 34 43 42 37 23 18 16 16 17 18 19
76 75 77 81 81 67 69 49 53 64 97 47 30 24 22 23 30 20 18 20 24 24 33 38 29 28 23 18 16 17 13 15 22 48 62 42 76 47 36 23 16 15 15 16 17
76 75 76 70 85 68 52 43 52 75 78 21 23 19 18 26 24 24 20 21 27 24 31 34 33 32 31 24 21 23 19 19 41 54 61 54 73 57 30 24 18 17 16 16 18
76 74 75 72 88 64 49 66 77 88 80 24 27 28 31 29 27 26 28 26 23 26 22 26 21 24 25 23 23 26 30 37 46 52 82 62 61 61 36 26 18 16 15 20 20
77 76 74 58 80 58 78 88 93 94 26 17 28 28 33 36 33 30 38 42 39 38 39 26 23 19 21 28 29 32 36 62 76 73 74 37 53 54 32 21 16 16 16 18 19
76 78 78 63 69 52 84 99 99 44 38 29 39 30 32 28 31 28 40 44 35 30 30 36 38 22 18 24 34 33 34 67 71 84 85 47 70 54 35 34 16 15 18 20 27
76 89 87 71 70 68 94 98 78 46 31 38 44 41 30 26 26 33 31 39 28 27 36 40 34 28 16 16 26 37 41 32 50 48 73 52 40 35 33 25 18 16 17 21 30
87 86 71 61 70 88 99 85 59 39 35 46 60 47 60 61 54 30 40 41 36 45 35 41 53 34 24 18 23 26 28 46 51 64 60 40 31 52 37 34 31 21 23 25 27
92 92 62 63 87 94 96 81 50 38 36 44 66 91 72 84 75 52 41 62 64 45 49 63 66 49 31 24 20 25 30 37 32 50 64 58 46 34 37 35 40 38 29 28 28
92 97 62 69 98 99 91 60 53 44 38 50 71 68 93 77 71 78 91 73 65 46 48 50 65 69 49 34 34 19 20 22 36 38 38 43 37 30 27 39 42 52 52 26 25
98 84 59 85 98 93 73 58 50 51 44 43 67 71 57 77 77 80 65 47 45 45 50 44 60 70 50 41 48 51 25 22 27 30 36 58 46 20 21 36 44 46 58 36 34
99 99 80 98 97 90 73 74 61 40 40 36 50 52 64 59 50 53 53 50 47 42 55 48 51 56 67 59 55 48 37 30 49 57 41 34 25 21 23 36 48 47 40 32 33
98 93 73 98 90 78 69 66 62 60 48 42 62 56 64 77 62 44 39 53 47 58 53 52 57 53 43 37 32 34 31 30 28 55 68 52 39 27 27 31 28 26 20 26 29
99 98 67 66 60 96 89 68 59 49 61 56 55 50 64 71 64 66 58 68 73 55 57 58 77 66 63 45 40 41 34 30 28 28 30 33 34 38 36 35 45 46 28 20 22
88 76 85 73 74 78 81 84 57 49 44 41 57 68 74 82 70 71 64 65 69 75 68 68 79 84 82 55 58 67 46 33 31 27 30 44 60 73 70 66 65 62 50 32 34

GFSSW_sfc_rhum_096.txt.gz
RH
69 68 68 69 70 72 74 76 80 79 78 77 77 77 78 84 82 60 44 34 55 68 73 37 39 37 37 44 37 30 43 42 34 27 22 17 17 13 13 14 15 14 24 35 64
66 66 65 67 73 76 76 76 81 80 79 78 79 79 83 84 82 65 48 60 73 73 35 30 24 34 42 41 39 38 46 36 26 22 20 18 21 17 15 15 15 16 47 63 67
66 66 66 66 68 70 75 79 81 79 79 79 79 80 83 81 72 33 62 64 75 71 25 22 19 18 40 40 38 34 36 28 25 21 20 20 20 17 17 16 16 17 34 68 66
67 66 66 66 67 69 76 81 78 77 77 78 78 78 82 78 13 33 70 73 72 49 34 30 26 25 24 36 34 41 29 24 22 20 19 18 19 17 17 14 13 14 23 64 65
79 74 70 67 66 68 75 80 78 77 78 77 76 77 86 63 42 24 70 70 62 54 41 34 29 24 27 27 28 34 29 25 22 20 18 17 18 17 16 15 16 15 31 61 61
80 81 77 72 69 69 74 78 81 80 78 77 75 77 86 73 21 19 20 19 39 40 35 33 29 24 28 29 29 26 26 26 24 23 21 20 20 22 16 18 15 15 15 42 55
79 80 80 74 71 72 74 78 80 81 78 77 75 75 75 68 25 27 27 24 20 19 19 20 26 34 31 32 26 25 29 26 28 26 25 21 24 22 17 18 18 17 15 14 16
78 79 81 81 79 81 81 81 81 80 76 76 74 86 83 42 42 37 33 26 22 20 17 16 17 25 32 29 30 36 38 44 29 26 23 24 28 22 18 19 20 18 16 16 16
79 80 81 81 83 83 82 82 81 78 73 73 81 88 84 44 47 36 31 28 21 18 21 13 22 28 32 40 48 46 44 43 39 26 27 26 29 22 18 20 21 19 16 16 15
76 79 80 80 82 82 83 83 73 76 73 63 66 90 62 41 29 22 29 26 25 24 20 23 23 31 42 50 48 48 51 55 45 34 27 29 28 25 24 26 27 25 18 17 19
73 78 78 80 78 79 85 76 69 64 71 80 71 66 43 31 30 26 23 24 25 23 25 24 27 35 33 37 39 42 42 44 40 27 26 26 23 22 29 31 29 26 19 19 19
74 76 76 74 77 80 88 87 66 59 75 50 48 54 50 45 54 42 29 29 40 35 27 29 29 22 23 25 27 28 30 33 27 23 22 24 30 32 33 30 29 29 22 22 26
76 75 75 78 80 87 88 64 47 51 77 54 43 44 43 39 50 39 32 27 31 43 27 29 24 18 21 22 23 22 24 24 25 23 31 43 34 28 25 33 30 26 23 19 22
74 79 78 80 68 78 67 45 46 71 81 45 44 37 34 34 43 27 24 24 29 32 45 45 29 20 27 21 20 25 18 17 17 23 32 45 44 32 29 30 30 29 24 20 22
77 76 77 69 86 77 50 49 60 74 37 22 30 22 29 33 30 28 23 27 28 30 29 37 46 44 43 39 23 23 20 20 18 46 62 63 72 40 49 42 35 29 22 18 20
75 75 75 78 92 72 58 65 81 80 56 31 32 33 34 31 32 31 28 27 26 34 30 32 25 28 31 26 27 28 31 35 50 60 79 65 60 36 53 41 34 26 21 19 22
77 74 76 70 87 66 76 94 92 91 37 39 42 38 40 40 35 35 40 39 38 46 43 34 29 24 22 29 27 33 41 59 76 80 74 48 62 44 39 35 34 32 25 24 21
77 78 81 74 85 77 87 94 97 52 49 40 45 41 43 38 40 38 48 48 43 33 37 43 45 26 23 25 32 39 44 66 66 76 65 56 71 64 41 35 31 32 28 26 24
76 92 96 86 83 75 98 99 84 58 42 49 45 54 52 46 57 42 43 45 40 38 43 44 37 25 20 19 24 35 45 40 55 64 72 63 51 37 36 47 46 41 36 25 24
94 96 94 72 84 92 100 83 72 50 46 49 61 73 79 77 66 67 45 44 37 33 30 47 56 39 34 21 26 33 33 52 56 68 69 52 44 42 47 59 52 51 47 44 42
90 97 74 70 88 93 98 81 58 41 41 63 75 72 61 75 76 78 78 64 74 59 44 62 68 53 42 32 29 34 37 45 48 64 68 71 51 58 72 66 67 48 43 44 42
93 99 69 81 97 99 98 73 58 52 48 50 66 67 72 99 93 78 82 83 78 81 66 61 74 73 54 44 44 41 34 46 72 62 62 66 50 46 59 69 58 53 47 47 44
95 98 73 90 98 98 86 72 60 57 55 52 61 64 74 95 98 88 94 68 74 83 71 54 63 72 55 58 62 72 57 40 49 41 44 63 47 26 32 43 51 61 57 50 43
100 99 89 98 99 98 81 70 72 55 54 48 47 45 57 76 74 76 86 67 59 74 71 52 54 61 67 62 61 70 74 41 53 84 70 58 38 34 44 42 57 68 56 48 35
100 94 88 98 98 88 83 93 78 69 55 62 60 52 54 74 71 75 84 85 77 75 58 57 61 65 60 48 43 40 55 45 42 49 72 65 59 47 56 53 59 56 52 42 35
98 99 85 78 67 78 79 84 72 63 59 81 68 62 60 74 69 81 82 69 64 68 63 64 77 72 68 52 51 54 46 42 37 34 36 40 48 74 65 62 64 73 66 41 45
98 91 89 78 78 82 90 72 80 75 72 60 58 60 72 67 81 75 82 67 68 75 73 72 82 86 85 68 62 68 53 42 39 80 68 64 88 73 76 70 81 85 72 62 66

GFSSW_sfc_rhum_099.txt.gz
RH
68 68 67 67 70 72 73 75 79 78 78 78 78 78 78 84 84 66 53 32 56 62 68 50 48 46 44 48 40 36 50 48 41 31 27 20 20 21 16 16 16 21 50 45 68
68 68 66 67 72 74 72 74 79 76 76 78 78 78 82 84 86 66 48 56 71 71 33 33 35 40 48 47 45 46 57 45 31 25 23 24 24 21 19 17 16 18 52 76 74
68 68 66 67 68 70 73 77 75 73 74 76 77 77 82 84 70 18 62 68 69 73 36 32 26 32 47 45 44 44 43 37 30 26 26 29 28 25 21 19 17 17 33 80 83
71 70 69 68 68 69 75 78 73 71 71 73 76 75 81 88 13 28 69 69 73 67 31 29 25 23 25 38 40 48 34 30 31 27 30 25 28 22 23 17 16 15 29 77 80
80 75 71 70 70 72 76 78 77 72 70 71 74 75 87 74 42 28 59 56 66 48 36 35 31 26 27 26 30 43 40 33 30 29 28 24 25 23 21 18 19 16 28 72 73
82 81 79 74 73 73 76 78 80 79 75 71 74 75 84 93 24 22 29 24 34 61 48 37 32 24 27 26 30 31 29 28 29 28 27 27 26 27 21 21 19 19 22 62 68
80 82 82 76 73 73 76 80 80 80 73 71 73 75 82 73 37 41 38 30 23 39 40 26 35 41 36 36 29 28 33 31 31 29 27 24 30 28 22 20 20 19 19 26 59
78 80 81 81 80 80 82 81 80 78 73 71 71 81 83 46 46 47 45 38 29 27 24 20 19 23 34 33 34 36 42 49 34 30 27 27 32 26 22 22 22 22 21 20 22
76 80 80 81 82 83 82 81 80 77 72 69 76 86 85 48 49 43 39 30 28 26 22 14 21 26 37 44 48 50 53 48 41 30 30 29 34 28 26 24 25 26 27 26 23
73 76 79 81 81 82 82 82 72 74 72 63 65 86 68 39 33 30 39 29 27 25 26 22 25 32 46 50 51 48 56 64 50 38 32 35 34 30 26 28 28 33 31 31 25
71 70 77 78 79 79 88 92 77 76 87 84 70 67 49 35 35 32 29 30 29 23 28 29 31 34 38 41 35 42 48 52 46 32 31 34 31 27 23 28 35 33 33 30 27
66 69 76 74 76 79 92 96 57 63 90 62 58 60 56 49 56 38 34 34 36 37 28 31 34 27 30 34 36 37 42 45 36 30 31 30 27 21 29 33 32 32 35 35 31
72 70 75 76 78 86 92 63 48 55 88 65 52 51 44 44 60 48 36 31 34 52 34 42 33 24 25 28 29 30 32 32 32 27 26 36 28 33 30 30 30 29 31 28 30
70 72 78 81 89 83 64 50 50 63 97 58 53 44 39 39 53 31 27 28 31 34 37 45 27 24 27 25 25 28 22 21 23 27 32 40 32 22 31 28 32 32 29 24 30
71 69 75 82 89 93 60 57 57 77 57 22 39 30 38 42 29 35 27 32 32 35 40 47 48 44 30 29 24 29 26 26 26 27 34 41 73 40 41 41 29 26 30 30 29
74 71 75 89 94 88 70 71 84 88 74 36 37 41 44 39 34 32 31 28 29 33 34 36 32 32 42 36 39 33 34 37 43 43 72 44 66 38 35 41 38 33 31 37 30
73 76 76 74 86 78 81 97 95 91 36 52 50 43 46 44 38 38 40 41 43 45 48 34 28 31 27 34 32 36 44 64 76 88 67 55 66 40 38 34 39 46 52 44 37
75 79 79 78 89 86 92 89 85 52 56 42 43 47 63 60 52 45 52 49 45 36 42 50 43 32 28 28 34 39 43 65 63 71 53 55 71 50 48 48 50 51 50 43 42
77 94 96 87 88 91 97 97 85 73 48 55 54 72 69 60 64 65 54 55 44 37 42 47 43 28 24 24 24 36 47 38 51 68 76 71 58 40 49 66 64 62 57 54 47
98 93 96 80 88 96 99 92 76 48 48 57 78 69 73 64 77 72 77 77 79 67 44 42 55 40 38 25 27 28 30 52 62 68 65 57 56 53 72 78 69 68 70 58 47
96 96 70 81 90 95 98 88 65 46 51 64 67 77 68 84 92 79 83 76 75 82 80 54 64 48 44 38 32 38 44 47 46 65 57 63 59 75 74 69 75 79 75 61 52
94 99 60 88 96 97 98 78 61 60 52 55 70 71 90 83 84 81 96 95 66 78 93 67 82 71 46 60 60 36 45 52 65 62 70 70 58 48 54 64 68 72 78 60 53
96 88 80 91 99 80 86 80 66 63 63 60 63 66 79 88 81 89 82 63 67 64 95 86 87 80 66 70 58 73 64 49 60 57 63 70 64 42 40 50 61 80 82 67 58
99 97 84 97 97 96 88 82 75 60 66 59 57 54 60 78 73 86 85 78 72 72 71 87 89 89 71 67 59 70 66 67 62 81 77 68 56 49 61 59 66 70 74 77 53
99 97 88 98 93 95 91 81 76 71 57 67 73 61 62 75 74 79 78 93 70 70 78 86 94 83 65 53 49 53 52 62 50 53 66 62 54 63 76 73 66 63 65 68 60
99 98 90 90 75 84 72 76 70 81 68 64 80 70 73 95 69 77 72 95 83 63 92 78 94 77 72 61 57 60 51 48 48 44 46 55 52 74 70 69 82 84 70 68 83
94 94 94 82 85 84 87 69 73 64 66 71 76 83 87 66 65 63 66 71 76 85 76 72 82 85 79 74 64 69 60 52 84 84 83 78 86 76 78 81 92 91 91 88 86

GFSSW_sfc_rhum_102.txt.gz
RH
71 69 69 68 69 70 71 72 75 72 72 73 74 75 75 79 83 78 70 39 64 61 65 57 52 50 46 47 45 42 49 57 40 36 29 24 27 25 22 20 18 22 42 56 84
69 68 67 67 71 73 73 75 77 72 70 71 72 74 77 82 89 79 49 59 66 70 49 48 48 45 49 50 50 46 57 41 32 30 27 28 30 30 25 24 22 23 50 84 86
73 72 69 68 68 70 75 78 78 72 70 69 71 72 80 83 67 17 71 70 68 73 39 34 34 40 47 52 52 51 48 42 35 29 29 35 32 27 36 27 24 22 25 87 90
74 74 74 70 69 70 77 80 75 71 71 70 69 71 79 90 13 39 67 72 66 72 45 30 30 28 30 46 46 52 43 35 36 32 38 34 35 27 27 22 21 19 24 81 89
78 75 74 74 73 73 78 79 77 73 71 71 70 70 84 86 60 26 46 36 67 54 38 33 29 27 28 25 28 46 46 37 34 32 32 29 32 31 28 23 23 22 24 51 80
80 80 77 74 72 74 78 79 80 78 72 71 70 70 84 95 33 24 38 33 33 60 51 36 30 27 29 27 30 30 29 26 32 32 34 32 30 36 30 26 23 22 22 26 73
76 80 80 76 73 74 75 80 80 80 72 70 69 70 77 76 39 32 34 40 26 33 54 43 35 42 34 38 31 32 31 33 37 35 35 33 35 33 26 25 25 23 22 23 51
75 77 82 81 80 80 81 80 81 79 73 69 68 76 82 43 45 49 49 50 35 30 26 25 26 36 36 31 34 44 45 53 38 33 30 27 35 32 26 27 26 24 24 25 25
74 74 78 81 80 80 82 81 80 76 72 69 72 86 81 49 55 48 49 43 29 32 28 18 23 27 40 37 49 52 58 56 46 34 31 33 35 32 30 28 28 28 28 29 31
71 69 75 78 80 80 82 81 72 69 70 63 63 80 64 32 37 34 46 37 29 31 29 27 28 34 48 54 50 53 59 66 53 44 39 40 38 36 29 28 27 27 30 33 32
72 72 72 77 79 80 88 88 68 85 74 81 75 75 48 47 39 40 35 35 30 26 30 29 31 38 42 44 40 45 48 54 52 38 38 38 36 35 29 27 27 33 33 32 33
70 71 72 72 77 79 92 92 65 71 95 70 70 66 59 57 71 46 37 38 36 35 27 31 37 26 28 40 44 44 50 53 42 34 37 39 34 30 26 24 26 25 34 36 35
71 70 70 73 77 85 92 82 51 66 95 70 66 62 57 53 66 49 41 35 38 39 32 37 32 26 29 37 40 42 45 42 41 30 28 32 24 22 25 31 32 33 34 35 34
72 72 75 76 82 93 84 59 74 87 95 69 64 58 46 46 62 40 34 30 33 46 44 38 31 28 29 30 32 39 30 30 30 29 32 36 34 27 24 25 30 29 35 33 33
72 71 75 72 94 94 75 70 86 98 93 29 51 35 42 42 38 40 31 34 37 35 39 48 46 40 36 29 26 30 27 29 29 33 35 51 44 41 32 30 27 27 29 38 49
71 72 74 89 98 86 83 83 92 96 78 49 43 47 54 47 40 34 34 32 29 31 34 37 32 38 40 32 27 30 36 38 45 43 63 42 38 44 37 34 38 39 45 56 54
71 73 78 85 93 83 90 96 98 87 41 61 50 45 52 59 42 41 38 42 43 38 38 31 25 32 28 35 37 37 46 63 78 82 61 44 54 36 37 41 53 61 64 63 58
74 80 87 78 89 88 94 99 94 68 62 43 50 60 69 63 64 64 47 48 42 38 46 44 39 29 28 30 34 42 44 65 66 71 63 63 73 56 55 67 66 67 64 63 58
77 96 97 88 88 93 95 96 90 91 54 59 61 66 69 60 70 72 70 90 84 78 52 50 43 31 29 28 26 42 51 39 52 61 71 60 61 43 64 70 71 73 67 68 59
98 89 95 84 91 94 97 85 82 79 53 60 78 72 80 84 83 82 89 81 81 77 83 49 49 40 42 27 30 30 35 54 68 70 63 61 64 57 64 65 75 80 81 78 63
95 96 73 92 92 91 98 87 72 47 52 65 70 77 79 75 79 87 95 82 74 74 78 78 63 51 38 43 39 41 43 47 48 64 60 56 55 57 67 66 77 84 84 84 71
91 99 68 83 98 97 99 73 60 63 55 61 71 76 86 88 85 83 82 75 67 67 89 88 89 79 52 46 60 40 50 46 62 61 72 65 49 61 61 71 78 89 77 74 75
97 82 82 92 99 93 61 88 72 70 68 66 69 64 77 91 82 83 86 74 71 85 86 85 91 87 66 66 60 70 69 60 62 64 64 78 63 46 59 64 78 86 74 76 78
98 97 86 96 91 96 94 79 85 68 69 67 65 61 64 81 79 80 85 79 83 82 84 77 89 91 84 83 70 75 67 71 66 72 64 66 65 60 82 83 74 76 75 81 85
99 96 88 99 95 87 92 86 85 80 61 66 70 78 90 90 76 90 87 82 82 78 90 88 98 93 86 92 76 63 74 66 65 59 66 60 64 86 87 85 87 84 65 81 82
99 98 91 97 81 84 77 80 85 71 77 79 82 78 87 96 81 94 75 90 96 89 89 88 97 99 91 76 66 64 69 70 64 63 59 54 63 81 78 82 89 89 86 88 88
93 91 93 79 88 88 90 74 77 67 62 72 71 82 87 78 74 70 71 68 76 83 89 92 87 93 80 76 71 72 61 65 90 93 88 78 88 81 79 88 93 90 89 90 90

GFSSW_sfc_rhum_105.txt.gz
RH
72 70 69 68 69 70 71 72 74 72 71 70 69 69 70 76 80 67 56 30 56 63 65 50 46 40 32 31 30 28 27 27 20 21 15 17 17 17 16 16 16 14 19 36 67
72 71 70 71 71 73 72 73 77 73 70 70 70 70 73 79 76 67 48 58 64 66 51 43 44 40 35 34 32 27 27 21 22 19 19 19 19 18 17 18 17 16 26 60 71
73 73 71 71 71 72 74 78 77 72 70 70 69 70 75 73 61 17 72 70 73 65 34 38 37 34 36 39 38 33 27 26 23 20 20 19 20 19 19 19 19 18 17 50 65
73 73 75 71 68 70 77 81 76 72 71 70 70 69 74 74 11 36 54 66 68 60 48 32 39 39 36 38 38 38 36 25 25 24 23 24 23 22 21 19 17 16 20 34 54
71 74 75 74 72 71 77 80 77 74 72 70 69 69 64 80 62 27 48 41 54 60 39 30 32 30 30 27 32 41 33 32 28 26 26 26 26 25 23 19 19 20 22 21 36
72 73 75 75 74 74 75 79 81 78 73 69 68 68 77 86 35 32 33 32 23 48 36 30 26 24 24 22 21 20 24 22 23 26 28 28 27 27 24 23 23 22 18 17 21
74 75 75 74 73 73 73 78 82 80 74 70 68 64 76 72 39 34 30 31 32 29 43 38 28 24 25 26 24 25 27 24 22 23 25 28 29 29 21 22 22 20 19 19 18
72 72 74 75 76 77 78 79 82 78 76 71 67 68 76 42 40 46 44 47 42 40 31 24 22 35 34 27 24 33 36 33 27 27 25 22 26 24 21 22 22 21 20 20 20
71 71 74 78 80 81 83 82 78 76 74 72 74 76 70 46 52 43 45 46 33 38 29 17 24 25 27 31 34 38 36 44 34 29 25 26 23 22 23 24 23 22 21 20 21
69 69 70 75 78 80 83 80 68 71 65 64 58 78 58 30 38 39 44 46 35 33 27 27 28 32 31 28 30 32 44 39 34 29 31 30 31 26 23 23 23 21 20 19 19
69 70 70 71 71 76 81 72 58 59 68 83 75 68 56 48 43 42 40 42 34 26 27 30 37 37 31 31 26 33 32 32 37 31 31 32 29 27 24 24 24 22 20 18 21
70 71 71 71 71 73 83 80 69 92 96 67 64 61 52 47 64 46 36 43 36 38 28 33 48 32 25 34 32 33 34 36 36 31 31 28 28 21 19 18 16 16 16 18 23
71 71 71 73 72 79 84 76 66 78 99 65 52 66 58 52 60 50 43 36 35 36 36 42 24 25 25 29 37 37 39 38 36 28 21 23 18 12 15 16 16 18 20 25 27
71 71 72 77 80 88 81 66 72 81 94 52 70 58 52 50 66 38 28 27 36 38 38 35 25 29 32 28 29 33 32 33 35 32 31 22 18 18 17 18 20 20 23 27 41
70 71 72 76 92 90 75 74 76 87 85 35 54 36 43 44 36 47 35 35 32 41 40 45 46 37 33 28 30 30 31 30 30 28 25 24 29 25 24 21 21 23 37 48 47
71 72 72 89 94 83 75 82 92 92 80 60 59 53 53 46 40 34 35 27 27 31 30 36 27 35 35 28 25 24 28 31 34 32 45 33 30 28 23 23 30 46 49 51 50
72 74 76 86 88 84 84 91 84 86 48 62 82 95 69 60 51 40 38 37 32 40 38 28 28 27 27 33 27 31 39 49 64 54 47 34 33 27 28 39 50 51 47 49 49
74 78 83 78 85 82 90 94 89 92 64 45 69 92 88 67 60 59 38 44 73 51 27 27 26 22 25 30 34 35 37 41 47 60 44 43 40 30 36 53 52 49 48 50 51
80 88 86 82 85 86 91 91 79 92 71 59 47 81 76 75 68 73 80 83 78 80 47 41 34 23 26 21 26 37 40 35 44 48 51 39 42 36 59 59 57 54 55 54 54
94 90 80 86 87 89 93 80 72 68 52 52 60 59 80 67 75 90 88 93 90 65 74 53 45 36 33 23 25 31 32 43 48 53 49 40 42 35 51 45 54 49 55 54 55
90 85 71 87 87 90 95 79 68 50 49 56 62 71 72 74 74 91 83 74 68 77 67 73 55 44 35 35 32 31 31 38 39 46 38 43 34 36 46 44 48 56 62 60 63
90 91 67 85 94 92 88 68 68 54 54 58 59 69 68 78 74 70 80 75 66 76 88 82 79 65 45 37 46 33 35 32 39 48 47 40 34 46 50 48 58 61 66 64 64
96 82 74 88 95 88 69 72 74 72 66 70 65 60 56 71 76 74 72 68 76 74 86 76 84 73 59 63 47 57 53 41 48 47 41 49 40 50 59 61 63 64 62 72 66
96 97 75 93 87 88 87 74 78 66 66 66 69 65 75 66 70 75 75 70 74 74 84 72 80 82 59 69 71 63 55 55 52 54 46 43 40 54 64 70 73 74 65 72 72
95 93 80 94 90 79 80 82 84 81 63 63 66 66 79 85 73 74 75 66 61 77 91 87 92 82 74 75 75 64 56 55 52 48 50 48 51 44 67 75 81 74 74 77 79
99 95 84 88 80 82 72 68 85 66 64 77 64 64 69 84 87 86 71 69 74 71 79 94 92 92 82 71 66 56 51 60 59 54 56 53 51 71 68 76 78 84 83 86 86
90 84 84 76 76 80 78 72 68 62 54 57 66 69 71 70 78 75 70 66 62 71 83 97 88 81 66 70 60 52 52 54 63 76 75 63 72 70 77 91 92 89 86 89 86

GFSSW_sfc_rhum_108.txt.gz
RH
72 70 69 70 72 72 72 73 75 74 71 70 70 70 70 73 74 31 21 23 30 61 58 22 27 22 19 16 16 13 16 15 13 12 10 10 11 11 11 11 11 11 12 18 34
68 70 70 70 70 71 72 72 75 74 71 71 70 70 72 77 45 25 28 54 65 62 19 22 18 20 21 19 17 17 17 16 11 11 12 10 10 10 11 10 11 12 14 22 33
68 69 70 71 69 69 70 74 75 72 71 70 70 69 75 59 25 7 63 68 69 65 20 18 12 18 21 18 19 19 18 14 13 11 10 10 10 10 11 9 10 12 12 13 21
68 70 70 70 70 71 74 79 74 72 72 71 69 68 72 42 10 19 48 46 57 29 25 18 21 24 20 21 18 23 16 16 14 13 12 13 10 11 11 11 9 10 13 14 15
72 73 73 72 72 72 74 79 75 72 72 72 70 68 51 44 32 10 50 34 16 25 21 18 18 18 18 14 16 21 20 16 17 15 14 14 15 15 14 12 13 12 14 15 15
73 73 72 72 71 72 72 75 78 74 74 74 71 69 51 64 21 18 19 20 16 28 16 17 17 15 15 15 16 15 17 18 17 18 17 20 17 17 16 16 16 15 14 12 13
70 71 72 71 71 72 72 74 78 78 75 73 72 54 56 54 25 18 21 18 19 22 26 18 17 19 17 19 15 16 18 16 15 16 16 15 17 16 12 12 14 13 12 12 13
70 70 72 73 74 74 75 77 77 74 72 71 69 55 66 32 23 25 22 23 21 20 21 22 23 26 21 18 19 19 19 21 14 14 15 17 21 15 14 15 16 15 14 15 14
68 68 70 75 76 78 79 78 78 70 68 70 60 63 47 33 37 26 23 22 18 20 19 15 18 24 23 27 23 22 22 22 20 17 17 17 19 14 12 14 16 16 15 14 14
66 69 70 71 75 77 79 79 68 65 47 47 54 88 54 32 27 31 28 26 30 26 25 21 17 18 24 22 27 24 25 24 26 20 21 21 20 16 16 17 18 17 16 15 15
68 69 70 70 71 76 63 34 36 37 48 47 33 62 43 31 29 31 29 38 33 27 15 16 20 23 17 22 20 19 18 19 16 18 22 22 19 16 15 18 18 17 16 15 15
69 70 69 70 72 73 52 48 71 71 93 39 39 40 34 27 35 32 28 40 36 30 13 18 23 14 14 17 25 29 35 22 16 22 25 20 18 15 15 15 15 13 11 10 11
69 70 70 72 74 61 52 53 45 56 67 36 27 35 33 33 36 33 28 34 31 24 18 22 14 14 18 22 27 32 36 34 21 17 20 20 17 14 11 9 8 8 10 9 12
69 70 71 74 69 54 48 45 47 62 82 28 49 49 51 38 48 25 23 31 30 27 20 19 18 17 24 26 26 27 20 20 26 40 24 13 15 12 11 12 11 12 14 16 22
68 71 72 78 64 56 47 49 53 73 54 35 74 54 64 48 29 25 21 24 31 28 29 29 21 27 26 23 21 24 17 23 25 25 24 15 16 11 15 13 13 14 18 27 30
69 72 72 58 59 50 50 57 66 85 62 49 49 79 94 46 36 34 31 23 18 24 26 24 26 20 20 24 22 22 26 24 23 23 28 18 14 12 14 14 16 23 30 33 33
72 74 67 53 55 55 59 61 77 56 37 45 45 84 88 68 40 32 37 31 22 31 30 22 27 26 28 30 30 22 28 41 47 42 31 21 21 16 17 19 20 27 28 30 30
74 77 63 49 52 63 61 77 66 58 50 33 38 64 96 83 65 32 27 34 36 24 16 27 31 24 25 28 29 28 29 29 44 39 31 28 32 20 16 22 30 27 27 29 30
76 52 52 58 64 61 57 64 56 62 35 37 33 60 71 59 95 66 70 71 58 56 30 24 20 18 17 20 21 31 36 23 36 34 39 26 26 31 32 34 34 30 29 29 30
55 50 55 68 70 56 64 58 46 40 35 33 45 50 87 71 86 95 76 81 73 59 54 40 33 18 19 17 16 21 20 38 31 35 31 18 22 20 38 35 34 31 28 33 34
54 43 51 59 69 47 74 40 40 33 42 49 48 54 53 52 57 95 94 87 77 65 53 54 38 39 28 27 22 24 31 30 26 28 26 26 24 24 24 29 32 30 34 39 44
58 74 51 61 71 78 60 53 59 46 41 50 48 44 50 56 54 54 64 71 62 86 92 66 66 42 35 39 22 16 21 25 33 33 31 28 24 30 35 34 35 38 43 44 47
57 44 48 71 80 55 48 51 56 53 48 54 55 50 48 55 60 51 49 50 51 65 93 77 66 44 42 46 38 36 29 22 27 30 34 42 35 34 38 39 44 47 44 46 51
78 92 45 57 57 63 57 56 57 49 54 47 53 45 52 50 44 55 54 47 46 63 88 70 62 67 49 47 43 49 39 34 34 39 30 28 26 34 36 41 47 52 64 69 64
78 82 57 79 61 50 52 54 56 58 44 46 48 44 54 68 54 52 51 50 44 72 83 84 71 62 50 50 53 45 41 36 34 34 40 28 31 33 46 49 62 66 66 67 68
97 79 53 44 52 59 50 46 53 52 44 46 57 50 46 62 65 64 54 53 54 57 64 91 73 74 60 45 52 50 38 36 33 35 36 34 34 46 56 65 71 70 70 73 75
52 54 53 54 50 51 46 46 50 46 38 40 46 49 52 48 47 50 52 54 53 59 73 85 77 64 54 46 48 51 42 35 36 42 46 46 54 54 61 78 84 77 75 78 79

GFSSW_sfc_rhum_111.txt.gz
RH
68 69 69 69 70 69 70 71 72 73 72 70 70 70 70 73 73 26 15 19 25 57 46 9 13 16 13 15 13 12 17 17 14 12 10 6 8 7 6 5 7 7 8 14 20
65 66 67 69 70 70 70 72 74 73 72 71 71 70 72 76 42 19 34 64 67 62 22 10 12 12 14 16 14 15 19 18 12 10 10 8 8 7 8 7 8 10 11 14 18
65 66 67 67 68 69 71 74 75 74 72 71 71 70 75 61 25 12 56 51 59 62 33 14 10 11 14 14 16 16 20 15 12 10 9 9 8 8 8 9 8 10 10 12 14
70 70 69 69 70 71 72 74 73 71 69 70 70 70 73 42 11 16 46 38 36 27 24 18 15 14 14 17 13 18 16 15 14 12 11 11 10 10 9 10 7 6 8 10 11
72 71 70 70 69 70 72 72 72 72 71 71 70 71 54 33 24 10 53 38 14 13 16 18 17 17 16 15 14 16 16 15 14 13 13 12 13 12 11 9 9 8 8 10 12
69 70 71 71 71 72 72 74 76 74 73 72 70 71 49 46 14 13 11 11 12 9 8 11 13 13 15 16 16 14 15 14 15 15 14 16 15 14 12 12 11 11 11 10 11
69 69 70 70 71 71 71 73 78 76 71 69 67 49 46 38 16 14 13 13 11 11 13 13 9 13 14 16 13 13 15 14 14 14 16 15 18 16 13 12 14 14 13 12 10
67 68 70 72 72 73 73 77 80 74 72 71 68 46 49 22 19 20 17 16 12 11 12 13 13 15 16 15 15 16 17 19 14 13 14 15 20 14 11 12 13 12 12 12 11
66 68 70 72 74 78 79 79 79 72 68 66 51 45 44 26 22 20 20 20 13 12 13 12 15 23 18 21 22 21 22 21 18 12 12 14 18 13 11 12 14 14 13 12 12
67 68 70 71 75 77 79 81 60 62 43 24 30 48 28 26 17 19 20 22 21 16 18 18 15 17 17 19 28 25 24 19 18 13 13 15 17 14 12 12 13 13 14 13 13
68 69 70 70 72 77 64 28 25 25 29 33 25 28 25 18 18 18 15 27 33 19 22 20 16 17 15 18 18 20 22 21 18 14 19 21 19 15 14 14 15 15 15 15 14
68 69 70 71 72 74 58 36 40 53 87 36 27 22 26 37 43 25 22 38 58 38 22 18 18 12 12 12 18 21 24 28 19 16 18 18 19 15 14 13 13 14 15 14 13
68 69 70 72 73 65 40 37 29 47 60 32 26 31 42 48 56 30 24 30 60 48 27 19 13 9 12 13 15 20 24 27 22 19 22 18 20 16 12 11 11 12 12 11 10
67 68 72 76 72 36 33 32 34 46 70 28 29 40 39 52 68 25 19 29 53 76 24 15 9 10 12 14 14 20 19 23 26 31 42 27 32 18 14 10 10 10 10 9 9
68 69 73 72 52 38 35 36 40 65 48 23 25 25 30 52 42 24 18 26 40 58 43 20 14 14 16 14 16 20 21 27 28 29 28 22 28 19 10 10 10 10 10 12 15
69 72 73 48 48 36 38 44 54 94 48 26 21 28 42 63 48 30 20 20 26 36 56 18 13 16 15 13 16 18 22 23 23 26 33 23 19 17 13 13 9 9 14 19 22
70 74 67 40 44 42 48 44 84 57 25 28 26 32 46 64 81 28 23 24 29 33 60 34 40 15 15 22 20 23 33 51 53 45 40 19 19 16 11 12 12 17 20 23 23
73 79 64 36 41 51 45 68 72 38 32 23 23 32 71 75 57 64 27 18 18 16 21 26 38 29 22 19 26 26 27 54 59 52 37 18 26 16 11 12 15 18 20 22 23
76 47 42 51 52 47 43 68 39 44 27 30 23 36 41 33 81 93 53 65 38 28 41 26 25 16 23 19 19 26 26 21 35 36 45 29 20 21 14 16 22 21 19 20 21
44 37 40 50 54 49 58 49 25 24 28 29 32 32 49 39 59 98 80 74 83 60 45 38 28 15 15 18 17 20 17 30 30 38 34 20 24 23 23 24 24 22 23 22 24
52 38 43 45 53 40 82 36 32 26 30 38 38 43 35 42 44 94 93 70 66 70 53 47 42 22 16 20 18 18 23 23 20 22 28 31 27 25 26 25 27 24 23 25 29
46 68 41 46 62 64 51 40 48 33 29 36 43 38 45 45 41 52 59 58 56 85 87 65 66 38 28 18 14 11 19 21 27 26 23 30 53 20 24 23 24 25 27 29 34
36 32 39 53 75 37 35 35 38 40 37 40 45 37 34 47 56 38 42 41 39 68 94 81 58 80 73 35 18 16 15 20 24 24 35 40 25 23 26 28 29 36 54 51 51
63 93 36 34 39 49 44 41 40 35 38 35 38 31 35 43 36 47 39 34 38 53 72 76 71 79 80 83 35 37 21 16 21 32 27 26 59 46 30 29 52 56 58 53 53
68 73 39 72 52 40 40 39 38 43 32 31 37 38 39 46 41 40 35 34 32 56 52 64 71 52 52 50 39 49 43 27 26 28 35 34 37 46 57 56 60 62 57 57 59
97 73 40 35 38 43 46 35 38 40 36 36 41 39 38 42 41 46 41 42 45 40 52 56 79 51 44 31 33 36 28 26 23 21 22 21 22 40 50 52 61 64 62 64 67
45 42 46 48 39 41 37 35 37 36 33 31 36 42 45 38 37 38 38 42 42 48 58 67 73 61 48 34 34 43 32 28 25 23 27 36 47 44 65 66 74 71 74 74 72

GFSSW_sfc_rhum_114.txt.gz
RH
66 66 68 68 70 69 70 71 73 73 73 72 71 71 71 77 75 34 23 22 25 56 45 11 8 11 13 19 17 15 23 23 18 15 13 9 8 7 6 6 5 6 8 18 21
63 64 65 66 68 69 71 73 75 74 72 71 71 71 76 79 54 28 39 69 65 60 15 13 10 8 15 17 18 19 24 22 15 13 13 10 9 8 8 7 7 7 9 14 19
65 65 66 67 69 71 72 73 73 71 69 69 69 70 77 66 35 23 55 52 54 48 30 19 14 10 13 14 16 18 23 18 15 12 11 11 10 8 8 9 9 10 10 12 15
69 69 69 69 68 69 70 72 72 71 70 70 69 69 75 54 15 20 50 45 39 21 20 28 23 20 14 16 14 19 17 16 15 13 13 12 10 10 10 10 8 7 10 11 14
69 69 69 69 69 70 71 72 72 72 71 70 69 68 55 35 25 12 56 46 18 12 14 17 21 19 19 15 14 16 16 15 14 14 14 13 14 13 12 11 10 8 9 12 14
68 69 69 68 68 70 70 71 72 71 71 71 69 68 52 50 15 12 12 11 10 10 10 10 11 13 18 18 18 14 14 15 14 14 14 16 15 14 13 13 12 12 11 10 12
66 67 69 70 70 71 71 72 75 72 71 70 69 52 48 40 19 17 16 16 14 13 12 11 8 10 13 18 15 16 19 17 15 14 16 15 18 18 14 13 13 13 13 12 12
65 67 70 72 73 72 72 77 79 73 72 72 69 52 53 23 20 17 17 19 17 15 16 11 11 10 14 12 16 18 19 24 17 14 14 15 24 17 14 14 15 14 14 14 14
66 68 70 72 74 76 79 79 80 75 72 71 53 51 46 28 16 11 10 16 20 19 16 12 12 19 18 17 20 22 25 24 20 14 14 16 20 16 14 14 15 14 14 14 15
67 69 70 72 76 78 79 82 65 67 49 29 25 36 24 20 18 19 16 17 18 20 30 26 18 19 21 22 32 28 27 23 22 16 15 16 17 14 13 12 15 14 15 14 14
67 68 69 70 70 76 67 31 29 33 32 33 27 27 24 19 23 24 23 25 23 21 29 47 27 26 22 26 23 22 21 23 20 16 18 19 17 14 12 14 15 15 15 16 17
67 68 69 71 72 75 60 35 37 45 69 37 32 28 23 22 31 26 25 38 34 36 25 72 60 20 18 15 20 20 21 22 19 17 26 28 30 18 15 16 15 15 16 16 16
66 67 69 74 75 65 39 34 26 35 65 37 21 22 28 24 27 29 28 33 34 38 41 87 49 18 19 14 15 18 21 23 23 31 43 32 36 21 16 15 14 14 15 15 17
68 68 71 77 73 38 34 28 32 42 82 25 20 20 20 19 31 24 26 24 47 59 72 80 55 22 19 17 11 19 15 18 22 35 70 33 39 23 18 17 14 13 14 17 16
68 70 73 73 59 41 33 34 38 55 55 20 17 11 14 26 32 35 31 32 48 69 64 83 68 27 18 14 10 15 14 18 22 33 47 40 38 28 22 24 22 14 13 14 16
69 70 73 49 59 43 36 44 52 95 54 20 18 18 22 29 38 40 42 35 23 54 61 68 42 36 15 10 9 12 20 24 28 35 54 39 36 31 25 24 22 14 11 15 22
72 72 68 41 46 40 48 52 87 61 19 22 22 21 24 35 40 40 44 32 24 45 63 38 39 33 20 15 12 20 28 49 63 56 57 31 35 30 17 14 16 14 13 26 27
74 77 63 37 40 49 51 67 70 33 25 18 19 20 32 35 40 50 60 31 16 23 35 30 84 52 28 19 17 26 29 52 55 56 43 26 34 24 16 12 12 18 25 26 27
76 54 55 50 50 50 59 69 35 30 20 25 23 27 30 27 70 80 99 67 55 57 71 64 42 44 34 18 20 28 36 30 42 50 56 30 25 18 14 18 20 24 26 28 26
57 42 39 41 47 62 67 50 23 18 24 26 31 34 41 35 43 100 77 77 60 54 54 63 81 40 45 20 19 24 25 44 41 53 60 72 30 37 22 26 28 32 24 24 24
65 47 47 39 53 68 85 36 30 23 25 30 34 38 39 38 41 65 63 55 48 62 54 54 61 51 24 48 36 32 29 29 29 33 39 53 62 37 27 32 54 25 28 45 46
52 68 41 41 79 63 53 33 43 27 24 28 31 32 36 38 54 36 43 38 33 66 70 60 77 71 32 15 14 18 24 26 40 37 29 37 44 41 38 26 27 57 49 56 50
44 34 40 51 84 40 30 29 28 29 30 32 35 31 31 35 52 61 36 29 33 45 69 65 83 90 58 39 16 17 14 17 25 28 40 52 34 51 48 62 51 57 55 52 53
65 97 41 36 34 42 38 35 33 29 30 27 30 39 35 36 31 70 40 29 33 40 68 66 68 95 98 98 69 39 14 13 19 37 32 43 46 44 66 67 61 61 56 57 58
73 78 38 72 51 38 36 35 33 34 27 26 33 37 36 46 42 41 34 34 32 47 43 54 76 73 57 46 84 86 65 33 18 24 32 60 56 68 79 85 64 58 57 60 61
96 78 38 36 35 38 44 32 32 31 33 34 36 35 37 43 43 48 42 42 45 36 40 48 78 65 49 27 44 72 68 62 65 49 38 38 45 80 72 59 64 64 65 66 64
50 39 44 50 39 40 40 31 30 29 28 26 31 36 41 37 40 40 39 40 42 50 46 57 78 69 50 34 31 38 32 30 24 23 30 49 70 71 65 71 74 71 69 70 69

GFSSW_sfc_rhum_120.txt.gz
RH
64 65 65 66 69 70 72 74 74 72 70 69 70 71 70 75 77 61 53 42 54 60 52 21 18 19 17 31 29 35 56 55 52 44 34 23 23 21 14 11 9 12 13 28 42
62 62 65 67 70 72 71 71 73 72 71 71 71 71 73 78 76 64 49 65 63 63 27 28 24 19 22 20 28 36 51 49 37 32 30 25 23 21 18 16 12 37 38 33 49
65 67 68 70 68 69 70 73 74 71 71 71 70 70 76 76 73 37 52 58 50 40 27 29 34 45 24 22 21 30 36 34 31 30 27 26 25 21 23 20 15 25 40 42 49
69 70 69 68 68 69 70 72 72 72 71 70 69 70 73 77 17 38 59 54 57 45 27 24 29 52 38 33 23 22 16 19 24 24 27 28 26 24 25 20 16 17 35 41 46
69 70 70 68 67 69 71 72 72 72 71 70 68 69 76 60 40 26 51 40 23 22 24 25 28 27 26 38 29 32 22 16 16 18 20 22 24 24 22 19 17 18 22 29 41
69 69 69 70 70 71 72 73 73 71 69 69 68 67 86 48 24 23 28 27 24 26 27 28 28 26 30 23 21 20 20 22 21 17 16 20 20 23 20 22 20 19 18 18 20
67 68 69 70 71 73 73 72 76 72 71 71 69 66 76 45 32 33 33 34 26 25 30 27 28 32 31 34 26 22 24 17 19 22 23 19 23 22 17 20 21 19 20 19 20
67 68 70 73 74 74 74 78 78 74 74 74 69 72 71 36 40 36 35 27 22 19 25 23 24 26 33 29 28 31 29 31 16 18 21 24 30 20 16 20 20 22 21 21 20
65 68 72 73 74 76 79 81 81 77 76 73 83 80 76 42 47 34 30 28 26 28 29 23 27 33 44 49 46 36 41 32 25 18 23 26 29 21 19 20 20 20 22 21 22
66 69 70 72 74 80 82 82 78 77 69 60 46 74 48 32 24 23 22 24 30 33 43 41 36 44 49 59 65 39 37 33 29 20 22 25 28 22 22 21 20 21 24 24 22
66 67 69 70 71 79 84 69 51 42 50 38 50 46 37 27 26 29 26 30 36 46 59 51 59 62 47 41 44 45 45 41 31 24 26 20 26 23 22 24 22 23 25 24 22
66 66 67 69 73 77 84 50 46 52 80 53 51 47 37 36 40 32 29 43 45 54 46 63 72 51 44 42 38 39 56 65 39 25 25 27 23 22 20 21 20 20 25 23 24
65 67 68 72 76 78 64 52 46 52 86 53 40 37 32 34 38 32 39 46 42 53 57 74 59 39 47 52 53 49 47 52 59 30 25 50 53 39 35 22 22 23 22 22 23
69 67 71 76 81 76 57 51 54 60 91 48 42 32 23 23 38 21 35 43 50 56 56 71 46 44 47 51 55 95 40 45 53 38 50 62 75 49 38 36 28 23 26 25 24
69 70 71 70 88 69 54 56 63 72 65 33 25 15 18 34 29 32 27 38 51 55 67 62 62 80 82 70 70 89 56 47 51 34 38 51 87 70 43 39 33 26 26 27 23
70 72 73 77 87 71 62 66 69 85 62 30 22 28 35 32 30 32 45 43 42 53 55 54 40 52 54 50 53 62 55 54 39 44 56 43 74 68 40 31 30 26 25 25 42
73 74 75 63 72 63 70 77 88 73 24 29 30 39 38 43 43 48 61 60 70 85 77 65 47 54 53 67 59 64 60 73 75 75 82 59 82 57 39 31 28 29 36 38 43
75 80 75 64 68 72 78 91 76 36 32 28 34 40 54 43 46 57 71 80 48 65 79 89 78 52 44 84 80 66 52 60 80 78 77 59 69 48 32 27 27 36 53 51 53
76 88 79 77 71 81 85 94 56 34 31 37 38 55 51 43 57 70 88 82 59 58 82 84 71 46 41 52 68 47 50 32 59 73 71 54 42 28 46 54 42 56 58 64 62
89 85 79 72 74 88 91 73 39 30 32 36 50 48 60 55 59 84 72 62 63 50 60 68 89 55 59 64 53 54 40 66 74 86 82 90 67 84 91 90 79 79 76 73 69
90 88 68 62 79 94 93 81 39 28 30 39 45 52 50 63 60 86 76 59 46 50 60 72 86 64 58 94 80 65 61 76 75 86 92 95 98 81 80 89 90 82 78 77 73
91 94 68 70 94 98 96 56 41 34 35 40 44 48 61 65 61 64 65 63 50 52 69 74 98 94 60 46 55 55 72 70 83 94 88 84 95 87 82 83 83 80 80 79 75
92 78 70 75 97 91 71 43 42 39 38 43 45 55 57 60 67 60 61 52 51 53 64 68 87 94 67 58 58 88 71 69 80 79 78 79 97 86 78 76 74 88 80 78 80
96 93 82 87 82 60 58 56 50 41 40 38 42 50 51 54 54 63 68 56 55 50 62 66 83 96 96 90 83 86 78 71 76 86 61 73 100 94 97 98 90 85 75 81 78
93 92 73 94 82 51 53 52 53 50 37 37 46 49 54 60 61 72 62 56 50 52 60 70 88 81 71 65 93 97 93 77 72 71 58 75 95 97 98 96 96 99 86 77 79
91 93 75 78 47 51 59 52 46 39 43 42 54 49 49 59 62 72 62 59 66 58 64 68 85 80 76 55 93 94 76 81 85 90 89 89 97 95 94 83 83 93 89 84 84
82 78 75 73 70 73 69 47 50 53 50 43 45 51 57 55 56 51 52 54 57 60 68 80 86 85 83 61 74 88 99 92 88 93 93 91 98 94 90 85 88 85 83 85 85

GFSSW_sfc_rhum_123.txt.gz
RH
64 64 65 66 69 72 73 72 72 72 71 70 71 70 70 73 76 61 39 42 59 67 56 24 21 19 20 26 34 41 63 56 52 47 36 28 29 26 21 20 19 15 28 38 62
62 62 63 67 70 71 70 71 73 72 70 71 70 70 72 78 80 45 48 65 65 58 31 31 32 37 24 22 31 35 57 46 45 38 37 32 32 29 24 24 21 22 29 49 72
64 68 68 69 68 69 70 71 72 71 71 70 70 70 76 79 60 38 59 57 58 58 33 31 30 51 37 27 25 30 31 28 35 36 35 38 33 28 30 29 26 25 20 54 72
71 70 69 68 68 68 70 72 72 71 70 69 70 71 74 76 13 41 60 58 55 30 24 26 27 30 49 42 31 26 18 19 25 26 27 29 34 30 32 27 24 21 21 52 65
73 70 70 68 67 69 71 73 73 71 70 68 70 71 76 43 26 28 47 40 25 24 27 29 29 33 35 32 30 29 29 28 25 22 18 17 20 25 24 21 24 20 20 38 57
73 71 69 70 69 70 72 73 73 72 70 70 70 69 82 23 22 27 34 31 30 27 25 30 31 30 35 35 33 29 29 26 22 21 16 22 21 22 18 18 22 21 21 22 43
70 70 70 70 71 72 73 73 73 72 72 72 72 68 82 32 33 42 37 37 34 29 28 30 30 33 35 38 30 31 34 28 23 20 21 17 25 24 16 16 19 23 21 20 27
69 70 70 72 74 74 74 74 76 77 75 74 73 81 71 36 47 49 43 37 27 26 26 26 27 32 34 34 37 40 38 36 19 20 19 26 24 18 21 19 18 19 20 22 19
68 68 70 74 74 74 75 79 79 78 77 75 87 83 52 41 43 37 44 35 28 28 34 24 35 37 38 52 57 52 52 39 30 20 21 22 22 17 19 21 20 18 18 21 20
68 68 70 72 73 78 82 82 78 80 75 70 58 75 45 30 29 24 28 25 31 35 41 50 47 49 56 55 55 37 45 37 38 26 26 29 29 22 18 21 22 20 18 21 22
69 68 68 70 70 77 88 60 40 43 58 41 44 49 38 31 30 30 30 33 38 50 66 53 64 68 58 47 39 41 47 51 45 37 39 37 31 26 22 22 19 22 22 24 21
68 67 68 68 71 76 90 56 47 46 61 54 53 50 41 38 44 33 31 46 53 60 54 61 73 47 47 49 52 53 56 54 42 34 42 46 44 29 23 24 18 20 21 25 24
68 66 68 71 75 74 63 57 45 51 70 46 45 45 39 41 42 34 39 48 54 62 56 62 50 46 46 51 58 59 66 61 58 49 40 50 55 35 24 25 21 18 21 19 25
67 68 69 75 80 77 60 52 52 55 77 53 48 37 28 33 37 25 37 43 52 60 58 70 52 50 52 54 49 73 48 54 89 90 85 47 65 46 38 39 35 21 22 25 25
70 69 70 71 81 70 56 58 61 64 45 40 30 18 24 32 31 32 34 44 57 58 66 71 64 72 82 69 51 72 59 83 74 70 64 65 71 56 45 50 40 33 25 28 31
70 70 72 83 93 76 67 65 65 83 54 30 26 30 38 36 36 34 44 48 44 61 61 61 49 53 55 47 55 61 70 77 69 74 94 65 65 72 54 43 39 36 32 63 66
73 73 77 71 79 69 75 76 84 69 25 30 31 40 45 44 44 49 64 69 70 86 71 63 67 54 48 76 62 73 76 94 94 98 84 46 57 52 42 49 49 52 64 62 60
74 79 78 73 75 76 77 87 74 42 32 30 36 41 54 46 47 57 65 74 57 65 82 93 86 64 52 74 72 84 67 75 89 89 73 56 65 66 57 34 53 58 64 68 77
76 95 83 79 71 79 79 89 57 39 31 38 39 56 55 47 59 65 87 76 64 57 85 82 79 46 48 49 70 74 89 50 59 85 94 78 61 74 75 73 78 78 78 80 76
88 93 83 75 76 81 86 59 39 32 31 36 52 52 64 58 64 81 75 63 60 53 60 78 89 54 54 66 70 78 57 69 77 96 84 89 94 91 90 85 83 84 84 81 77
92 87 72 72 78 84 91 71 38 30 32 40 47 52 55 67 69 86 78 63 56 54 52 74 90 68 59 96 95 86 92 84 78 93 95 96 93 80 91 93 94 87 84 83 81
95 96 74 74 94 97 92 66 43 36 36 43 44 52 64 67 63 62 68 66 59 61 71 61 88 91 65 58 57 66 92 88 99 89 94 97 99 95 92 88 87 88 80 80 79
91 86 76 73 97 94 72 48 41 40 39 43 48 59 57 59 62 65 64 55 59 60 66 66 84 97 69 61 58 84 72 82 91 96 93 97 99 95 96 94 94 95 94 93 83
95 96 85 81 81 62 57 56 51 45 42 42 49 47 50 56 55 61 57 61 56 57 57 64 85 90 96 85 94 97 83 76 85 95 79 97 99 100 100 100 100 99 97 93 87
94 91 75 94 83 62 57 53 53 54 40 43 55 49 52 57 60 67 69 62 56 53 66 72 90 81 71 65 94 99 94 91 88 89 91 99 99 100 100 100 100 100 93 98 93
95 92 77 74 53 52 61 53 49 42 44 48 53 54 51 57 56 60 68 65 69 64 64 72 88 84 79 63 87 80 80 80 78 92 94 94 97 100 94 82 88 88 99 91 89
86 78 72 79 69 70 70 52 50 48 52 44 52 58 60 56 54 59 58 58 59 64 71 80 89 89 79 64 96 86 98 97 92 93 97 98 99 100 95 91 93 89 87 91 89

GFSSW_sfc_rhum_126.txt.gz
RH
68 66 66 66 68 72 72 71 73 73 71 71 70 70 71 74 76 53 46 54 73 69 54 29 28 36 22 25 37 60 68 88 64 50 43 28 31 33 27 25 27 20 26 30 67
65 63 63 65 70 69 70 71 73 72 71 70 70 70 72 75 79 36 51 65 62 66 27 30 31 42 40 26 30 42 62 44 44 43 39 36 37 35 33 31 31 28 29 35 87
66 67 68 69 67 68 68 71 73 72 70 69 70 71 76 81 52 37 61 64 62 51 34 32 30 54 54 31 28 41 39 31 34 33 42 46 36 34 37 34 34 31 30 46 89
68 71 72 68 66 66 69 72 73 72 70 69 71 73 73 77 13 40 56 58 50 28 26 28 28 33 43 49 41 45 29 30 32 27 25 25 27 22 20 21 28 27 27 37 76
74 73 71 69 65 67 70 72 73 72 71 71 73 72 69 19 18 27 46 41 28 24 27 31 33 39 40 39 34 34 34 30 27 25 24 21 22 24 21 18 17 22 23 28 52
76 73 72 69 67 68 70 72 73 73 71 73 74 72 71 21 23 32 40 34 33 30 29 31 34 34 41 40 40 34 34 33 30 28 25 23 19 20 17 19 18 17 18 24 27
74 73 71 70 69 71 72 72 73 74 74 74 74 72 76 26 35 45 45 40 39 33 32 32 31 36 38 40 33 36 42 29 24 26 23 22 21 23 16 16 18 18 16 18 25
74 72 72 71 72 73 73 74 77 78 78 74 74 82 53 39 49 54 52 38 34 33 30 30 31 38 37 35 39 45 46 54 25 20 19 22 18 14 20 22 23 19 20 18 19
73 72 72 73 72 74 74 76 80 78 78 76 86 84 36 38 38 36 44 34 30 33 38 25 36 44 44 53 56 57 48 47 32 23 23 24 25 19 21 21 22 19 17 19 18
72 70 72 72 72 76 81 80 80 82 76 70 63 63 38 31 32 28 32 34 34 38 43 47 52 56 60 58 58 44 50 52 43 35 31 36 38 31 27 23 22 21 21 19 19
70 70 69 70 70 73 89 50 48 54 86 49 48 47 36 33 34 32 32 36 41 47 63 57 64 73 62 54 44 46 50 54 45 37 42 44 44 39 33 31 29 25 21 20 18
71 70 69 68 69 74 91 54 42 41 38 52 54 51 46 43 38 32 35 47 54 58 60 62 78 54 48 52 55 57 63 62 50 43 46 48 49 43 38 35 33 30 24 19 20
71 69 67 70 74 73 71 57 53 54 53 46 49 47 43 40 40 36 39 49 60 66 63 69 55 47 51 58 64 62 68 60 60 50 49 61 70 62 44 36 32 29 22 18 20
74 71 70 72 79 81 70 61 58 61 77 54 51 37 39 40 37 28 38 48 56 61 60 70 56 53 58 58 54 71 49 49 57 76 94 66 85 53 42 37 31 27 22 21 25
72 71 73 71 77 72 63 67 71 70 30 46 41 21 29 32 33 32 37 49 62 61 68 70 69 78 85 68 55 69 54 70 70 93 91 64 90 49 39 43 38 30 30 27 23
75 73 76 86 86 77 74 69 74 80 44 34 27 34 39 36 38 34 48 49 52 64 65 65 56 58 60 52 53 49 73 78 87 91 96 56 70 56 48 36 45 66 82 79 75
73 74 77 72 76 76 79 80 81 55 28 32 34 42 45 44 45 51 63 58 67 80 70 66 69 61 51 72 65 77 77 88 86 97 66 48 86 57 41 41 38 66 92 85 81
78 78 74 70 74 77 77 82 65 48 34 33 38 43 53 48 49 54 64 63 59 70 89 88 78 65 61 71 62 72 92 79 93 65 66 54 85 71 82 85 83 86 85 85 85
80 94 81 71 75 78 78 91 60 40 32 38 40 54 54 47 64 64 84 72 67 60 74 94 78 46 43 47 59 85 88 64 71 67 87 75 66 73 82 88 90 89 86 89 86
89 86 80 82 79 78 88 56 41 34 32 38 47 50 62 59 66 80 72 65 62 56 58 68 88 55 58 70 66 80 71 86 75 96 95 85 93 95 95 94 91 95 94 88 84
89 86 80 79 76 85 90 69 38 30 32 42 46 50 54 65 70 86 77 64 62 58 63 69 92 64 62 88 86 87 90 91 96 96 96 95 96 100 99 96 94 94 97 91 90
91 98 79 80 95 96 90 58 42 36 38 43 43 51 63 66 60 61 70 61 62 67 70 64 85 83 61 50 67 79 94 95 98 93 91 95 98 100 99 98 98 96 94 86 84
86 90 77 76 97 96 76 51 42 40 39 42 52 57 55 57 61 64 64 55 63 62 70 70 87 96 68 55 56 80 73 87 97 97 97 98 98 100 99 99 98 99 99 98 95
91 96 85 83 86 71 60 54 52 43 44 44 51 46 51 54 56 59 57 61 59 62 54 69 86 89 94 82 99 94 95 95 77 97 94 98 97 97 98 98 99 99 100 99 98
93 92 76 96 90 61 57 53 52 53 40 46 53 48 50 56 58 65 69 66 61 56 65 68 89 84 79 68 99 91 92 93 92 95 95 98 97 99 99 99 100 100 100 100 100
96 92 80 71 61 57 58 52 48 42 43 51 52 53 55 57 55 62 66 71 72 65 68 73 87 85 84 81 98 91 84 73 75 91 98 97 97 100 100 93 88 91 97 97 98
93 80 72 78 63 65 63 51 48 50 51 51 52 59 62 60 58 57 60 64 64 71 78 81 90 90 80 68 96 94 98 99 93 91 97 93 100 100 90 90 93 88 86 91 91